GFSSGP_sfc_thetae_000.txt.gz
Theta_e
332 320 318 317 308 308 304 308 313 311 310 309 311 308 306 309 308 305 328 330 334 337 341 347 351 348 345 341 339 338 336 336 335 333 336 338 335 334 333 333 331 333 334 332 331 332 332 331 333
324 319 317 314 303 300 303 311 311 313 310 310 309 309 307 306 316 320 324 331 334 337 340 345 351 348 344 341 339 337 335 335 334 335 337 338 336 333 334 334 331 328 330 330 329 330 331 330 331
326 318 310 306 304 300 304 312 311 311 310 309 307 308 308 308 314 322 329 331 333 336 338 344 351 347 344 340 338 337 335 335 334 338 338 338 336 332 332 330 328 329 329 327 328 328 329 328 332
316 312 308 302 301 307 310 313 314 311 310 308 308 307 312 315 315 326 330 331 330 332 340 348 351 347 345 343 339 337 335 336 334 334 338 337 336 334 331 328 327 328 327 327 326 327 327 328 329
316 308 300 299 302 308 312 315 312 310 311 309 308 307 311 318 326 328 329 330 329 330 340 344 351 346 344 340 339 337 336 336 334 334 334 333 335 332 331 330 329 330 329 328 327 327 327 328 327
307 305 296 296 300 306 310 315 314 311 312 308 306 306 312 320 323 327 329 327 330 330 338 343 346 345 344 341 339 339 338 337 337 335 333 331 329 331 331 330 333 331 330 328 326 326 327 328 327
306 301 297 297 299 304 309 315 311 311 311 308 309 305 313 317 324 328 327 328 329 330 333 338 338 340 342 343 341 341 338 339 339 335 333 334 334 333 333 333 334 333 329 327 325 323 325 328 328
309 304 297 298 298 302 312 313 314 311 308 310 310 306 307 318 326 327 327 328 327 327 329 330 334 335 331 329 340 339 340 339 339 338 336 334 334 335 335 334 334 332 329 326 322 321 323 327 329
313 299 295 300 302 305 312 310 313 311 309 309 309 312 320 326 326 325 323 325 326 327 326 325 329 330 329 328 334 338 339 337 337 335 333 331 326 328 330 331 333 331 329 326 322 322 324 325 326
307 300 299 305 307 308 311 311 311 308 309 308 308 315 324 325 323 323 322 322 323 324 325 326 326 327 326 327 330 326 330 330 329 328 327 326 323 324 328 330 332 330 330 328 324 323 324 324 313
308 302 306 305 311 311 309 309 313 308 307 311 309 313 319 323 322 322 322 322 322 325 326 327 326 327 325 321 328 327 326 327 327 325 324 325 324 323 323 324 325 324 328 323 322 319 318 313 311
304 308 307 308 311 309 307 311 309 310 310 312 312 315 318 321 321 321 320 320 321 323 325 327 327 327 326 323 319 322 324 325 323 325 323 322 321 320 320 320 322 320 321 320 318 315 315 311 310
306 306 308 308 309 309 310 306 308 309 313 313 313 313 317 318 320 321 322 321 319 320 323 325 327 327 328 324 320 320 322 323 323 323 323 322 321 319 318 318 319 317 317 317 315 314 313 312 310
307 308 307 309 309 310 306 306 306 310 313 311 311 310 311 316 318 319 320 319 319 319 321 324 328 328 329 328 325 321 321 322 322 322 323 323 322 320 318 317 318 317 317 317 316 314 313 313 314
307 302 305 306 307 306 306 302 303 309 310 309 310 309 311 312 314 315 319 320 320 320 321 322 324 331 329 328 328 326 324 324 322 322 323 323 322 321 320 317 317 318 319 319 318 317 315 313 315
302 301 296 305 306 305 303 296 305 309 309 307 309 308 309 312 313 314 316 319 322 322 321 322 325 326 330 329 328 329 328 325 324 323 322 323 324 322 321 319 317 319 319 319 318 317 316 315 314
299 292 295 299 306 304 302 298 306 308 306 305 306 306 308 309 310 312 314 316 318 321 322 322 322 322 326 329 330 329 329 327 326 325 324 323 324 324 323 323 321 319 318 319 319 317 316 314 314
293 293 296 296 302 302 300 299 304 304 304 303 304 302 304 305 306 308 310 310 312 316 318 321 324 323 323 326 329 329 329 328 328 328 327 325 325 325 324 324 323 321 319 319 319 317 316 316 315
300 297 295 298 303 298 298 299 300 301 301 302 301 302 303 304 307 308 309 310 309 310 312 316 318 322 324 324 325 326 326 326 327 329 329 329 328 326 325 324 324 324 322 320 320 319 317 317 316
299 296 295 299 302 298 298 298 299 300 299 300 301 302 304 305 306 307 309 310 310 311 311 312 315 319 322 324 325 326 327 328 329 330 330 330 329 328 327 325 325 324 324 323 320 320 319 319 317
298 295 296 296 299 301 297 296 296 300 302 303 304 305 305 305 306 307 308 309 310 311 311 313 313 314 320 322 324 324 325 325 324 326 327 328 329 329 329 328 326 326 326 325 324 321 319 317 317
294 300 300 299 295 290 297 287 293 298 300 301 301 303 304 304 306 307 308 308 309 311 313 313 313 313 315 319 321 321 320 320 323 324 325 327 328 329 329 329 328 327 328 327 326 326 323 322 319
298 302 298 297 293 292 293 289 292 298 297 300 301 303 304 304 305 306 308 310 311 311 310 311 312 313 314 313 313 315 320 321 323 324 323 323 325 329 329 329 328 328 329 330 328 328 327 325 322
302 297 297 295 292 286 289 289 289 295 298 300 302 303 305 305 305 307 309 310 309 310 310 309 309 309 310 313 316 315 313 314 316 317 318 319 321 323 326 328 328 328 328 329 329 329 328 326 324
297 292 287 285 285 286 290 288 291 297 301 302 302 303 304 305 304 305 306 307 308 308 308 309 309 308 309 309 309 309 311 315 317 318 319 319 320 321 322 324 326 327 328 329 330 330 329 328 325
294 293 289 284 285 286 291 287 293 299 301 302 304 305 305 304 304 305 306 306 306 308 308 309 309 309 309 309 308 308 308 309 311 313 314 316 318 321 323 324 325 325 327 328 329 330 329 329 327
295 292 294 291 291 287 291 294 297 299 298 299 301 304 303 303 303 304 305 306 306 306 307 308 308 308 309 308 308 308 308 308 307 308 308 310 311 313 313 316 320 322 326 327 327 326 327 327 327
292 295 289 291 283 281 288 289 290 294 295 298 300 301 303 304 304 304 305 306 306 306 307 307 308 308 308 308 308 309 309 309 309 308 307 308 308 309 309 310 311 312 316 319 322 324 325 324 325
292 291 291 290 289 284 282 287 295 296 298 297 300 303 303 302 303 304 304 305 306 306 306 306 306 307 307 308 308 307 308 309 309 308 309 309 309 309 309 308 308 309 310 311 313 316 319 321 323
295 293 294 287 286 287 284 286 298 298 300 302 302 304 302 303 304 304 304 305 305 305 306 305 305 305 306 307 307 307 308 308 307 307 308 309 309 310 310 310 310 310 309 310 310 311 314 315 316

GFSSGP_sfc_thetae_003.txt.gz
Theta_e
332 319 311 310 303 301 298 304 306 309 306 304 307 306 306 305 306 299 322 329 336 338 343 346 353 350 346 343 341 339 336 336 335 334 339 340 338 336 334 334 333 336 334 333 331 332 334 331 337
327 319 309 305 297 294 298 304 307 310 308 306 306 306 303 303 316 319 321 328 336 339 343 346 352 350 345 342 341 339 338 337 336 337 341 340 339 337 335 334 332 330 332 331 331 330 330 329 330
322 318 303 300 298 295 298 307 309 312 307 306 304 307 306 305 315 320 324 329 333 338 342 346 352 350 345 342 340 338 336 337 336 340 339 340 338 335 333 331 329 330 330 329 329 329 330 329 328
311 305 301 297 296 301 303 308 313 311 307 306 305 304 309 315 315 324 327 329 331 331 336 349 352 349 347 345 340 339 336 336 336 340 340 337 339 335 332 330 328 329 329 328 327 328 328 327 328
308 300 294 292 295 300 303 314 314 308 307 305 304 305 307 317 324 326 326 328 327 335 342 347 352 349 347 342 341 339 338 337 336 339 337 335 336 332 333 331 330 331 330 329 327 327 328 329 328
302 298 290 289 294 299 302 315 314 309 308 304 305 307 308 318 322 324 326 325 329 336 341 346 348 348 346 344 343 340 338 339 337 336 336 334 333 334 334 331 333 332 333 331 328 327 328 330 329
300 296 290 291 293 297 301 312 311 309 307 305 307 305 310 313 322 325 324 324 327 338 340 342 341 341 345 344 343 342 342 339 340 337 335 335 335 334 334 333 335 334 334 330 328 326 327 330 330
303 298 292 290 293 296 304 309 311 308 304 308 307 305 307 314 323 325 323 324 324 333 337 336 337 337 335 335 342 342 341 339 340 339 337 335 334 336 337 337 337 335 333 330 328 325 324 326 329
307 296 290 294 297 299 308 307 311 309 306 307 308 310 315 322 323 321 319 322 323 325 327 334 335 334 331 328 335 339 339 337 338 337 335 332 327 329 332 333 335 335 332 330 327 323 324 329 330
302 295 296 300 301 301 307 306 307 307 306 305 309 318 321 321 320 319 319 319 321 322 323 326 332 332 330 330 330 330 332 330 330 330 328 326 324 323 329 330 334 334 332 331 328 325 326 327 315
303 298 304 306 307 306 305 306 308 306 303 307 306 314 319 318 319 320 320 320 321 322 323 324 324 328 328 325 329 325 326 326 327 325 325 324 325 322 325 324 326 325 327 324 324 320 317 315 312
302 306 306 308 308 307 305 306 304 305 307 310 309 314 319 319 318 319 320 320 321 322 324 326 325 324 324 322 326 325 324 325 324 325 323 323 321 319 320 323 322 321 322 322 320 317 315 314 311
302 305 307 306 306 305 308 305 303 305 310 310 312 316 317 319 319 320 320 320 318 321 323 325 326 325 324 321 321 322 323 325 324 323 323 322 321 317 318 319 318 320 319 321 317 317 314 313 310
304 304 304 305 305 305 305 304 303 306 309 308 309 310 314 316 318 318 319 319 318 318 322 325 327 325 326 323 318 318 318 321 322 321 322 321 321 319 317 316 318 317 318 317 317 315 314 311 310
305 299 301 303 304 303 303 300 301 306 305 307 306 306 309 313 316 317 319 320 321 317 319 322 326 328 326 326 323 319 319 321 320 320 321 321 321 320 319 317 317 317 317 315 315 314 312 311 311
299 296 292 301 303 304 302 295 303 305 304 306 305 304 304 308 310 310 313 317 319 318 317 320 327 329 328 327 327 325 323 321 321 320 320 322 322 321 320 320 318 317 317 317 316 316 314 313 312
294 289 291 295 302 302 299 296 302 304 303 302 302 302 303 303 304 304 307 307 310 317 318 318 321 326 328 329 329 327 326 324 322 321 321 321 322 323 322 321 321 316 316 318 318 316 316 315 315
290 289 291 291 298 299 297 297 301 301 299 298 297 298 300 303 304 305 309 309 310 308 311 317 319 321 328 329 328 326 326 327 323 324 323 321 322 322 321 322 321 318 317 317 316 317 315 317 317
295 292 291 294 300 298 296 296 299 300 298 298 297 299 301 303 304 308 309 310 310 310 310 310 313 319 321 321 324 324 326 324 324 324 325 324 323 322 321 322 320 320 320 318 317 318 316 317 313
295 293 292 296 300 296 294 296 297 297 297 298 301 301 301 303 305 307 308 308 309 310 310 310 311 312 318 321 323 325 324 324 326 327 327 326 326 325 323 322 322 322 322 321 318 317 317 318 316
295 291 292 294 298 297 295 293 293 297 299 300 301 302 303 303 304 305 306 306 307 308 309 311 310 311 313 320 322 322 323 322 322 323 324 327 327 328 327 326 324 323 323 322 322 320 318 317 316
291 298 298 296 292 288 294 285 290 295 296 298 298 300 300 301 303 305 306 307 307 307 307 308 310 311 314 313 314 317 317 317 320 321 322 324 326 327 328 328 327 325 325 324 324 325 322 320 318
296 300 297 295 290 288 290 287 290 295 294 296 298 300 300 301 303 305 306 308 308 308 306 306 308 309 309 310 312 312 311 315 317 318 319 320 321 324 327 327 327 326 327 326 327 328 327 325 322
300 295 294 292 290 284 288 288 287 293 295 296 298 300 301 301 303 305 306 307 307 306 306 307 307 307 308 308 307 307 307 310 312 314 315 317 318 320 321 325 327 327 327 327 328 329 328 328 327
295 290 285 283 283 284 289 287 289 296 299 300 299 300 301 301 302 304 304 304 305 305 306 308 307 307 307 307 306 306 305 305 306 307 309 309 313 316 317 319 322 327 328 328 329 328 328 328 327
291 291 287 283 283 286 289 285 291 297 301 302 302 302 301 301 302 303 304 303 304 305 305 305 306 306 307 306 306 306 306 306 306 306 306 306 307 309 310 309 311 313 320 327 328 329 329 328 327
293 290 294 289 288 285 288 291 294 296 297 299 300 301 300 300 302 303 303 303 304 304 305 305 305 306 306 306 306 306 306 307 306 306 306 306 307 310 309 308 308 308 309 311 315 318 322 324 325
291 293 289 288 282 280 285 287 288 291 293 296 299 299 300 300 302 302 303 304 304 304 304 304 304 304 305 305 306 306 306 307 307 307 306 307 309 308 309 308 308 308 308 308 309 309 311 313 316
292 289 289 289 287 282 280 285 292 294 294 296 298 300 300 300 301 302 303 303 303 303 302 303 303 305 306 307 306 306 306 307 307 307 307 308 308 308 308 308 308 308 308 308 308 308 309 309 310
293 292 291 286 285 285 283 285 295 296 296 299 300 301 300 301 302 302 302 302 301 302 303 303 305 305 305 305 305 305 306 305 305 305 305 305 305 306 306 306 307 307 307 308 307 307 308 308 308

GFSSGP_sfc_thetae_006.txt.gz
Theta_e
331 322 309 309 301 300 296 301 305 307 305 304 305 304 304 304 303 296 318 327 335 336 342 346 352 351 348 345 342 340 337 336 334 336 336 340 338 335 334 333 334 336 334 330 330 331 334 334 339
328 319 307 304 297 293 296 302 305 309 309 306 304 304 302 303 314 318 320 333 337 339 342 343 353 349 346 344 341 339 337 336 335 336 339 340 338 337 335 333 331 330 330 330 331 330 330 329 333
319 314 302 299 295 293 296 304 307 310 307 305 302 305 303 304 314 320 323 334 336 338 342 346 353 350 345 343 342 338 338 336 336 337 340 341 338 337 334 332 330 330 330 329 331 329 330 328 328
310 304 299 295 293 299 300 304 308 310 308 305 304 303 306 314 315 321 325 331 334 335 340 348 352 350 347 343 341 338 337 337 337 340 341 340 339 337 332 330 330 330 329 328 328 329 328 329 328
305 298 292 291 292 297 300 305 311 309 307 305 304 303 305 317 321 324 324 331 330 332 339 347 352 350 346 343 341 339 337 338 336 337 338 337 339 335 332 331 330 330 330 329 328 328 330 328 329
301 296 288 287 291 296 298 303 307 308 308 304 303 306 306 316 321 322 325 325 332 334 340 345 349 349 347 344 342 340 338 339 337 338 336 335 335 333 333 333 332 332 333 332 330 328 329 330 330
299 295 290 289 292 294 299 306 305 308 305 304 305 305 309 315 321 323 323 323 333 338 341 343 344 345 345 344 344 342 340 341 340 338 337 337 336 334 336 333 334 334 334 333 331 329 329 329 331
302 297 291 289 291 294 301 306 308 306 306 306 307 305 306 313 321 323 322 321 328 334 338 339 337 338 337 337 343 341 341 341 340 339 338 335 334 335 336 336 336 336 335 333 331 330 327 327 330
305 295 290 292 293 297 303 302 308 309 305 306 310 308 312 316 322 320 319 320 322 332 333 335 334 333 333 334 337 340 340 339 338 337 335 332 326 327 330 332 334 336 335 334 332 330 326 327 329
301 294 296 300 298 300 303 304 305 306 305 303 309 317 317 319 319 318 317 318 319 323 328 333 333 332 330 333 330 331 331 329 329 330 328 326 323 323 328 329 333 334 335 334 332 330 328 328 318
302 297 302 304 306 306 304 303 305 303 303 305 305 313 317 316 317 318 318 319 320 320 321 331 330 331 329 328 326 326 326 326 326 326 325 324 324 321 322 323 325 327 329 325 327 322 319 315 313
300 304 304 306 308 305 302 305 304 303 305 308 309 311 317 316 317 318 318 319 318 320 322 322 328 328 327 326 326 325 325 324 323 324 324 322 321 319 319 321 324 323 322 321 319 317 316 313 312
302 305 307 307 306 303 304 302 303 303 307 306 309 315 317 317 317 318 320 320 319 320 322 323 322 326 325 320 324 323 323 324 324 323 324 324 322 319 318 320 322 322 320 319 318 317 317 314 312
305 304 303 303 304 303 302 302 301 304 306 305 307 310 314 317 318 317 318 319 318 318 322 324 324 324 324 322 321 323 323 322 323 323 324 323 323 322 318 319 320 320 320 319 319 317 317 315 312
304 299 301 301 302 302 302 299 299 304 302 303 305 305 308 312 314 317 317 318 319 319 318 322 325 325 324 323 320 320 322 322 322 323 322 322 322 321 321 318 317 318 315 316 316 315 313 311 310
297 295 292 298 300 302 301 293 301 304 299 301 303 300 302 303 304 304 306 310 316 318 316 319 326 326 325 326 324 320 319 318 320 321 320 321 321 320 319 318 317 316 314 314 313 313 312 311 311
293 289 290 294 300 299 298 295 301 301 301 301 298 297 300 302 304 306 308 307 307 307 314 315 320 324 326 326 327 324 320 319 319 318 318 319 320 320 319 318 318 316 314 314 315 315 313 314 314
289 289 290 290 295 297 295 296 299 300 297 296 295 297 300 302 304 306 309 309 309 308 308 311 316 320 324 325 325 323 323 323 320 320 320 319 318 319 319 320 319 318 315 315 314 315 315 315 316
294 291 289 293 298 296 295 295 298 298 296 295 296 298 300 302 303 306 306 307 309 309 309 308 310 312 320 322 321 321 324 323 322 322 322 321 320 319 319 320 320 319 318 319 318 316 315 315 313
294 291 290 294 298 296 293 294 297 294 296 297 299 299 301 301 304 305 306 305 306 305 307 308 309 310 314 319 322 323 322 323 324 325 325 324 323 322 321 320 321 320 319 319 319 316 316 316 314
293 290 290 293 296 296 294 292 291 295 297 298 299 300 301 302 303 304 304 305 305 304 304 306 308 310 311 318 321 321 322 321 321 322 323 325 326 326 325 325 322 322 320 320 320 319 316 317 320
290 296 296 295 291 287 292 285 288 292 295 296 296 298 300 302 303 304 304 304 304 304 304 306 307 307 308 311 311 312 313 313 316 318 320 320 322 324 325 326 325 325 323 321 322 322 321 320 317
294 299 295 293 288 286 288 286 289 293 293 296 296 297 299 300 302 303 304 305 305 305 304 305 306 307 306 305 306 306 306 310 312 312 311 312 315 317 319 322 323 324 325 325 325 324 323 324 322
299 294 292 290 288 283 287 288 287 290 294 295 296 297 299 300 302 303 304 305 304 304 305 305 306 306 306 306 305 304 303 304 305 305 306 307 310 313 312 312 315 321 324 325 327 327 326 326 325
293 289 284 283 282 282 287 286 290 294 296 300 298 298 298 300 301 302 302 303 303 303 303 305 305 305 305 305 305 304 304 304 303 303 304 304 306 307 308 307 307 308 309 313 319 323 324 325 324
290 290 285 281 281 284 287 284 290 293 297 300 300 299 299 300 301 302 302 302 303 303 303 303 303 304 304 304 304 305 305 305 305 304 304 304 305 306 306 307 307 307 308 308 308 310 313 317 320
290 288 292 288 285 284 287 290 292 296 296 298 298 298 298 299 301 302 302 302 303 302 301 302 303 303 304 304 304 304 305 305 304 304 305 305 305 307 306 306 306 306 307 307 307 307 307 308 309
292 294 287 287 282 280 283 285 288 290 294 296 297 297 298 298 300 301 302 302 301 301 301 302 303 303 304 304 304 304 304 304 304 303 303 303 304 304 304 304 305 305 306 306 306 306 306 306 307
290 288 288 288 286 282 280 284 291 292 294 297 298 298 299 298 299 300 301 300 301 301 302 302 302 301 301 302 302 301 302 302 301 300 301 300 300 301 301 302 302 303 304 303 303 303 304 304 305
292 291 289 285 283 283 282 285 293 292 294 296 298 299 298 299 300 300 299 300 300 300 300 299 299 298 298 299 299 299 300 299 297 297 297 298 297 298 298 300 300 300 299 300 301 301 302 302 300

GFSSGP_sfc_thetae_009.txt.gz
Theta_e
336 322 307 309 300 299 294 300 303 306 305 303 304 303 302 302 301 296 315 328 332 334 340 346 352 351 349 347 344 341 338 335 333 335 334 340 338 336 334 334 334 336 333 328 330 332 335 332 337
328 316 307 303 296 292 294 300 303 307 310 305 303 304 301 301 312 317 318 328 335 337 341 342 352 351 349 346 343 341 338 336 334 335 338 341 337 334 334 332 330 330 329 329 331 330 332 330 337
316 308 302 299 294 292 295 301 305 308 310 304 301 304 302 303 311 316 322 333 335 337 340 342 352 351 347 345 342 340 338 337 336 336 340 341 339 336 334 331 331 329 329 329 331 330 329 329 331
308 303 298 294 292 297 299 302 302 303 310 304 302 302 306 311 312 320 325 333 333 335 337 344 352 349 347 344 343 340 338 337 337 338 338 342 339 336 334 331 330 330 329 329 329 331 330 329 329
303 297 291 289 291 295 298 301 302 303 307 305 303 302 305 312 321 322 326 332 332 333 338 345 352 349 346 344 342 340 337 337 337 340 340 338 339 337 332 331 330 331 330 330 328 329 331 330 329
301 296 288 285 289 295 296 299 301 302 306 305 301 302 305 315 321 322 325 328 333 333 338 344 349 349 348 345 342 340 338 338 336 336 337 334 336 335 333 333 332 331 332 331 330 329 329 331 331
299 294 289 288 290 293 297 303 302 304 304 304 305 301 308 314 321 322 322 325 330 333 337 340 344 345 346 345 344 343 340 339 339 339 338 337 337 335 334 334 333 334 334 334 334 332 330 329 330
300 297 290 289 289 292 299 302 305 303 302 306 306 303 304 311 320 321 320 321 328 333 337 338 339 340 338 337 343 343 341 341 341 339 338 336 334 334 336 337 335 335 335 335 334 333 331 329 329
302 294 290 292 291 295 301 301 305 307 304 306 307 307 311 314 320 318 317 317 323 331 333 336 335 334 334 334 337 341 341 340 338 336 335 333 326 325 328 332 334 334 336 336 335 333 332 331 329
300 294 296 299 296 298 303 302 303 304 303 303 305 315 316 317 317 317 316 316 317 326 329 332 332 331 331 335 332 331 332 331 329 328 327 326 324 322 326 328 333 334 334 335 334 334 333 330 317
300 296 301 303 303 304 303 302 304 301 300 304 304 306 314 315 316 317 316 317 317 321 326 331 329 330 328 330 327 327 327 326 324 325 324 324 323 320 321 321 322 325 327 326 328 325 322 316 314
298 303 303 305 307 305 302 303 301 302 304 307 307 307 315 315 316 317 316 317 317 319 320 327 330 328 327 328 324 325 326 324 322 323 323 321 320 318 317 318 319 320 322 321 319 318 317 315 313
300 303 306 307 306 304 304 300 300 302 305 306 306 307 313 315 315 317 318 318 317 318 320 320 326 329 328 324 323 322 324 324 323 322 323 322 320 319 317 317 317 318 319 318 317 317 317 315 313
305 304 304 303 303 302 300 301 300 302 304 304 304 305 309 315 315 315 315 316 317 318 319 322 321 326 327 325 322 323 322 322 321 321 323 322 322 320 318 317 317 318 318 318 318 318 317 316 314
303 298 300 301 302 301 300 298 298 303 301 301 301 302 304 307 311 314 316 317 318 319 319 320 322 322 323 324 321 323 322 322 321 322 321 321 321 320 320 318 316 317 317 317 317 316 315 313 313
296 294 291 298 299 300 301 293 300 303 300 301 299 297 298 301 302 304 306 305 305 310 316 317 323 324 322 322 321 320 320 321 321 321 320 320 321 320 318 319 318 317 314 315 314 314 313 312 313
294 288 289 294 298 297 296 293 300 300 298 299 296 297 300 302 304 305 307 307 307 307 306 311 316 321 323 323 322 320 318 318 319 318 318 319 319 319 319 318 319 317 316 314 314 314 312 313 313
290 288 290 290 294 295 293 294 300 298 296 294 294 297 299 302 303 304 306 306 308 307 307 308 313 318 321 322 322 321 320 318 317 316 317 317 318 318 318 319 319 317 317 316 314 314 314 314 315
294 290 288 291 295 293 293 294 297 297 295 294 296 297 299 301 302 304 304 304 305 306 307 307 309 309 317 320 319 319 320 321 320 320 320 319 318 318 317 318 318 318 317 318 318 315 314 314 313
294 290 290 294 296 293 292 293 296 295 295 295 296 297 299 300 301 303 304 303 303 303 303 305 307 309 313 319 320 321 320 321 322 323 323 323 322 321 319 318 319 319 318 317 317 316 315 315 315
293 290 289 290 295 294 292 291 293 294 295 298 298 299 301 301 301 301 302 302 302 302 302 305 305 306 309 313 318 319 319 318 317 317 319 320 321 323 323 322 321 321 319 318 319 318 316 315 318
295 296 294 293 290 286 292 284 289 291 294 296 295 297 299 301 301 302 303 302 302 302 303 304 305 306 306 306 307 308 308 308 310 312 312 311 313 314 315 317 319 321 322 320 320 322 321 319 316
294 296 294 293 288 285 286 285 289 290 292 294 295 296 298 300 302 302 303 303 303 303 303 303 305 305 304 304 304 303 303 303 305 305 305 306 307 309 309 308 309 310 314 317 320 322 323 324 321
297 293 291 288 287 282 286 287 287 288 293 293 294 296 298 300 301 302 303 303 302 302 303 303 304 304 304 305 304 303 302 303 304 303 304 304 305 306 307 306 305 305 305 307 308 311 313 318 320
293 289 283 282 282 281 285 284 291 292 294 297 297 296 297 300 300 301 301 301 302 301 301 304 303 303 303 304 304 303 303 303 302 302 302 302 303 304 304 304 304 304 305 305 305 306 306 308 309
290 290 284 280 279 282 286 283 289 293 294 298 299 298 298 299 300 300 301 301 300 301 301 302 302 303 303 303 303 303 303 303 302 302 302 302 302 302 302 303 303 303 304 305 305 305 305 305 305
289 287 291 287 283 282 285 288 291 295 294 296 297 297 297 298 299 300 300 300 299 299 300 301 302 302 302 302 302 302 301 301 300 300 300 300 299 301 300 301 300 302 302 303 303 302 302 303 303
291 293 287 285 281 279 282 283 288 290 292 294 295 296 297 298 299 300 300 299 299 300 301 301 300 299 299 299 299 300 300 299 298 298 297 297 297 297 297 297 299 299 300 299 298 300 301 301 301
288 286 287 287 285 281 279 284 290 291 294 295 296 297 297 297 299 299 298 298 299 300 299 298 297 297 296 297 297 296 296 295 294 293 293 293 294 294 294 294 295 294 294 295 297 296 297 298 298
290 289 288 284 282 281 280 284 291 293 294 297 297 297 297 298 298 298 298 299 299 298 296 295 295 294 295 295 294 294 292 291 290 290 291 291 290 291 291 291 291 290 291 293 293 292 296 294 293

GFSSGP_sfc_thetae_012.txt.gz
Theta_e
335 317 306 308 298 297 293 298 303 303 304 303 303 301 301 301 300 297 312 325 328 331 335 346 353 351 350 348 346 342 339 335 334 335 333 336 337 337 335 334 334 335 331 328 330 332 333 332 336
320 312 307 302 295 290 292 298 302 304 308 309 302 302 301 301 311 315 317 326 332 334 337 342 352 351 350 348 345 342 339 337 334 334 335 341 339 334 332 331 330 331 330 329 330 331 332 332 334
312 307 301 298 293 291 293 299 303 305 305 305 300 303 301 302 308 314 321 327 333 335 339 341 351 351 350 347 344 342 339 337 335 335 336 342 338 337 336 331 331 330 330 328 330 331 332 329 331
307 302 297 292 290 296 297 299 300 300 305 305 301 301 305 308 311 318 325 332 332 333 336 343 351 351 349 346 343 341 339 338 336 336 338 342 341 337 335 331 330 330 330 330 329 332 331 331 331
303 297 290 288 289 294 297 299 299 299 303 305 301 300 303 309 320 320 328 332 331 332 336 340 349 351 348 346 344 341 339 338 336 338 340 341 342 338 335 332 330 330 330 330 330 329 331 331 331
301 296 289 285 287 293 295 298 299 300 303 307 299 300 304 313 318 320 328 329 332 332 336 340 348 350 349 346 344 342 338 338 337 337 337 336 336 339 333 333 332 331 332 332 332 331 330 330 332
298 294 290 287 289 292 295 302 298 301 301 302 302 300 306 311 319 321 323 326 330 332 335 339 342 345 347 346 345 343 340 340 339 338 338 337 337 334 334 334 334 333 333 334 335 334 333 331 330
299 297 290 289 289 291 297 302 303 301 301 306 305 301 302 310 318 320 319 324 324 329 334 335 338 340 339 338 344 344 343 341 341 341 339 337 335 334 336 337 337 334 334 336 336 335 334 333 331
301 294 291 292 291 293 299 301 304 305 302 304 304 305 309 315 318 316 314 317 321 328 331 334 336 336 336 335 336 342 342 340 339 337 335 333 327 325 326 329 334 335 334 335 336 336 335 334 333
299 293 296 299 296 296 301 301 303 302 301 301 302 309 315 316 314 316 315 315 316 323 328 334 333 333 333 337 332 333 332 331 330 328 326 327 324 322 325 326 331 333 334 334 334 334 335 332 320
299 296 300 302 302 302 302 303 303 300 299 302 303 305 308 314 316 316 315 315 316 317 325 331 330 331 330 331 328 328 327 326 325 324 324 323 323 320 319 319 319 320 325 323 325 324 322 319 317
297 302 301 304 305 304 302 303 301 301 303 306 305 305 305 312 314 316 315 314 313 317 321 328 330 329 328 328 326 325 325 324 322 322 323 321 320 319 317 316 317 317 318 319 319 319 319 317 316
300 302 304 305 305 304 304 300 300 301 304 305 305 305 304 309 313 314 316 316 316 316 319 320 328 329 327 325 324 322 323 324 323 322 322 321 319 318 317 317 316 316 317 317 318 317 318 317 316
304 304 304 304 304 302 300 301 300 301 302 303 303 302 302 306 312 313 315 315 316 317 318 320 320 327 327 327 324 324 321 322 321 321 321 321 320 319 318 317 316 316 317 318 318 318 318 317 315
304 298 300 299 300 301 300 298 297 302 299 300 300 299 300 301 304 305 308 308 308 310 316 318 320 321 325 325 324 324 323 322 320 321 320 320 320 319 320 317 316 318 317 317 317 317 316 316 316
297 294 290 298 298 299 299 293 299 301 299 300 298 296 298 302 303 304 306 306 306 306 307 308 320 321 320 322 321 322 321 321 321 320 320 320 320 319 318 318 319 319 315 315 314 315 314 313 313
293 290 289 293 297 296 295 292 297 298 298 296 295 296 299 301 303 303 305 305 306 306 306 307 311 317 320 319 319 319 318 319 319 318 318 319 319 319 318 318 319 317 315 313 314 314 312 314 314
289 288 289 290 294 293 292 293 299 298 296 294 294 296 298 300 301 303 304 303 304 305 306 307 310 311 318 320 319 318 317 315 315 315 315 316 317 317 317 317 317 317 315 315 313 314 317 315 316
294 290 290 291 294 291 291 291 295 297 295 294 293 296 297 300 301 303 303 302 303 303 304 304 308 310 317 318 317 317 317 319 319 320 321 319 318 317 316 316 316 316 315 317 318 318 315 315 315
293 292 289 294 294 291 292 292 295 295 295 294 295 297 298 299 301 302 302 301 301 301 302 304 305 306 311 317 318 319 318 319 320 319 317 318 320 320 320 318 317 317 316 316 315 316 317 317 317
293 292 290 292 293 293 290 290 291 293 294 295 296 298 299 299 300 300 301 300 301 301 301 304 304 305 306 307 312 312 313 311 310 310 309 310 311 309 309 310 312 314 316 317 317 318 318 316 318
293 296 295 292 289 285 290 283 288 290 292 294 294 297 298 299 300 301 302 301 301 301 302 303 304 304 305 304 305 304 303 303 304 305 304 306 306 307 306 306 305 306 308 307 310 311 315 316 315
296 299 296 294 288 283 286 284 287 288 290 293 294 295 297 299 300 301 302 302 302 302 301 302 304 304 304 304 303 304 302 302 303 303 302 303 304 305 304 304 303 303 304 304 304 304 305 306 309
300 295 293 288 286 281 285 286 285 287 290 291 293 295 298 299 300 301 301 301 300 301 301 302 304 303 303 304 303 302 301 301 301 300 300 301 302 302 302 302 302 302 302 303 303 303 303 303 305
296 292 285 281 281 281 284 283 287 291 292 295 296 295 297 299 299 299 299 299 299 300 301 303 302 301 302 302 302 301 300 299 299 299 299 298 298 299 299 299 300 300 301 302 303 302 302 302 302
293 289 283 280 279 281 284 282 288 291 294 295 298 297 297 298 298 299 299 299 298 300 300 301 301 300 300 300 300 299 299 299 298 297 297 296 296 297 297 297 298 298 299 300 299 299 300 300 300
289 288 290 285 281 281 284 287 292 293 293 293 295 296 296 297 298 299 298 298 298 299 300 299 299 298 298 298 298 296 296 295 294 294 293 293 294 295 294 294 294 295 294 294 294 296 296 296 298
291 293 286 285 280 279 281 282 286 290 292 292 293 294 295 297 298 298 298 297 299 299 298 297 297 296 296 295 295 294 293 292 291 291 290 290 290 291 291 290 290 290 289 290 291 294 291 293 296
288 287 286 287 284 280 278 283 289 290 291 294 294 295 295 297 298 298 297 298 298 297 296 294 294 294 293 293 292 290 289 289 288 288 288 287 288 288 288 287 288 287 287 288 288 290 289 291 291
289 288 287 284 281 280 280 283 290 291 292 294 295 296 296 297 298 297 297 297 297 295 293 292 292 292 291 292 290 288 287 286 285 285 286 286 285 286 286 286 286 286 286 286 287 286 287 289 287

GFSSGP_sfc_thetae_015.txt.gz
Theta_e
331 315 313 315 305 303 299 303 307 307 310 313 310 307 308 309 306 306 322 331 333 336 338 349 354 353 351 349 347 343 341 337 336 335 332 335 336 335 335 335 333 333 331 329 330 333 334 334 333
319 313 313 308 300 296 298 304 306 308 310 312 309 308 308 308 316 319 325 330 334 337 339 347 354 352 351 349 347 344 341 337 335 335 335 336 340 336 332 331 330 333 330 328 329 333 332 333 332
314 310 308 303 298 296 298 304 307 306 306 307 308 309 309 310 314 320 327 332 337 337 340 346 352 352 351 350 347 343 340 339 336 335 337 340 340 337 336 333 331 330 330 328 329 332 330 332 332
310 308 303 297 295 301 302 306 304 303 309 309 307 307 311 315 318 323 329 334 336 338 341 346 351 351 352 348 346 343 340 338 337 335 337 340 342 339 336 333 330 329 330 330 330 330 332 332 331
307 303 296 293 294 298 301 303 302 304 306 308 308 307 310 316 325 325 333 334 335 339 342 344 349 350 351 348 345 343 340 338 336 337 339 339 343 340 336 333 331 330 330 330 330 330 330 332 332
307 302 295 293 293 296 299 301 303 304 306 309 306 307 311 319 325 326 333 335 337 338 341 343 346 351 350 348 346 343 341 339 337 337 337 338 338 338 335 334 332 332 331 332 331 332 331 330 330
305 301 296 294 294 296 298 305 304 304 304 307 308 306 311 317 324 326 333 335 336 338 340 342 344 348 348 348 347 345 342 340 340 339 338 338 337 334 333 334 334 335 334 332 334 335 335 334 332
304 302 295 295 295 296 300 305 307 305 306 310 310 307 309 316 323 325 327 331 334 336 339 341 343 347 347 346 345 344 344 342 342 341 339 337 335 335 335 337 335 335 334 334 336 336 336 335 335
305 299 295 297 295 299 302 304 308 309 307 307 309 311 315 320 322 323 323 324 329 332 336 340 342 345 345 344 342 343 342 341 340 338 337 335 335 333 332 331 332 333 335 334 334 335 336 336 335
303 298 298 302 300 300 303 305 307 306 305 306 308 312 317 320 321 321 321 322 323 329 333 337 340 342 344 342 342 342 341 340 338 337 335 334 334 332 329 328 329 331 333 334 334 334 334 334 332
302 299 302 304 304 303 304 305 308 304 304 306 307 310 311 315 318 320 321 321 322 324 331 335 337 340 341 341 341 340 339 338 337 335 334 332 331 331 330 329 329 329 326 329 329 329 330 330 330
300 303 304 306 307 307 305 307 305 305 308 310 310 309 308 309 311 316 319 321 321 322 325 332 336 337 339 339 339 338 336 336 335 334 332 330 330 329 328 328 328 328 328 327 328 327 328 328 328
301 304 305 306 307 306 306 305 305 305 308 309 307 308 307 307 309 316 320 322 323 321 324 325 332 336 337 336 337 336 334 334 334 333 332 330 329 328 328 328 327 327 327 327 326 326 326 326 326
306 306 306 307 307 305 303 305 303 308 307 306 306 306 305 305 310 318 319 320 320 321 322 324 325 332 335 335 335 334 333 333 331 331 331 329 329 327 327 327 327 326 327 327 326 326 325 325 325
306 302 303 303 304 304 303 300 299 307 305 305 304 303 303 305 308 308 309 310 310 311 312 314 320 325 331 333 334 333 332 331 330 329 329 328 328 328 328 327 326 326 326 326 325 325 324 323 324
301 300 297 302 302 302 302 298 302 302 302 303 302 302 304 305 306 308 309 310 311 312 312 314 315 324 326 329 330 331 330 330 330 329 328 327 327 327 327 326 326 326 325 324 323 323 322 321 320
296 294 293 298 301 301 299 296 301 303 302 302 301 302 304 305 306 306 307 308 310 311 313 315 316 318 324 325 326 327 326 327 328 327 326 326 326 325 325 325 325 325 324 323 322 322 321 320 321
292 292 292 294 298 297 296 296 299 301 300 301 301 302 303 304 304 305 307 307 308 309 311 314 317 320 324 325 325 325 325 325 325 325 325 324 324 323 323 323 323 324 323 323 323 321 322 321 321
295 294 295 297 297 295 295 294 298 301 299 299 298 301 302 303 305 305 306 306 308 308 309 310 315 318 324 324 324 325 324 323 319 318 318 319 321 322 321 321 320 321 321 321 322 321 320 320 322
296 294 292 296 296 296 295 295 299 299 299 299 298 300 302 303 304 304 305 306 306 306 308 308 309 311 318 324 324 325 320 316 314 313 312 312 310 310 310 310 310 311 312 312 313 314 313 315 319
295 293 292 295 296 295 293 293 295 298 298 298 298 301 302 303 303 303 304 305 306 306 306 308 309 309 310 312 314 314 313 313 311 309 309 309 309 308 307 307 307 308 309 307 309 309 309 307 309
294 297 297 295 294 290 294 287 292 296 295 296 298 300 301 303 303 304 304 305 305 305 307 308 308 309 309 311 310 309 308 306 307 307 307 306 307 306 305 305 305 306 306 305 306 306 306 306 304
297 300 298 297 293 289 289 288 292 292 293 295 297 299 301 303 304 303 304 304 305 306 306 307 308 308 308 308 308 307 305 305 305 304 303 304 304 304 302 303 303 303 303 304 304 304 304 304 304
297 294 294 292 290 284 288 289 290 292 293 294 296 298 301 302 303 303 304 304 304 306 306 307 307 305 306 306 305 304 303 302 301 300 299 299 300 300 299 299 299 300 300 300 300 302 302 302 303
297 295 286 284 284 284 287 286 291 294 295 297 298 298 300 302 302 302 302 303 304 305 305 306 305 303 304 303 302 302 300 299 297 297 296 295 295 296 296 296 295 296 296 296 297 297 300 300 300
296 295 287 282 281 284 286 285 291 295 297 297 299 300 301 301 302 302 302 302 303 303 303 303 302 301 301 300 298 297 297 296 295 294 293 293 293 294 294 293 293 293 293 292 293 294 299 297 297
293 291 293 286 285 284 287 290 295 296 296 295 296 298 300 301 301 302 301 302 302 302 301 301 300 299 299 298 295 293 293 292 291 291 291 291 291 291 291 291 291 291 291 291 291 291 293 292 294
295 296 289 287 283 281 285 285 289 292 293 295 295 297 299 300 300 301 300 301 302 300 299 299 298 297 296 294 293 291 290 290 290 290 289 289 289 289 289 289 289 289 289 289 289 290 291 290 291
290 289 289 290 287 283 281 286 292 292 293 294 295 297 299 300 300 300 300 301 300 298 297 296 295 295 294 291 290 289 288 288 288 288 288 288 288 288 287 287 287 287 287 287 287 288 288 288 289
292 291 290 286 283 283 283 286 293 292 292 294 296 297 299 300 300 300 300 299 297 295 294 293 293 292 291 289 288 287 287 287 286 286 286 287 286 287 286 286 286 286 286 286 286 286 287 287 288

GFSSGP_sfc_thetae_018.txt.gz
Theta_e
334 321 324 322 308 308 302 305 313 310 312 315 315 313 313 314 312 309 331 338 337 339 339 350 355 354 352 350 348 346 343 339 336 334 331 333 336 335 332 334 333 333 331 331 332 335 335 335 334
328 319 322 317 302 299 301 309 310 312 312 314 315 314 313 313 318 323 328 337 338 339 339 348 355 353 352 350 348 345 342 339 335 333 333 336 339 335 336 331 330 333 332 329 331 333 334 333 334
322 317 313 309 304 298 302 309 310 311 314 312 314 314 314 314 318 323 332 337 339 339 341 345 354 353 352 350 348 345 342 340 336 334 336 337 341 336 333 332 331 330 331 329 329 331 332 333 333
320 318 313 302 298 304 306 310 307 310 314 315 315 313 316 321 322 329 334 337 338 339 341 347 353 352 352 351 348 345 342 340 337 336 335 338 342 339 337 334 331 329 330 330 330 329 331 332 332
321 314 305 301 301 302 306 308 308 308 311 313 315 314 315 322 329 330 335 337 336 339 341 343 350 352 352 350 346 344 342 339 337 335 337 339 340 342 336 335 331 329 330 330 330 330 331 330 332
314 313 303 301 303 305 308 307 309 310 311 313 313 312 316 325 328 331 336 337 337 339 341 341 347 351 352 349 346 344 342 339 338 336 337 338 339 337 336 335 331 331 332 331 332 332 333 332 331
312 308 303 303 303 305 304 309 308 309 311 311 314 310 316 322 329 333 336 337 339 340 341 341 341 345 349 349 348 346 343 341 339 337 338 336 335 334 334 333 334 334 335 334 334 335 336 336 335
314 309 303 304 303 303 306 307 312 310 310 316 315 311 314 322 326 332 335 336 338 340 340 340 341 343 347 346 346 345 345 343 342 342 340 338 337 335 334 336 335 334 335 335 334 335 337 337 337
313 305 301 303 303 306 307 309 314 315 313 313 315 315 319 323 326 329 329 331 334 336 340 341 341 343 345 344 343 344 342 342 341 339 337 335 335 335 334 333 331 332 333 334 334 334 335 336 335
311 305 304 309 309 307 309 310 312 312 312 312 313 317 318 318 321 322 325 326 330 333 337 340 341 342 344 343 344 344 341 341 339 338 336 334 333 334 333 330 329 331 332 333 334 334 334 334 332
311 305 309 309 310 309 309 311 313 311 310 312 311 314 317 317 318 318 321 326 328 330 334 337 340 342 342 343 343 342 342 340 339 339 337 335 332 332 333 333 332 332 329 331 331 331 331 331 331
306 310 311 311 311 311 310 313 311 313 313 318 318 318 316 315 316 317 319 323 327 328 330 333 338 340 341 342 342 342 341 340 339 338 337 335 333 331 331 330 331 332 332 331 331 331 331 331 331
308 310 311 312 311 311 312 310 312 312 317 319 318 316 314 315 315 317 322 325 327 328 330 331 333 337 339 341 342 341 340 339 339 339 337 336 334 331 331 331 331 331 331 331 331 331 331 331 331
311 311 311 312 311 312 309 311 310 313 317 316 314 314 314 312 313 318 321 324 326 326 327 329 331 333 336 339 340 340 340 339 339 338 337 336 335 334 333 332 332 332 332 332 331 331 331 330 331
312 307 309 310 311 310 311 307 308 314 312 309 311 312 310 312 313 314 316 317 318 319 319 320 321 327 333 336 338 339 340 338 338 337 336 335 334 334 334 333 332 332 332 331 331 331 331 330 330
307 307 301 308 310 311 308 301 310 311 309 308 308 309 311 311 312 314 315 316 317 318 321 323 323 321 328 334 336 338 338 338 338 337 336 334 333 333 333 332 332 332 331 331 330 330 330 329 329
303 298 300 303 310 309 306 303 309 309 308 308 310 309 310 311 312 313 314 316 317 319 322 324 324 325 329 332 333 333 333 334 334 334 333 331 331 330 331 331 331 331 331 330 329 327 327 325 326
296 298 300 301 306 304 304 303 307 309 307 308 309 309 310 310 310 312 313 316 317 320 323 325 328 329 330 331 331 332 332 332 332 331 331 331 329 329 329 326 323 324 323 322 322 321 322 322 322
302 300 299 303 306 302 303 304 305 309 310 308 308 308 309 310 310 312 313 315 316 318 320 324 327 329 330 330 330 328 322 321 319 318 316 315 315 315 315 315 314 314 314 313 313 313 312 313 315
302 299 299 303 303 301 303 303 307 309 308 308 309 308 309 309 310 310 312 313 313 314 316 317 321 327 329 331 328 322 318 316 316 315 314 313 312 311 311 311 311 311 311 311 310 311 309 310 311
301 298 299 300 301 304 301 301 304 304 304 304 305 309 309 309 308 309 311 312 314 314 314 315 316 318 319 319 318 318 317 316 314 312 311 310 310 309 309 309 309 309 309 308 308 308 307 304 307
297 303 302 301 300 296 301 294 301 304 303 303 304 307 308 309 309 310 310 312 313 313 315 315 315 316 316 318 316 315 313 310 310 310 310 309 308 306 304 305 305 305 305 304 304 303 304 303 301
299 305 303 302 299 295 299 295 300 300 300 301 304 307 308 309 309 309 310 311 312 314 314 314 314 313 313 313 313 311 309 309 308 307 306 305 305 303 301 301 301 301 300 301 300 300 300 301 300
305 302 299 297 294 292 298 295 298 299 300 301 304 306 307 308 309 309 310 311 311 313 313 313 311 310 311 310 309 308 307 305 304 303 301 301 300 300 298 298 298 298 298 297 297 298 299 300 299
303 299 290 288 289 290 293 292 299 301 301 303 303 306 307 309 308 308 308 309 310 311 311 310 309 307 307 306 305 304 303 302 300 299 298 297 296 296 296 296 295 295 296 295 296 296 298 299 296
298 299 293 286 288 291 291 291 298 300 302 303 306 307 308 308 309 309 309 310 310 309 309 308 307 305 304 302 301 300 300 298 297 296 295 295 294 294 294 294 294 294 294 294 294 294 295 296 295
296 295 299 291 292 291 294 297 301 301 301 301 303 306 306 308 308 308 309 309 309 308 307 306 305 303 301 300 299 297 296 295 294 294 294 293 293 292 293 293 292 293 293 292 293 292 292 293 293
300 302 292 293 287 285 291 292 297 299 299 300 301 304 307 308 308 308 308 308 308 306 305 304 304 301 299 297 296 295 293 293 293 293 292 292 292 292 291 291 291 291 291 291 291 291 291 291 291
296 293 294 295 293 290 289 293 300 299 300 300 302 305 307 307 307 307 307 308 306 304 303 301 301 299 297 295 294 293 292 291 291 291 291 291 291 290 290 290 290 290 289 290 289 289 290 289 290
302 298 299 292 289 292 292 294 300 300 300 300 303 304 307 307 308 307 307 305 303 302 301 299 299 297 295 293 292 291 291 291 290 290 290 290 289 290 289 289 289 289 289 289 288 288 289 289 289

GFSSGP_sfc_thetae_021.txt.gz
Theta_e
336 330 324 321 307 306 302 305 314 313 314 316 317 315 315 316 313 310 332 337 336 337 341 351 355 355 352 349 347 347 343 340 336 334 331 331 334 334 332 334 334 335 331 331 332 335 336 335 337
331 326 322 315 301 298 300 309 309 314 315 316 316 316 315 314 320 325 330 336 336 337 340 345 355 354 352 350 349 346 344 340 336 333 333 333 336 335 336 331 331 332 333 331 331 332 333 334 335
329 324 314 310 303 296 301 309 311 313 316 316 315 317 316 316 321 325 333 337 336 336 339 351 355 353 353 350 348 345 343 339 335 333 334 337 339 340 333 332 332 331 332 331 331 331 332 332 333
323 320 315 305 303 304 305 310 311 311 316 317 317 314 319 324 325 331 335 336 336 337 340 351 355 353 352 351 349 345 343 341 337 334 334 336 339 341 337 335 332 329 330 330 330 330 330 331 333
324 316 305 304 305 306 306 310 310 309 312 314 316 315 317 325 330 331 335 335 335 337 340 346 353 352 351 351 348 345 342 339 336 334 335 338 339 341 337 335 332 330 330 331 331 331 331 331 330
314 313 303 300 305 309 310 309 310 311 314 314 313 314 318 327 330 332 335 335 336 338 340 342 348 352 351 351 347 345 342 339 337 334 337 338 339 337 337 336 332 331 332 332 332 334 334 334 333
312 308 303 303 304 307 310 309 308 310 312 313 316 312 319 322 328 333 336 335 337 339 339 340 340 345 349 350 348 346 343 340 338 336 336 336 335 334 334 334 334 334 335 336 334 335 337 337 337
316 311 304 305 303 304 311 309 310 312 311 318 317 313 315 322 327 332 335 335 336 339 339 339 340 341 345 344 346 345 345 344 342 341 341 338 338 336 334 335 336 334 334 335 335 334 334 336 337
319 306 302 303 304 306 312 309 314 317 314 315 316 316 320 321 326 328 330 332 333 336 338 340 339 341 343 343 344 343 343 342 341 339 337 336 332 334 334 334 334 331 332 333 334 334 334 336 336
312 305 304 310 310 309 311 311 313 313 313 313 316 318 320 320 320 320 322 326 330 332 335 339 340 340 342 341 343 342 341 340 339 337 336 336 332 332 333 331 331 332 333 333 334 334 334 334 330
313 305 310 311 312 312 310 311 315 312 310 314 313 316 319 320 319 318 320 323 327 331 334 336 339 340 340 341 341 341 340 339 338 337 335 334 331 330 332 332 332 333 329 331 332 332 332 331 330
308 311 311 313 313 312 310 313 311 313 314 318 319 320 320 319 317 318 318 321 325 329 330 334 336 338 340 341 340 340 339 339 337 336 335 334 332 331 330 330 331 331 331 331 332 331 331 331 331
309 310 312 313 313 312 313 310 310 312 317 320 319 320 319 319 318 318 320 324 326 328 330 332 334 336 338 339 340 340 339 338 338 338 337 335 333 331 331 331 331 332 332 331 331 331 331 331 332
311 311 311 312 312 312 310 310 312 313 317 317 317 317 317 317 316 317 321 323 326 328 329 331 332 333 335 337 339 339 339 339 338 338 337 336 335 334 334 333 333 333 333 333 332 331 331 331 331
311 306 309 310 311 310 313 307 308 314 316 313 311 313 314 314 316 317 318 319 320 323 322 322 324 327 332 335 338 339 339 339 338 338 337 336 335 335 334 334 333 334 334 333 332 331 331 330 329
306 308 299 308 310 311 310 301 310 314 312 310 311 311 312 314 314 316 317 318 320 321 321 325 325 322 326 334 337 338 338 338 338 337 336 335 334 334 333 332 332 332 331 331 329 328 327 325 325
303 298 300 303 310 309 308 303 310 313 311 310 311 311 312 313 314 316 316 318 319 322 324 326 326 327 329 334 335 335 334 334 333 334 334 333 333 332 332 331 328 326 327 325 323 320 320 320 320
296 299 300 301 306 308 305 305 309 311 310 311 311 311 312 313 312 315 316 319 321 325 326 329 329 330 331 332 332 332 333 330 327 324 323 321 319 319 320 318 316 316 316 315 315 314 314 313 313
302 301 299 304 307 306 305 304 306 310 310 310 311 311 311 312 313 315 317 318 319 323 326 328 329 330 331 331 330 325 321 319 317 316 315 314 314 314 313 313 312 313 312 311 311 311 311 310 312
300 299 300 304 306 305 303 302 307 309 310 312 312 310 311 311 311 313 314 315 316 317 320 325 327 330 330 326 324 321 318 316 315 315 313 312 310 310 310 310 309 309 309 309 308 307 306 306 307
299 299 299 299 304 304 302 301 304 309 311 312 311 312 312 311 310 311 313 314 316 315 316 318 319 319 320 320 320 318 317 317 313 312 311 310 308 306 305 305 305 305 305 305 304 304 303 301 303
297 303 301 300 300 295 304 293 302 306 305 305 307 309 311 311 311 312 312 313 315 315 317 317 317 317 318 319 317 315 312 308 309 310 309 308 307 304 302 302 301 301 302 300 301 300 300 300 299
299 304 301 302 299 299 298 296 300 306 302 305 307 309 310 311 311 311 312 313 314 316 315 315 314 314 314 314 313 311 309 309 308 308 306 305 304 302 300 299 299 298 298 298 298 298 298 298 299
305 301 301 300 299 291 297 297 298 301 303 305 306 308 309 310 310 311 312 313 313 315 314 313 311 310 311 311 310 309 307 306 305 303 302 301 301 300 298 297 297 297 297 296 296 297 297 297 299
302 297 289 287 288 289 299 297 300 301 303 305 305 307 309 310 310 310 310 311 312 312 312 310 309 307 308 307 306 305 304 303 301 300 299 298 297 296 295 295 295 295 296 295 296 296 297 297 297
299 298 291 285 286 291 296 291 298 304 305 306 308 309 309 309 310 309 310 311 311 311 310 309 307 305 305 304 302 302 302 300 298 297 296 295 295 294 294 294 294 294 294 293 294 294 295 296 295
298 296 300 294 296 294 295 299 301 303 303 304 306 308 307 308 309 309 311 311 311 310 309 308 306 304 302 301 300 299 298 297 296 295 295 294 294 293 293 293 292 292 292 292 293 292 292 292 292
301 304 294 295 288 287 293 295 296 299 301 303 303 306 307 309 309 310 310 310 310 309 308 307 305 302 301 300 299 297 296 295 295 294 293 292 292 292 292 291 291 291 291 291 291 291 291 290 291
297 298 299 298 296 291 289 293 303 301 302 303 304 307 308 308 309 309 310 310 309 307 306 305 302 300 299 298 297 296 294 294 294 293 292 291 291 291 290 290 290 290 290 290 289 289 289 289 289
302 299 300 294 291 295 294 293 302 303 303 303 305 307 309 309 309 309 309 309 306 305 304 303 302 299 298 297 295 294 294 293 292 291 291 291 290 290 290 290 289 289 289 289 288 288 288 288 288

GFSSGP_sfc_thetae_024.txt.gz
Theta_e
337 328 324 318 304 302 297 300 306 310 309 310 312 310 309 311 309 306 326 329 333 338 348 353 356 355 352 351 348 346 343 340 337 334 332 331 333 334 334 335 334 336 333 333 333 335 336 337 338
332 328 320 313 298 293 297 303 306 310 311 312 312 311 310 309 319 322 325 331 334 335 347 348 356 355 352 350 349 347 343 340 337 333 332 333 336 336 335 333 333 333 333 332 331 333 333 333 335
331 325 310 306 301 293 296 306 307 308 312 311 310 311 309 311 321 323 329 332 333 331 341 348 355 355 353 351 349 346 344 340 336 333 333 336 337 339 332 334 333 332 331 330 330 330 331 332 333
322 317 311 300 298 304 300 303 308 307 311 312 312 309 315 321 321 326 331 332 331 331 348 352 354 355 354 353 348 346 344 341 337 334 334 335 337 341 338 335 333 331 331 331 329 330 330 329 329
320 313 301 299 301 305 301 304 307 305 308 310 310 309 312 320 326 328 330 331 330 332 346 350 354 354 353 352 349 346 343 341 337 334 334 339 339 340 339 336 333 331 330 330 331 329 330 332 332
311 311 298 296 300 305 305 308 304 305 309 310 308 307 312 321 325 327 330 327 333 332 340 347 351 352 352 352 348 346 343 340 338 334 335 337 339 339 339 338 334 332 333 333 331 332 335 336 336
309 305 300 300 300 303 308 307 300 305 307 308 310 305 313 317 325 329 328 329 330 334 335 339 345 348 349 350 348 347 344 342 340 337 336 338 338 336 336 336 335 335 334 335 335 334 334 336 337
313 308 301 301 300 301 308 307 306 304 306 313 310 305 306 314 324 329 327 328 329 332 333 334 335 340 340 345 347 346 345 343 342 341 340 337 336 336 338 337 338 335 335 333 334 335 334 334 335
318 303 299 301 302 304 308 306 310 312 309 311 312 310 313 318 324 324 324 326 326 331 332 332 333 336 340 342 343 344 343 342 340 338 336 335 329 328 331 333 335 335 332 332 333 334 335 336 336
310 302 302 307 307 305 309 308 310 309 309 309 310 314 314 315 314 312 317 322 325 326 330 332 332 334 336 339 340 338 337 336 335 333 332 331 328 326 329 329 331 334 334 334 334 335 336 335 329
311 303 308 308 310 311 308 308 311 308 307 310 309 313 315 315 314 313 313 315 322 326 328 331 332 333 335 335 337 338 335 336 335 333 329 329 325 323 325 325 326 325 328 326 329 330 330 327 326
306 310 310 310 312 311 307 310 308 308 309 314 314 315 315 314 314 313 312 311 313 323 326 330 330 332 332 335 334 333 333 332 330 330 329 327 325 324 323 322 323 324 325 324 324 324 324 325 325
308 309 311 311 311 311 311 307 307 308 312 314 315 316 314 314 315 314 312 315 316 319 324 325 329 329 332 332 334 333 332 331 331 331 330 328 326 324 324 324 324 325 325 324 324 325 326 326 326
310 311 310 311 310 310 308 307 308 309 312 312 313 312 312 312 312 310 312 314 318 320 323 326 326 327 329 331 332 332 332 332 331 332 331 331 329 327 328 327 328 329 329 328 328 327 327 327 327
306 303 309 309 309 308 309 304 305 310 312 310 311 309 309 309 311 309 313 313 315 316 316 317 319 320 325 327 332 332 334 334 333 332 332 330 330 328 328 327 327 329 329 329 328 327 327 325 324
303 303 297 306 309 308 307 298 307 311 309 309 309 305 306 310 310 311 312 312 313 314 316 320 321 316 317 326 330 332 334 333 333 332 331 331 330 329 326 328 324 326 328 325 323 317 314 314 315
299 293 296 300 308 306 304 300 307 311 309 306 305 306 306 308 310 311 311 311 312 316 319 320 320 318 321 328 330 331 330 329 328 326 324 319 318 320 321 316 311 311 312 310 309 308 307 306 306
291 294 296 298 305 305 302 301 306 309 306 304 305 305 305 308 308 310 312 313 316 319 322 322 324 325 327 327 326 325 318 315 314 313 311 311 310 310 310 309 307 308 307 306 305 304 305 304 304
296 296 296 300 306 303 301 301 304 307 307 305 305 305 304 307 309 310 311 313 316 321 321 323 323 324 325 324 322 317 313 310 309 309 308 307 307 307 305 306 305 305 304 303 303 302 301 300 301
296 295 296 301 305 303 301 301 304 304 305 306 306 305 304 306 306 308 310 310 312 316 319 321 323 321 320 318 316 314 311 310 309 308 306 304 302 302 302 300 300 300 299 299 298 297 297 297 297
293 294 295 294 301 303 299 296 299 303 305 306 307 308 306 306 305 306 306 308 309 310 312 314 315 315 315 314 313 312 311 309 306 305 304 303 300 299 298 298 297 297 297 296 295 294 294 293 295
289 297 299 297 297 291 298 286 296 301 302 305 304 304 305 306 306 307 307 308 308 309 310 311 312 312 313 313 311 308 305 302 303 303 302 301 299 297 296 296 295 294 295 293 293 294 292 292 292
292 299 298 298 296 296 297 292 295 300 299 302 300 301 305 306 306 306 307 309 310 310 308 308 308 308 308 307 307 305 302 302 301 300 299 297 297 296 295 294 293 292 293 291 291 291 291 292 292
296 296 296 298 296 288 293 293 292 296 299 299 300 302 305 305 306 307 308 310 308 308 307 306 305 305 305 304 303 301 299 299 297 296 295 295 294 294 293 293 291 291 291 291 290 290 290 291 292
294 292 285 286 287 286 295 291 294 296 300 302 301 302 304 305 306 306 306 306 307 306 305 305 303 302 301 300 299 298 297 295 293 293 292 291 291 290 290 290 289 289 290 290 290 290 289 290 289
293 288 287 281 283 285 294 288 293 299 301 303 303 304 305 304 305 305 305 306 306 306 304 302 301 299 298 297 296 295 295 294 292 291 290 289 289 289 289 289 288 288 289 288 288 288 289 288 287
291 286 296 291 290 287 288 291 294 299 298 299 302 303 303 304 305 305 306 306 305 304 303 301 299 298 297 296 294 292 291 291 290 289 289 289 288 290 288 287 287 287 287 287 287 287 286 286 286
297 299 292 291 283 283 287 289 289 294 295 298 301 301 303 304 305 305 306 305 304 304 302 300 299 296 295 294 292 291 289 289 289 288 287 287 287 288 287 286 286 286 286 286 285 285 286 285 285
295 295 295 294 293 286 283 287 296 296 298 297 299 303 303 304 304 305 305 305 303 302 301 298 296 295 294 293 291 289 289 289 288 287 286 286 286 286 286 286 286 285 285 285 284 284 285 284 284
300 297 296 288 288 290 287 286 298 297 298 300 299 304 304 305 305 305 305 303 301 300 299 297 295 294 293 291 290 289 289 288 287 286 286 286 285 286 285 285 285 285 285 285 284 284 284 283 283

GFSSGP_sfc_thetae_027.txt.gz
Theta_e
339 328 322 312 298 297 294 298 298 306 307 307 308 306 305 307 307 305 322 335 343 346 351 353 356 355 352 351 348 345 343 340 338 335 334 334 336 336 337 335 335 333 333 332 333 334 335 337 338
335 329 314 306 294 288 292 299 300 303 307 309 310 308 306 306 317 321 322 330 344 346 350 351 355 355 353 351 348 346 343 340 338 335 334 333 336 337 335 334 334 333 332 331 331 331 332 332 333
330 326 306 300 296 291 291 299 301 306 308 309 308 310 308 310 319 321 325 329 345 346 349 351 355 355 355 352 349 346 344 340 338 334 335 335 337 340 333 335 334 332 331 330 329 329 329 331 331
318 311 306 296 294 299 299 298 302 305 308 311 308 306 314 317 318 324 328 329 330 338 344 352 355 355 355 353 349 346 344 341 338 336 335 334 337 340 338 336 333 333 332 330 329 329 329 328 328
313 306 296 294 296 300 302 301 304 302 305 307 308 306 311 319 323 326 327 329 337 343 347 351 355 355 355 352 348 346 344 342 337 336 336 338 339 341 339 337 334 333 331 331 330 330 330 332 333
307 304 293 291 295 302 303 304 302 301 302 306 306 305 309 319 322 324 327 326 342 343 348 350 351 353 353 351 349 346 344 341 338 336 339 339 340 342 340 337 335 333 333 333 333 332 333 336 337
304 299 294 294 296 300 304 304 300 300 302 304 307 304 308 315 323 327 325 327 332 341 344 346 347 349 350 350 348 348 344 342 341 337 337 339 338 338 337 339 336 335 335 335 335 335 334 334 336
308 302 297 295 297 298 305 304 303 302 302 310 308 304 305 314 324 327 326 327 329 334 338 342 343 345 343 345 347 346 345 343 342 340 338 337 335 336 339 338 338 337 336 335 333 333 334 334 334
314 299 296 298 299 301 305 304 308 310 306 308 308 307 312 319 323 323 322 323 326 330 332 335 338 340 339 344 343 344 343 341 340 338 336 333 329 328 331 333 334 338 335 333 333 334 335 337 336
307 299 301 305 304 302 306 305 307 307 307 306 307 311 311 315 316 319 319 320 322 325 328 330 333 334 336 344 340 339 339 337 335 333 330 330 327 325 328 329 333 335 335 336 335 335 337 335 328
308 303 306 307 309 308 306 305 308 304 303 308 307 310 312 313 312 312 310 319 321 324 327 329 329 332 335 336 338 337 335 333 333 331 330 329 329 323 323 323 325 324 326 325 327 326 328 326 325
304 309 310 310 311 309 305 308 305 305 305 310 311 311 311 312 312 312 312 309 314 322 326 329 330 329 331 335 336 335 333 332 330 331 329 325 322 320 320 320 321 322 323 322 323 322 322 323 325
303 306 310 311 311 310 309 305 305 305 309 311 312 312 311 311 312 313 310 312 316 321 323 327 328 329 329 331 332 330 332 330 328 327 327 325 323 322 322 322 322 322 323 323 323 325 326 327 325
304 306 307 310 310 309 306 305 305 307 309 309 309 310 310 310 310 309 309 310 313 318 321 325 326 326 329 329 330 330 330 332 331 331 331 328 327 325 325 325 326 328 328 328 327 326 326 325 324
304 300 302 303 308 307 309 302 302 307 309 307 309 308 310 306 308 309 311 312 312 312 313 316 318 321 324 328 329 330 333 333 332 331 331 331 328 326 326 327 325 326 327 322 318 313 312 310 310
298 298 293 301 305 307 306 298 305 307 306 306 307 305 304 308 309 309 311 311 312 312 314 317 319 315 317 324 328 331 333 331 329 328 324 320 320 326 321 313 311 313 312 308 306 305 305 304 304
294 289 292 296 305 305 304 299 305 307 306 305 303 303 303 305 307 308 311 310 311 312 316 317 318 315 319 326 326 323 321 317 315 314 313 311 310 311 310 309 306 306 306 304 303 303 302 301 301
287 288 292 293 299 302 301 301 303 305 306 306 304 303 301 305 306 308 311 313 316 318 318 319 321 322 324 320 316 313 312 311 310 308 306 306 306 305 305 304 302 303 302 301 299 299 298 298 298
292 290 290 296 301 300 299 300 303 304 304 301 302 300 301 303 306 309 311 314 317 318 319 320 322 322 324 317 313 310 307 306 305 305 303 302 302 301 300 300 299 299 298 296 296 296 295 295 295
292 290 290 296 301 300 299 299 303 305 304 306 303 303 301 303 305 307 309 311 314 315 316 317 316 316 317 315 312 309 307 305 304 303 300 298 298 298 297 296 296 295 295 293 292 292 292 293 293
291 289 289 291 297 299 297 296 299 302 305 304 305 305 305 304 305 304 304 307 309 309 311 312 312 312 312 311 310 309 307 304 302 301 299 297 296 295 295 294 293 293 293 291 290 290 290 289 292
287 294 293 292 293 288 297 288 294 299 300 300 300 300 304 304 305 305 305 305 306 306 308 310 311 311 310 310 308 305 302 300 300 300 298 296 294 293 294 293 292 291 292 290 290 291 289 290 289
289 295 293 293 292 293 293 291 292 296 296 300 303 299 303 304 305 305 306 307 307 305 304 304 305 305 305 304 304 303 300 299 298 296 294 294 292 292 292 291 290 290 290 289 288 288 288 288 289
295 292 292 292 291 285 291 292 289 293 298 299 300 301 302 303 304 306 307 307 305 303 302 302 303 301 301 301 300 299 296 295 293 292 291 291 291 291 290 290 288 288 288 288 288 288 287 287 288
292 286 280 279 281 282 292 291 293 296 297 300 298 301 302 304 305 305 305 304 303 301 301 301 300 298 297 297 296 294 292 291 290 290 289 288 288 288 287 287 287 287 287 287 287 287 287 287 286
288 287 279 275 279 283 293 286 291 303 298 300 302 302 302 303 305 305 305 304 302 302 300 298 297 295 295 294 293 292 291 290 289 289 288 287 287 287 286 286 286 286 286 286 286 286 286 286 284
287 284 290 286 286 286 289 290 292 295 296 300 300 301 301 302 303 304 305 304 302 299 298 297 295 294 293 292 290 289 289 288 287 287 287 286 286 288 286 285 285 285 285 285 285 285 284 284 283
292 294 283 285 279 281 284 285 286 291 293 298 299 299 301 302 303 304 304 303 301 300 297 296 295 293 292 290 289 288 287 287 287 286 285 285 285 285 285 285 284 284 284 284 283 283 284 283 283
289 289 289 290 287 282 280 285 292 293 296 297 299 300 301 302 302 303 304 303 301 299 297 294 293 292 290 289 288 287 287 287 286 285 285 284 284 284 284 284 284 284 284 284 283 283 283 282 282
296 292 292 283 285 288 285 284 294 295 296 299 299 301 302 303 303 303 303 301 300 297 295 293 292 291 289 289 288 287 287 285 284 284 284 285 284 284 284 284 284 284 285 284 283 282 282 281 281

GFSSGP_sfc_thetae_030.txt.gz
Theta_e
341 330 320 310 298 296 292 296 296 300 304 306 307 306 304 305 305 301 321 335 343 348 351 352 355 355 351 350 347 345 342 340 338 336 334 335 337 335 336 334 333 332 333 331 333 335 335 337 337
338 329 312 303 294 288 291 297 300 301 305 307 309 307 304 308 316 319 322 340 346 349 350 351 355 355 352 350 347 345 343 341 338 335 335 336 335 337 335 334 333 333 331 331 330 330 332 332 333
326 324 305 298 293 290 291 296 301 305 307 308 307 308 308 310 318 320 324 341 344 347 349 350 355 355 354 350 347 345 343 341 338 336 335 336 339 340 336 336 334 332 330 330 329 329 330 331 332
317 310 303 295 293 297 297 300 302 304 306 308 307 307 312 316 318 324 327 342 343 344 348 351 354 355 355 352 347 346 343 341 338 335 336 336 338 340 336 337 334 333 331 330 329 329 329 328 328
311 303 295 293 294 297 298 302 301 302 303 305 305 304 309 318 322 325 325 339 338 340 345 350 355 355 354 352 348 346 344 341 337 335 336 338 339 341 339 338 335 334 332 331 330 330 330 331 333
306 302 292 290 293 299 301 304 300 300 302 305 304 304 308 318 322 323 325 329 339 340 345 349 352 354 354 351 348 347 345 342 337 337 339 340 340 342 340 337 335 334 333 332 332 332 332 334 336
305 298 293 292 294 297 302 306 296 300 302 304 305 302 308 314 322 325 323 335 341 344 346 347 349 350 350 349 348 348 345 342 340 339 340 339 339 342 341 339 337 335 335 335 335 335 335 334 334
307 301 295 295 296 297 303 303 301 301 301 308 308 304 306 312 322 324 323 330 336 341 344 344 344 346 346 346 347 346 345 343 342 340 339 338 336 337 339 340 339 336 336 336 335 333 334 334 334
312 298 294 297 297 300 304 303 306 306 304 307 307 306 309 315 322 321 319 322 328 336 338 343 343 343 343 343 343 345 344 342 340 338 335 333 328 328 330 333 335 337 337 336 334 334 335 337 336
306 299 300 303 303 302 304 304 304 305 305 304 305 309 313 317 317 320 319 319 321 326 331 337 340 340 340 345 340 339 339 336 334 332 330 329 327 325 326 328 334 336 338 337 335 336 338 336 328
307 302 305 306 308 307 305 304 306 303 302 306 306 307 310 311 314 318 319 319 320 325 328 332 334 336 335 339 338 338 336 333 332 330 329 327 328 325 324 323 325 325 326 324 326 325 324 324 324
300 307 309 310 310 309 305 306 304 304 304 308 309 309 308 309 310 311 310 310 315 320 326 329 331 331 332 336 338 337 334 331 330 330 329 326 325 318 318 319 320 321 322 322 321 321 321 322 324
299 303 307 309 310 310 310 306 304 305 308 309 310 310 309 309 309 311 311 310 309 319 324 327 329 330 330 334 335 333 332 331 330 329 328 325 321 319 321 321 321 321 322 323 324 325 325 323 321
300 301 303 306 307 308 306 306 304 306 308 307 309 308 308 309 309 307 309 311 312 316 321 325 327 328 330 333 331 331 331 331 330 329 328 327 326 324 324 323 323 325 326 324 317 314 313 311 310
301 297 300 301 301 303 308 303 304 306 307 306 306 307 307 309 308 308 308 310 312 313 317 323 324 326 326 329 330 328 332 331 330 330 330 329 328 325 319 312 312 314 312 311 309 308 305 303 304
296 294 289 298 301 303 306 297 305 307 304 304 305 305 304 306 308 308 310 311 311 312 314 315 317 320 323 326 327 329 330 327 321 315 314 315 314 314 311 309 308 309 307 304 302 301 300 299 299
291 286 288 294 302 302 302 298 305 307 303 303 303 303 304 303 305 306 309 310 311 311 315 316 315 313 323 323 322 318 315 314 312 311 310 309 309 308 306 304 302 302 300 298 299 298 297 296 295
287 285 288 290 297 299 298 299 303 305 303 303 305 306 302 302 305 306 309 311 313 314 316 316 314 321 315 313 312 310 310 308 308 306 305 303 302 302 301 298 297 299 297 295 295 294 294 294 293
291 287 287 290 297 296 296 297 300 304 303 300 302 301 300 301 304 306 310 313 316 316 318 319 320 317 314 312 308 305 302 304 303 301 300 299 298 297 296 296 295 296 293 292 292 292 292 292 292
291 288 287 291 295 296 295 295 300 303 304 304 305 302 300 301 303 306 310 312 315 315 317 317 318 316 313 311 307 305 302 301 301 298 296 295 295 295 295 293 293 292 292 290 290 290 289 290 291
288 288 288 287 292 294 292 291 296 301 304 305 306 306 301 303 303 304 307 309 310 311 312 312 311 310 310 308 306 304 303 301 298 296 294 293 293 294 293 292 291 291 290 289 288 288 288 287 289
285 292 292 290 289 282 294 285 292 297 300 302 304 301 301 304 304 304 306 306 307 307 308 309 309 309 308 308 305 303 300 298 298 296 293 292 292 291 292 291 290 289 289 287 288 290 287 287 287
288 293 290 291 288 287 287 285 290 297 296 300 302 301 302 304 304 304 306 306 305 305 305 305 306 307 306 305 303 302 298 298 296 294 291 290 290 290 290 289 288 288 288 287 286 287 285 286 287
295 291 291 290 288 281 285 285 286 293 296 298 302 299 300 303 303 304 305 305 302 301 301 302 303 302 302 302 299 298 296 293 292 290 289 289 289 289 288 288 287 286 286 286 286 285 285 285 285
291 286 279 278 278 276 286 285 287 294 299 300 301 299 301 303 303 303 303 302 301 300 299 300 300 297 297 296 295 293 291 290 289 288 288 287 287 286 286 286 285 285 285 285 285 285 285 285 283
287 286 280 271 271 277 290 284 289 298 301 303 300 301 301 302 304 304 303 301 300 299 297 297 296 294 294 293 291 290 289 289 288 287 287 286 286 285 285 284 284 284 285 284 284 284 284 284 283
285 283 288 282 284 280 284 288 294 298 295 296 298 299 300 302 303 302 302 301 299 297 296 295 294 292 292 290 289 288 288 287 286 286 286 285 285 287 284 284 283 283 284 284 283 283 282 282 282
289 291 281 283 270 274 282 284 286 291 292 295 296 298 300 302 302 302 302 300 298 297 294 293 293 291 289 288 288 287 286 286 285 285 284 284 284 284 284 283 283 283 283 283 282 282 283 282 281
286 284 286 284 283 278 280 285 294 295 295 295 297 299 300 301 302 302 301 300 297 295 294 292 291 289 288 287 286 286 285 285 284 284 283 283 283 283 283 283 283 283 283 283 282 282 282 281 281
289 287 287 280 278 284 283 283 294 294 297 299 298 300 301 302 302 302 301 298 296 294 292 291 290 288 287 287 286 285 285 284 283 283 283 284 283 283 283 283 283 283 283 283 282 281 281 280 280

GFSSGP_sfc_thetae_033.txt.gz
Theta_e
340 334 315 308 298 294 290 295 295 299 301 303 305 305 306 305 304 300 321 334 341 345 351 352 356 355 351 348 346 344 341 339 337 336 334 334 334 333 333 333 333 331 332 330 333 335 336 339 337
332 325 310 301 293 287 289 295 299 301 303 305 305 304 305 307 315 317 324 338 345 349 349 350 355 355 352 348 346 344 342 340 337 335 335 336 335 335 334 333 333 332 331 330 330 331 333 333 333
324 318 303 297 291 289 289 296 298 303 306 307 304 308 306 310 318 319 322 341 347 347 348 349 355 355 352 349 346 345 343 341 338 335 335 336 335 337 335 335 333 331 330 329 329 329 329 331 332
315 309 302 294 292 296 295 297 300 302 305 307 306 305 311 315 316 321 336 342 343 344 345 350 355 355 354 352 347 345 343 341 338 335 335 336 338 341 337 337 334 333 331 330 329 328 328 328 328
309 303 294 291 293 295 297 301 300 300 302 302 304 304 309 317 321 324 338 341 340 342 344 348 355 355 355 350 347 346 344 341 338 335 337 337 338 341 337 338 335 334 332 331 330 330 330 331 333
305 300 291 290 292 296 298 302 300 298 300 304 303 306 309 317 320 322 335 337 341 342 345 348 351 353 353 351 349 347 344 342 338 336 337 339 340 341 340 338 336 335 333 332 332 332 332 333 335
303 296 292 290 292 295 299 304 299 299 298 303 306 304 307 313 321 323 325 334 338 340 344 346 348 350 350 350 349 348 346 343 339 338 340 340 341 343 341 338 337 336 335 335 335 334 334 335 334
306 300 292 293 294 295 302 302 300 299 300 306 306 304 304 312 320 322 324 334 336 340 343 344 346 347 347 345 347 346 346 344 341 341 341 338 336 339 341 341 340 337 336 336 335 334 333 334 335
308 297 294 296 295 298 302 301 305 305 301 305 304 306 308 314 322 320 321 327 331 338 339 342 344 344 344 343 343 345 344 342 340 337 336 334 328 327 329 333 335 338 337 337 336 335 335 337 336
306 299 298 301 300 299 303 302 304 304 304 303 303 307 313 317 320 319 318 322 326 331 334 341 341 341 341 345 340 339 339 336 334 332 329 328 325 324 326 327 333 336 337 338 336 336 338 335 327
304 301 304 305 306 306 303 303 305 302 301 305 305 306 309 314 315 319 319 319 323 329 330 337 338 340 339 340 337 336 335 332 331 329 328 327 327 324 323 322 322 324 326 323 324 323 322 321 322
297 303 307 308 310 308 304 306 303 302 303 306 307 308 307 308 312 314 317 319 318 320 327 332 335 335 335 337 338 337 335 331 330 329 329 325 324 321 319 319 319 320 320 320 320 320 323 324 324
297 300 304 307 308 308 309 306 304 305 307 308 308 308 307 307 308 309 310 311 311 314 322 328 331 331 332 333 335 333 333 332 330 329 329 326 324 318 317 318 320 321 321 324 322 319 315 312 311
298 299 300 302 303 304 304 304 305 304 307 306 307 307 308 307 307 307 308 309 308 309 317 326 329 331 330 333 332 332 331 331 330 331 330 327 325 325 324 318 317 312 314 312 311 309 308 305 302
300 295 298 299 300 300 303 299 301 307 307 304 305 305 307 308 307 307 308 308 310 312 315 322 327 328 329 332 332 330 332 332 329 329 329 328 327 317 311 311 310 309 309 308 306 304 300 298 298
294 292 288 296 299 300 302 293 302 307 308 304 304 303 304 306 307 307 307 308 310 311 313 320 327 326 327 329 327 329 330 325 317 316 315 314 313 311 309 308 306 304 302 300 298 296 295 295 294
289 285 285 291 299 299 299 294 301 307 304 302 302 302 304 304 305 305 307 308 309 310 312 312 317 321 324 325 320 317 315 313 311 310 309 309 307 306 303 301 300 297 295 294 295 294 293 292 292
282 287 287 287 294 296 295 295 300 303 303 302 302 302 303 303 304 305 307 307 308 310 313 313 316 318 317 313 311 309 309 307 307 306 304 303 302 299 298 296 295 295 293 292 291 291 291 292 290
289 286 285 289 294 292 291 293 297 300 301 302 301 302 302 302 302 305 306 310 312 313 314 312 315 311 313 311 308 305 304 303 301 301 300 298 296 296 294 294 293 292 291 289 290 290 289 289 290
289 287 286 290 293 291 290 290 294 296 297 301 303 303 303 300 302 304 307 311 313 314 315 316 313 311 310 309 305 303 301 300 298 296 296 294 293 293 293 292 291 290 289 288 288 288 287 288 289
287 285 286 286 290 292 289 287 289 295 299 302 304 305 306 303 301 303 306 310 311 312 313 314 311 309 307 305 303 300 300 299 297 295 292 291 292 292 291 290 290 289 288 287 287 287 286 285 287
284 290 289 288 286 279 288 279 287 291 295 299 302 304 304 301 302 304 306 308 310 311 310 310 308 306 305 305 303 302 299 296 295 292 290 290 290 290 290 290 289 288 287 286 287 287 285 286 285
287 292 290 290 286 283 284 280 283 292 291 296 298 303 301 301 303 304 308 309 308 307 307 306 306 305 304 303 302 300 297 296 293 290 288 288 288 289 289 288 287 286 286 285 285 284 284 285 285
293 290 290 289 286 278 283 282 281 285 291 295 299 301 301 302 303 305 306 305 303 302 303 304 305 302 302 301 299 299 295 293 291 289 288 287 287 287 287 287 285 285 285 284 284 284 283 283 283
290 286 279 277 278 276 283 282 284 288 293 297 298 298 300 300 302 303 304 303 301 301 301 302 303 298 298 297 296 294 292 291 289 288 287 286 286 285 285 284 284 284 284 284 284 284 283 283 282
286 285 279 273 275 276 285 279 284 292 295 296 298 299 298 300 302 304 304 303 301 300 300 299 298 295 294 293 290 289 289 289 288 287 286 285 285 285 284 283 283 283 284 283 283 283 283 283 281
285 283 287 281 283 279 281 284 288 294 295 295 296 297 297 300 302 303 302 301 299 297 297 297 295 292 291 290 289 287 287 287 286 285 285 284 284 286 283 283 283 283 283 283 282 282 281 281 281
288 289 281 282 273 273 277 280 283 287 290 293 293 295 297 300 302 301 300 298 297 295 293 293 293 291 289 288 287 286 285 285 284 284 283 283 283 283 283 283 282 282 282 282 282 281 282 281 280
286 284 285 283 280 274 272 280 289 291 292 291 294 296 299 300 300 299 298 297 295 293 292 290 289 288 287 287 286 285 284 284 283 283 283 283 283 282 282 282 282 282 282 282 281 281 281 280 280
290 286 286 279 275 279 280 280 292 291 292 295 297 298 300 300 300 299 297 295 294 292 290 289 288 287 286 286 285 284 284 283 283 282 283 283 282 282 282 282 282 282 282 281 280 280 280 280 279

GFSSGP_sfc_thetae_036.txt.gz
Theta_e
336 327 311 306 297 293 288 292 297 298 300 303 303 303 304 304 306 301 318 332 337 341 349 352 356 354 351 349 346 344 341 339 337 336 336 336 336 334 331 332 332 332 331 331 334 336 339 340 338
329 322 308 300 292 287 289 293 296 299 303 304 304 304 302 306 314 318 323 333 342 346 349 349 355 355 351 348 346 344 341 339 337 335 334 334 334 334 333 332 332 332 331 330 330 332 334 334 334
322 313 302 296 290 288 289 293 296 301 303 304 304 307 306 308 316 319 323 338 344 347 348 349 355 355 352 348 346 344 342 340 337 335 336 336 335 336 335 333 332 331 330 329 329 329 330 331 332
314 308 301 293 291 294 293 295 298 301 303 304 305 305 310 314 315 319 335 344 345 344 344 350 355 355 353 350 347 345 343 341 338 335 336 336 337 339 336 336 334 332 330 329 328 328 328 327 328
308 302 293 290 292 294 296 299 299 299 299 300 302 303 308 316 320 330 337 342 341 341 343 348 355 355 353 349 347 345 344 342 338 336 335 337 338 342 338 337 335 334 331 330 329 329 329 330 332
304 300 290 289 291 295 297 300 299 297 298 301 301 305 308 315 320 329 337 337 341 341 343 347 351 353 354 351 348 347 344 342 339 335 337 338 339 341 340 339 336 335 333 331 331 331 332 332 334
302 296 291 289 290 293 297 302 298 299 297 299 302 303 308 312 321 325 335 335 338 341 342 344 347 349 351 350 349 348 346 343 340 337 339 341 342 341 341 339 337 336 334 334 334 334 334 334 334
304 299 291 292 293 293 300 302 301 297 298 304 305 303 304 310 320 321 326 333 333 337 341 341 344 346 345 345 347 347 346 345 342 341 341 338 336 340 342 340 339 337 336 336 336 335 334 334 334
306 296 293 294 294 296 300 299 304 304 300 303 303 305 306 314 320 321 324 330 333 336 338 340 344 343 343 342 343 345 344 342 340 338 337 334 328 326 327 333 336 337 336 336 337 336 336 338 336
304 297 296 300 299 298 301 301 303 303 302 302 303 306 312 317 317 317 320 324 328 332 335 342 343 343 341 344 340 338 339 336 333 331 327 327 325 324 326 326 330 334 336 336 335 335 333 329 324
302 299 302 304 306 306 303 302 304 301 300 304 302 305 309 315 317 317 317 321 326 326 333 339 340 341 342 343 337 336 335 333 331 329 327 326 325 323 322 321 321 321 325 322 322 321 321 320 320
295 302 305 307 309 307 304 306 304 302 303 306 305 307 306 306 313 317 317 318 318 321 329 334 338 339 340 338 338 336 334 331 329 328 327 324 323 321 319 318 318 318 319 319 319 320 322 315 311
295 299 302 303 303 305 307 304 305 305 307 310 310 308 307 306 307 309 312 311 313 316 320 329 335 336 338 337 337 335 334 333 330 329 328 327 324 321 317 318 319 320 320 320 313 311 310 307 305
297 298 298 300 300 301 301 302 302 305 308 306 306 306 307 306 307 305 307 308 307 308 310 323 331 334 334 336 335 335 333 332 331 332 331 329 326 324 324 317 311 310 311 310 308 306 303 298 297
299 294 296 297 299 298 301 297 298 305 307 306 307 306 306 306 306 306 308 307 307 308 309 317 327 331 331 333 333 332 331 333 331 331 329 327 327 317 312 311 308 305 305 304 300 297 296 293 294
294 293 286 294 297 298 299 291 299 303 304 304 305 304 305 307 307 306 307 307 307 307 311 316 326 328 329 331 330 329 330 328 322 321 322 319 313 311 309 306 303 299 297 296 294 293 293 291 291
292 283 285 290 296 297 296 292 299 302 301 301 302 302 304 304 305 306 306 306 307 308 311 314 322 324 326 326 326 320 317 315 313 312 310 308 307 306 304 300 296 294 292 292 292 291 292 289 290
281 282 285 286 292 293 292 292 297 300 300 300 301 301 301 303 305 306 305 306 307 308 311 310 317 321 322 315 311 309 308 309 308 306 304 303 301 300 298 294 292 292 291 290 290 289 289 290 288
287 284 284 288 293 290 289 290 293 296 297 297 300 301 301 302 306 304 304 306 306 308 310 313 314 314 314 311 309 307 303 301 301 300 300 299 297 295 293 292 291 290 289 288 288 288 287 288 289
287 286 286 289 292 290 289 289 293 294 296 297 298 301 302 303 301 303 304 307 310 310 311 313 311 310 312 312 305 303 305 300 298 297 295 295 295 293 292 290 289 289 288 287 286 286 286 286 287
286 285 285 284 288 290 288 285 287 292 294 296 298 299 303 304 303 301 303 307 310 311 311 312 309 308 306 304 301 298 298 297 295 294 294 292 291 291 290 289 288 288 287 286 285 285 285 284 285
283 289 288 286 284 279 286 278 284 288 290 291 294 298 301 302 302 302 303 307 309 310 311 310 308 305 303 304 302 301 299 296 295 293 292 290 289 289 289 288 287 287 286 285 286 285 284 284 283
285 291 288 288 284 282 283 279 281 286 287 290 293 296 300 303 303 301 304 308 309 309 308 306 304 303 302 302 302 299 296 294 292 291 289 287 287 287 288 287 286 286 285 284 284 283 283 283 283
292 289 288 288 286 279 282 280 282 284 286 289 293 296 300 302 301 302 305 308 306 305 305 304 303 301 300 301 300 299 294 292 289 287 286 286 286 286 286 286 285 284 284 283 283 283 282 282 282
288 285 277 275 276 275 283 280 283 286 288 290 292 295 298 300 299 301 303 305 303 304 304 304 303 299 301 300 299 296 293 291 289 287 286 285 285 284 283 284 283 283 283 283 283 283 282 282 281
285 284 275 268 272 275 283 278 282 290 293 294 295 295 297 297 298 302 305 306 305 304 303 303 301 297 298 296 292 291 291 290 288 287 286 285 284 283 283 283 283 283 283 282 282 282 282 282 280
285 282 287 280 279 276 281 282 288 290 290 292 293 293 292 296 299 302 304 305 303 302 301 300 297 294 293 291 290 288 288 287 285 284 284 284 283 284 283 283 282 282 282 282 282 281 281 280 280
288 290 281 281 273 271 275 277 280 286 288 290 292 292 295 297 299 301 302 300 300 299 297 296 295 292 289 288 288 286 285 285 284 284 283 282 282 283 282 282 282 282 282 281 281 280 281 280 280
286 284 285 284 281 271 270 276 285 288 290 293 292 291 294 297 300 300 299 297 295 294 294 291 290 289 287 286 285 285 283 283 283 282 282 282 282 282 282 282 282 281 281 281 280 279 280 280 280
289 286 286 279 275 278 275 278 291 291 293 295 294 294 296 298 298 297 295 294 293 291 291 289 288 287 286 285 284 283 283 282 282 282 282 282 281 282 282 282 281 281 281 280 279 279 279 279 279

GFSSGP_sfc_thetae_039.txt.gz
Theta_e
335 328 315 314 304 300 295 296 302 303 305 309 309 309 309 310 310 308 329 338 339 343 351 353 356 355 351 349 347 344 342 340 337 337 338 339 340 336 331 332 333 333 332 333 337 339 342 341 340
330 323 314 307 299 294 295 298 301 304 307 308 308 310 309 312 320 323 330 336 342 347 352 351 355 354 351 348 346 343 341 339 337 335 334 334 333 333 333 333 333 333 331 331 331 333 335 336 336
323 314 309 303 297 294 295 298 303 305 306 306 309 312 312 314 321 324 331 339 345 349 352 351 354 354 352 348 346 344 341 339 337 335 335 335 336 335 334 333 333 332 330 329 330 330 331 333 332
318 313 306 299 295 298 298 301 303 304 308 308 310 311 316 321 324 326 336 345 346 349 352 353 355 355 352 350 346 344 342 340 337 336 337 337 336 337 337 335 334 333 331 330 329 328 328 329 330
312 308 299 296 296 299 301 303 304 304 304 305 307 308 313 321 326 334 341 345 344 345 350 352 355 355 352 349 347 345 344 342 338 336 336 336 337 340 338 337 335 334 331 331 330 329 330 330 333
308 305 296 294 296 299 302 304 305 303 304 304 307 309 314 321 326 337 343 344 345 346 349 351 352 353 352 350 348 347 344 343 339 336 336 337 338 341 340 339 337 335 333 331 332 333 333 334 334
306 301 296 295 294 297 301 306 304 304 304 305 310 308 313 318 327 339 341 343 345 347 348 349 350 351 350 350 349 348 346 344 341 337 339 340 340 341 344 340 337 336 334 333 335 335 334 334 334
307 304 296 296 296 297 304 305 307 304 303 309 311 308 310 317 326 336 338 339 342 345 347 348 350 350 350 349 347 347 346 345 342 340 340 338 335 339 342 339 339 336 335 335 336 336 335 335 335
309 301 297 297 296 300 305 303 308 309 306 308 310 311 313 320 324 329 332 335 337 339 344 346 348 350 350 348 346 346 344 343 340 338 337 335 335 333 334 333 337 337 336 336 337 336 337 337 334
308 301 299 303 302 302 304 304 305 307 306 307 309 312 317 321 322 324 325 329 334 336 340 344 345 346 348 347 347 346 344 344 340 336 338 337 335 333 331 329 329 331 334 333 333 332 330 329 331
306 300 304 305 307 309 307 306 308 305 305 308 308 310 312 319 322 321 324 326 330 335 339 342 343 343 345 345 345 344 343 341 339 336 334 333 332 331 331 331 331 331 328 332 329 330 330 328 323
299 303 306 307 309 308 306 309 308 306 308 310 310 311 311 312 313 321 322 323 327 331 336 340 342 341 342 344 343 343 341 340 337 336 334 333 332 331 331 328 327 328 329 329 330 324 314 312 308
299 301 303 305 303 303 307 306 307 307 312 312 313 314 313 313 312 313 317 322 323 323 328 337 342 340 340 341 340 341 341 339 338 336 334 333 331 329 326 327 328 327 324 318 314 311 308 304 304
299 300 300 302 302 302 302 303 304 306 311 311 311 312 312 311 313 313 312 313 314 316 318 326 337 341 340 338 339 340 341 340 338 335 333 331 330 325 327 316 313 312 311 309 309 305 304 301 301
300 296 298 299 300 300 302 297 298 305 308 308 309 310 312 313 314 312 314 314 315 315 315 316 328 338 340 340 341 341 340 339 336 334 334 332 328 326 316 312 309 307 308 303 303 303 301 300 299
296 295 289 296 298 300 300 290 300 304 304 304 306 308 310 312 314 315 313 313 315 313 313 315 323 333 337 339 339 338 338 338 335 333 330 327 319 315 311 307 304 301 302 302 300 299 300 297 297
290 284 287 291 298 298 297 293 300 304 302 302 303 306 307 309 312 314 313 312 313 313 313 316 323 330 333 336 336 336 335 331 325 319 316 314 312 311 305 301 300 299 298 299 298 297 298 296 296
283 284 287 288 293 294 292 292 296 300 300 301 302 303 305 306 308 311 312 312 311 313 315 317 322 328 331 332 325 321 318 316 316 312 308 306 304 303 301 298 298 297 297 296 296 295 296 294 294
288 287 286 290 293 291 290 291 294 297 298 297 299 301 303 305 309 311 311 311 311 312 315 316 323 327 324 320 318 315 312 312 308 304 302 301 300 299 297 297 296 296 295 293 293 295 293 293 294
288 286 285 289 292 290 289 288 292 294 295 297 298 299 301 304 306 309 309 310 310 312 314 317 321 321 321 321 316 313 311 307 307 300 299 300 298 296 296 295 294 294 293 293 293 293 293 292 293
287 285 285 285 289 290 288 286 289 293 294 296 298 299 301 302 304 307 307 308 312 313 314 316 316 317 316 309 307 304 303 302 300 296 296 297 295 295 294 294 293 293 294 292 291 292 292 290 292
283 289 288 287 285 280 288 278 287 290 291 293 294 296 298 300 302 306 307 308 311 314 316 316 314 312 309 309 308 307 307 302 300 296 294 293 293 293 293 293 293 292 292 291 291 291 291 291 289
286 290 288 288 285 283 284 281 286 288 288 290 293 295 296 300 302 304 307 309 312 314 315 314 311 309 307 309 309 309 304 300 295 292 291 289 291 292 292 292 292 291 291 290 290 289 289 289 289
292 288 289 288 286 278 283 282 283 287 289 291 293 295 298 300 302 305 308 309 311 314 312 310 308 306 306 306 305 303 297 294 291 290 289 289 290 290 290 290 290 290 290 290 289 289 289 288 288
289 286 277 275 276 275 283 281 284 289 291 292 292 294 296 300 302 303 305 308 310 311 309 308 306 303 304 303 302 300 296 294 291 290 289 289 289 288 289 289 289 289 289 289 289 289 289 288 288
287 286 278 269 272 276 283 279 284 291 294 295 295 296 297 299 301 302 305 308 310 310 308 307 305 302 303 301 298 296 295 293 291 290 290 289 289 288 288 288 288 288 288 288 288 289 288 288 287
285 282 287 279 280 276 280 283 288 292 291 293 293 295 296 296 300 302 305 308 309 309 308 306 303 301 300 297 294 293 292 291 290 290 289 289 288 288 288 288 288 288 288 287 287 287 287 287 286
287 290 280 281 274 273 277 279 281 286 288 291 294 297 296 296 298 302 305 307 308 308 305 303 301 298 296 294 292 291 290 289 289 288 287 288 287 287 287 287 287 287 287 286 286 286 286 286 286
285 283 285 284 282 276 275 278 286 287 290 293 295 297 297 294 299 302 304 305 303 301 301 298 295 293 292 291 290 289 288 287 287 287 287 287 287 287 287 287 286 286 286 285 285 285 285 284 285
288 286 285 279 278 281 279 279 292 292 294 295 296 298 298 298 300 301 298 297 298 296 296 296 293 291 289 289 288 287 287 286 286 286 286 287 286 286 286 286 285 285 285 284 284 284 284 284 284

GFSSGP_sfc_thetae_042.txt.gz
Theta_e
336 333 327 321 308 306 301 301 308 307 308 314 314 313 314 316 316 313 335 342 343 347 351 355 356 355 352 349 347 346 344 342 340 343 341 345 342 338 332 334 334 334 332 336 338 341 343 343 342
334 326 324 316 303 299 301 305 303 309 312 314 314 314 314 315 323 328 333 342 344 347 352 352 355 355 351 348 346 344 342 340 338 338 338 338 336 335 335 334 334 332 331 332 333 335 337 337 337
329 321 315 308 303 299 301 306 307 310 312 312 314 317 317 317 325 330 337 342 345 348 351 352 355 354 351 348 345 343 341 339 337 336 336 336 336 335 334 334 334 333 331 330 331 331 333 333 332
325 320 315 303 300 304 305 307 310 309 312 313 314 314 321 326 328 332 339 344 345 348 349 353 354 354 352 350 346 343 342 339 337 337 337 337 338 337 337 336 335 333 332 331 330 329 330 331 332
324 317 304 301 302 306 308 309 310 309 310 311 311 312 316 326 331 335 341 344 345 347 348 352 354 354 352 348 346 344 343 340 338 337 337 338 338 339 339 337 336 334 332 332 331 331 331 332 333
313 313 300 298 301 305 308 311 310 309 310 311 310 311 316 328 331 338 343 344 346 347 348 349 351 353 352 350 348 346 344 342 338 337 337 337 337 341 340 339 337 335 333 332 333 333 334 334 334
309 306 300 301 301 303 306 311 309 309 310 310 314 310 317 323 333 341 343 345 346 348 347 348 349 350 349 349 349 348 345 344 340 338 339 338 338 339 341 340 338 336 334 334 334 335 334 333 334
313 308 301 302 300 301 307 309 311 310 309 313 315 309 312 323 334 341 343 344 345 346 346 346 347 348 348 349 347 347 346 345 343 340 341 338 336 341 343 340 339 336 335 335 336 336 335 335 335
317 303 299 300 301 303 309 307 311 313 311 313 314 315 318 323 331 337 338 339 341 343 344 345 347 347 347 348 346 346 344 342 340 338 338 335 337 339 339 335 337 337 335 335 336 336 336 334 334
310 303 301 306 307 305 307 308 310 309 310 311 314 316 320 323 328 331 332 333 337 339 343 345 346 347 346 346 348 347 345 343 340 335 336 336 334 334 334 331 330 332 333 332 332 331 329 330 336
309 303 306 308 309 310 310 310 312 309 307 312 312 315 317 320 324 326 329 330 334 338 341 344 346 347 347 347 347 346 345 343 341 337 335 334 333 331 331 333 332 335 329 335 334 335 335 329 325
302 307 308 308 311 310 309 312 310 310 310 315 316 316 317 318 319 322 327 328 331 334 339 343 345 346 345 345 346 346 344 343 341 338 334 333 333 334 333 333 334 335 336 335 336 327 319 316 316
302 304 306 307 308 307 308 306 308 309 314 317 318 318 318 319 320 322 321 326 330 331 335 340 344 345 345 343 343 344 344 342 342 339 336 335 335 334 333 332 334 335 332 326 322 315 312 316 314
303 303 304 305 305 306 304 305 306 308 311 311 312 314 316 318 320 321 321 321 322 328 330 335 341 344 345 342 342 342 344 343 342 339 337 337 335 333 332 327 320 316 315 313 316 316 314 312 308
304 299 302 303 304 303 305 300 301 308 309 308 310 312 313 315 318 319 322 322 323 323 323 323 331 340 343 343 341 345 343 342 342 340 338 335 335 333 325 319 317 316 314 313 313 311 309 307 305
298 298 294 300 301 302 302 294 302 307 307 307 308 310 311 313 315 318 321 322 324 324 323 323 321 328 338 342 344 344 343 342 342 340 338 337 332 326 317 312 309 310 312 310 307 307 307 304 303
295 290 292 294 301 300 300 297 303 308 306 306 307 309 311 312 314 316 318 320 322 323 323 322 323 325 332 339 342 343 342 342 342 341 338 331 329 322 313 311 306 308 307 306 304 304 303 301 301
290 289 291 291 296 298 296 296 301 304 304 304 306 308 309 310 312 317 318 320 320 321 322 322 323 326 332 336 340 341 340 341 340 336 329 323 321 314 306 307 305 305 304 303 302 301 300 299 299
292 291 290 293 296 294 293 294 296 299 300 300 302 304 305 308 312 315 317 319 320 320 321 322 323 327 332 333 334 336 332 329 326 324 318 316 312 307 302 306 304 304 302 300 300 299 299 298 299
292 290 290 293 295 293 293 292 296 298 299 300 301 302 302 304 307 310 314 317 319 319 320 322 324 329 332 333 332 332 325 319 314 312 308 309 304 301 300 303 302 301 299 299 298 299 298 297 297
291 289 290 289 292 294 292 291 295 297 299 300 301 302 303 303 304 306 309 313 318 318 320 321 324 329 331 331 330 321 314 308 303 303 303 302 301 301 301 302 301 300 299 298 297 298 297 296 296
287 293 291 290 288 284 291 284 292 296 297 299 300 301 302 303 305 306 307 309 315 318 321 322 324 327 328 325 319 316 318 311 306 303 300 298 298 300 299 300 299 299 298 297 296 296 296 296 294
288 293 291 290 287 285 287 282 289 294 292 295 298 301 302 304 305 306 307 308 312 319 321 322 323 324 323 321 322 322 319 313 304 300 296 295 295 297 297 298 298 297 296 296 295 295 294 295 295
294 291 291 290 287 280 286 285 287 291 293 295 298 300 301 303 304 306 308 310 311 317 321 322 321 320 320 321 321 323 316 305 299 296 293 293 295 295 297 296 296 296 295 295 294 294 293 294 293
291 288 282 279 278 279 287 285 288 293 295 296 297 299 301 303 304 305 307 309 311 314 320 320 319 317 318 319 320 316 309 304 301 295 293 293 294 293 295 295 295 295 295 294 294 294 294 293 293
288 287 282 275 278 281 286 282 288 295 297 298 299 300 302 304 305 304 308 311 312 314 318 318 317 314 315 315 314 312 306 299 294 293 292 292 293 296 295 294 294 294 293 293 293 294 294 293 292
288 284 290 283 285 280 283 288 293 295 295 296 297 300 301 303 305 305 307 310 313 315 318 317 316 313 313 312 309 304 298 294 294 291 292 293 293 294 294 294 293 293 292 292 292 293 291 291 291
291 292 282 284 275 276 282 284 285 291 292 295 296 299 300 303 305 305 305 310 314 316 318 317 314 311 310 307 305 300 294 292 291 292 292 294 294 293 293 293 292 292 291 291 291 291 290 290 290
286 285 287 286 284 278 277 283 293 291 292 294 297 299 301 303 305 304 305 311 314 316 315 313 311 307 305 303 299 296 292 292 292 293 294 293 293 293 292 292 291 291 290 290 290 289 289 288 289
292 288 287 281 280 282 282 282 294 294 295 297 297 298 301 304 304 305 308 311 312 311 310 308 305 304 301 297 295 291 292 292 293 293 293 292 292 292 291 291 290 289 289 289 288 288 288 288 288

GFSSGP_sfc_thetae_045.txt.gz
Theta_e
338 332 329 322 308 307 302 305 308 307 308 314 317 315 315 318 316 313 337 342 344 348 351 354 356 355 353 349 348 347 345 344 344 344 344 346 343 338 335 336 335 334 334 338 341 343 346 344 342
333 327 324 316 303 300 302 308 305 308 313 315 316 317 315 316 324 331 335 341 345 347 350 352 355 354 351 348 348 346 343 341 341 341 344 343 338 336 336 335 335 333 332 332 336 338 339 338 338
330 325 315 309 304 299 302 308 309 311 314 314 314 319 319 319 326 332 340 342 345 347 350 352 354 354 351 348 345 344 341 339 338 339 337 337 336 335 335 335 335 332 331 331 332 333 333 333 333
325 320 315 304 302 306 306 309 310 311 313 315 316 315 322 328 329 334 341 342 344 346 349 352 353 353 351 348 344 342 341 339 337 338 338 337 337 337 336 336 335 332 332 331 331 331 333 334 335
324 316 305 302 302 306 310 311 311 310 311 313 314 314 318 328 333 338 341 341 343 345 351 351 354 353 351 348 345 343 341 339 338 338 338 338 339 339 338 337 336 333 333 333 333 333 333 333 333
312 312 301 299 302 307 310 312 311 311 312 313 312 314 318 331 333 338 342 341 344 344 347 350 351 351 351 349 347 345 343 340 338 338 338 339 338 339 340 339 337 335 334 334 334 335 334 334 334
310 307 301 302 302 304 308 312 309 310 311 311 315 310 319 325 335 339 341 342 344 344 344 348 349 349 349 349 348 347 345 343 341 340 339 338 338 338 341 340 338 336 335 334 335 335 334 333 334
313 308 302 303 300 302 309 310 312 310 310 316 316 310 312 327 336 339 340 341 342 344 343 345 347 347 347 347 347 347 346 345 342 341 342 338 339 342 343 341 339 337 336 335 336 336 335 336 335
318 305 299 302 301 304 310 307 312 314 311 313 315 315 321 325 335 336 337 338 340 341 342 343 344 345 345 346 345 345 344 343 340 338 338 335 336 339 338 336 339 338 336 335 336 336 335 334 335
310 302 302 306 307 306 309 309 310 310 310 310 313 317 321 324 329 331 332 333 336 339 340 342 344 344 345 345 345 344 343 341 338 332 336 335 334 335 335 333 335 336 335 334 333 331 332 331 334
309 302 306 307 310 311 309 308 312 309 307 311 311 315 318 321 324 328 330 331 334 338 341 341 343 344 343 343 346 345 344 342 339 335 334 333 331 331 330 332 330 332 329 334 333 333 332 327 325
303 307 308 309 311 311 309 311 309 310 310 314 316 318 318 318 320 324 326 328 330 334 338 341 343 344 344 346 343 344 344 341 339 337 333 332 330 328 330 331 333 334 333 333 333 327 323 321 320
304 306 307 309 309 309 310 308 308 310 314 316 316 317 318 319 320 322 323 328 329 330 335 339 342 343 345 344 344 343 341 340 339 339 334 333 332 332 332 331 331 332 332 329 326 322 319 319 317
306 306 306 307 307 307 305 305 307 308 312 312 313 314 316 318 319 321 323 323 326 329 332 336 339 342 343 344 342 343 342 341 340 338 336 334 334 334 333 332 329 325 323 320 321 319 317 315 311
306 301 303 304 305 304 306 301 302 308 310 309 310 312 312 314 317 318 321 323 324 325 330 331 335 339 341 342 342 342 343 341 339 338 336 336 336 335 333 328 324 323 321 319 317 314 312 309 308
299 300 295 302 303 304 303 295 304 309 308 307 309 310 311 313 314 317 319 323 325 325 325 326 325 333 338 340 343 342 343 341 339 339 337 336 336 335 329 324 319 318 318 315 312 309 308 306 305
297 292 295 298 303 302 301 298 304 308 308 306 308 309 310 311 313 315 318 320 323 325 325 325 325 325 330 338 341 342 342 339 339 339 338 337 336 331 323 320 314 315 313 311 307 306 304 303 303
292 292 294 294 299 299 297 297 302 305 305 305 307 309 310 310 312 316 317 318 320 323 324 325 325 325 326 332 339 340 340 339 339 339 337 337 333 326 319 313 312 311 309 306 305 304 302 301 300
294 293 293 296 299 296 295 296 298 302 302 302 303 304 306 308 313 315 317 319 319 321 322 323 324 324 327 331 334 336 336 336 333 335 337 333 327 318 315 311 310 309 307 305 303 302 301 300 300
295 292 292 296 298 295 294 294 298 300 301 302 302 303 304 306 308 310 313 316 317 319 322 322 323 325 328 332 335 336 336 324 324 326 327 324 318 313 309 307 307 305 303 302 301 301 300 299 299
293 291 292 291 295 296 294 292 297 301 302 303 304 304 305 305 306 307 309 312 318 319 320 322 323 325 329 332 335 335 321 314 310 310 309 309 309 306 306 306 304 304 303 302 301 300 300 298 298
289 295 293 292 290 287 294 285 293 297 299 300 301 303 304 305 306 307 308 309 313 317 322 323 324 326 330 333 331 327 318 312 307 307 307 306 306 305 304 304 303 302 302 300 299 298 298 299 295
290 294 292 291 288 286 288 285 291 296 294 297 301 302 303 305 306 306 307 310 311 315 321 324 324 326 330 330 330 324 319 319 308 303 301 301 302 302 300 300 301 301 300 298 298 297 296 295 295
295 291 291 290 288 281 288 287 288 292 295 297 300 301 302 304 305 306 308 310 311 314 320 325 324 325 329 329 324 322 324 310 302 298 298 299 299 300 300 298 300 299 298 297 296 296 295 294 294
292 288 282 280 279 280 289 287 289 295 297 297 298 300 302 303 304 305 306 307 309 312 314 322 322 323 325 323 324 324 322 308 302 300 298 295 296 296 296 298 297 297 297 296 296 296 296 295 294
289 288 283 277 280 283 289 283 289 297 298 299 300 301 302 302 304 306 308 309 310 313 314 319 321 321 321 322 323 325 314 309 304 300 296 295 295 295 297 297 296 295 295 295 295 295 295 294 293
289 284 291 284 285 281 284 289 294 297 297 298 299 300 300 302 304 306 308 309 310 312 314 319 320 320 320 321 323 315 311 305 300 297 297 295 295 295 295 296 295 294 294 294 294 293 292 291 291
292 294 282 283 276 277 284 287 288 293 295 297 297 298 300 303 304 306 306 308 309 313 315 320 320 317 319 320 317 310 303 298 295 295 294 294 294 295 295 294 294 293 293 292 292 291 291 290 291
288 286 287 288 285 280 280 285 296 294 295 295 297 299 301 302 304 306 306 307 310 314 316 318 318 316 315 313 307 302 297 294 293 293 293 292 294 293 294 293 293 292 291 291 290 290 289 289 289
292 289 288 281 282 284 283 284 296 296 297 297 297 299 301 302 304 306 308 309 311 315 316 316 314 312 310 306 301 297 295 294 293 293 293 294 293 294 293 292 292 291 290 290 289 288 289 289 288

GFSSGP_sfc_thetae_048.txt.gz
Theta_e
338 332 326 319 304 303 298 301 304 303 303 307 311 310 308 311 314 310 333 337 347 347 352 354 357 355 353 350 349 348 347 347 347 347 347 345 342 337 338 337 336 334 339 341 345 346 347 345 343
333 329 321 313 300 295 297 305 303 304 308 311 311 309 309 310 326 326 331 338 346 347 350 351 355 354 352 350 349 347 345 344 345 344 346 343 338 337 337 337 335 334 335 337 340 341 340 339 338
330 327 311 306 300 295 297 304 304 307 310 309 308 311 312 315 325 328 335 339 344 346 348 350 354 354 351 349 347 344 342 340 342 341 343 339 337 336 336 336 333 333 333 334 335 336 335 334 334
322 318 311 300 298 302 302 305 306 308 308 309 310 309 316 324 323 333 336 339 341 344 347 351 353 353 351 349 345 343 341 339 339 338 338 337 336 336 337 336 333 333 332 332 333 334 334 336 336
319 314 301 297 298 303 306 307 306 305 306 308 309 307 314 324 331 335 334 338 338 345 347 349 353 352 350 346 345 343 341 339 339 339 338 339 339 338 338 337 334 334 333 334 334 334 335 335 336
308 308 297 295 299 303 305 307 306 305 307 308 305 307 314 326 329 333 335 335 340 345 346 347 349 350 350 348 346 344 342 340 340 341 340 340 340 341 339 338 336 335 335 335 336 336 335 335 335
306 303 297 298 298 300 304 308 305 305 305 306 308 303 314 321 331 335 334 336 338 346 346 345 346 347 347 347 347 346 344 342 342 343 342 342 341 342 341 339 337 336 335 336 336 335 334 334 335
309 306 299 299 297 298 305 306 309 306 305 311 310 303 306 324 332 335 334 335 336 338 344 343 344 344 344 344 346 346 345 343 342 341 341 338 337 340 343 340 339 337 336 337 337 336 336 335 336
313 300 297 298 299 301 306 304 308 309 306 309 307 308 316 326 332 331 330 332 334 337 337 342 344 343 342 342 343 344 344 342 339 338 337 334 332 337 337 336 338 339 337 337 337 336 337 338 336
306 300 301 305 304 303 306 305 306 305 305 305 307 311 318 319 324 327 327 328 331 333 334 338 342 342 342 343 342 340 340 337 333 330 333 332 331 336 336 334 337 338 337 337 337 335 335 333 330
305 300 305 305 306 309 307 306 307 304 303 306 305 309 314 318 319 324 326 328 330 333 334 335 338 341 340 343 342 341 340 338 335 327 331 329 328 327 329 327 329 329 331 329 333 330 328 318 317
301 306 306 307 309 308 306 309 306 305 305 310 310 311 313 313 316 319 322 324 329 332 334 335 337 338 341 343 343 342 340 339 335 330 330 326 324 323 321 326 325 327 326 329 327 321 316 315 314
301 303 306 307 307 306 309 306 305 306 309 311 312 313 312 312 314 315 320 323 322 327 333 335 336 337 339 339 342 341 341 338 336 335 328 327 324 322 324 325 326 325 323 322 319 316 314 311 309
305 304 304 306 305 305 303 303 304 304 308 308 310 310 310 312 314 315 316 316 317 322 330 335 335 336 338 338 338 340 339 338 337 335 329 328 327 326 326 325 321 319 317 317 316 312 309 307 302
305 299 302 303 303 302 304 299 300 305 307 306 306 307 309 310 312 314 315 316 318 318 324 330 335 335 338 339 338 338 339 338 336 336 331 328 329 328 327 321 318 316 315 313 310 307 304 302 302
299 299 292 299 302 303 301 292 301 305 304 303 305 306 307 308 310 312 314 315 317 319 318 325 332 334 334 338 339 340 338 337 337 336 333 330 331 329 323 320 317 315 312 309 305 302 301 299 298
294 288 291 295 301 299 298 293 301 304 302 301 302 304 306 307 308 310 311 314 315 318 319 319 321 325 331 335 339 338 339 337 337 337 334 331 331 326 319 315 310 311 308 304 302 298 297 296 296
288 288 291 291 296 297 295 294 299 301 301 300 302 302 303 305 306 309 311 311 314 316 319 318 319 318 321 330 338 338 338 336 337 336 334 332 329 322 316 309 308 307 303 301 300 297 296 294 294
294 291 290 293 297 294 292 293 295 298 298 298 300 301 303 305 307 308 309 310 310 312 314 317 318 318 319 318 329 334 333 333 336 335 334 333 327 315 309 307 305 304 302 299 298 296 295 293 293
293 290 289 293 296 293 291 291 295 297 297 298 299 299 301 302 303 305 307 309 310 311 312 313 316 318 320 321 325 331 325 321 321 327 331 325 316 311 307 304 302 300 298 296 297 296 294 293 292
291 289 289 289 293 293 290 288 292 296 298 299 300 301 301 301 301 303 303 305 307 310 311 313 315 316 320 322 327 318 316 312 309 310 308 310 307 306 308 307 304 300 299 298 297 296 295 292 292
287 293 292 291 287 282 290 279 288 292 294 296 296 297 299 301 302 303 303 302 305 308 312 313 315 316 319 324 326 321 320 314 308 307 307 306 305 306 307 306 301 300 297 295 294 295 292 292 290
289 294 291 290 285 283 284 279 285 291 290 292 294 296 298 298 299 300 301 303 304 304 309 313 314 316 318 325 327 320 315 308 307 304 303 303 305 306 304 301 299 297 295 294 292 291 290 290 290
295 291 290 288 285 278 283 282 282 287 289 291 294 294 297 297 297 299 301 303 302 304 305 310 314 315 320 325 324 318 311 305 301 299 300 300 301 300 299 298 296 295 294 293 292 291 290 289 289
292 287 276 276 276 274 287 284 285 292 293 294 294 292 295 294 295 297 299 300 301 302 305 306 314 314 321 322 320 317 308 303 300 298 298 297 297 297 298 298 296 293 294 293 292 292 290 289 288
289 287 278 272 273 278 286 279 284 293 295 295 296 295 296 295 296 296 300 302 303 304 304 305 314 315 320 319 316 315 305 302 299 299 299 297 296 297 298 296 295 294 293 292 292 291 290 289 288
288 284 288 281 281 274 280 283 289 293 292 293 293 295 295 296 297 297 301 302 303 303 305 306 313 315 318 317 317 308 304 300 299 297 297 297 296 296 296 294 293 291 291 291 290 289 287 287 286
290 291 281 279 268 270 278 280 283 288 290 293 292 292 294 296 296 299 302 303 303 303 306 307 314 314 315 316 311 307 302 300 297 297 296 295 294 294 294 292 292 291 289 289 289 287 287 286 285
287 286 285 284 279 272 273 279 289 289 291 291 292 294 295 295 297 299 301 303 303 303 306 309 313 313 314 313 304 297 294 294 295 294 294 294 294 293 293 292 291 290 288 287 287 286 286 285 285
292 287 286 276 274 279 276 280 294 292 291 293 293 295 296 297 297 300 301 302 303 305 308 311 314 314 307 300 295 292 292 292 292 292 292 293 292 293 291 291 289 288 287 286 285 284 285 284 284

GFSSGP_sfc_thetae_051.txt.gz
Theta_e
335 330 323 312 299 297 292 298 300 301 299 303 306 306 305 308 311 307 331 344 347 349 353 354 356 355 354 353 351 351 350 350 349 348 347 344 341 340 338 337 336 339 342 344 342 343 346 346 344
330 329 315 306 295 290 292 300 300 301 305 306 307 306 305 314 322 327 331 346 348 350 352 352 355 354 353 350 349 348 348 348 348 348 346 343 340 339 337 335 334 337 340 343 343 344 343 341 340
330 326 306 301 294 291 293 299 299 304 307 306 305 307 306 314 323 327 334 345 349 348 351 351 354 353 352 350 348 346 345 346 345 347 344 341 339 337 337 335 333 334 337 339 339 339 338 337 336
318 312 306 295 293 297 299 302 301 304 305 308 306 306 315 322 325 331 339 346 345 346 348 351 353 353 352 350 346 343 342 343 342 344 341 339 338 338 337 334 333 333 334 336 336 336 337 337 336
311 307 296 292 294 297 300 303 304 303 303 305 306 304 313 324 330 332 338 344 342 344 347 349 353 352 350 347 345 343 341 341 339 340 339 338 338 339 337 334 334 333 333 335 335 335 335 336 336
302 303 292 293 294 298 301 305 302 303 303 303 303 302 313 325 328 330 334 340 344 344 345 348 349 350 349 347 346 345 342 341 340 341 341 341 340 340 339 335 335 335 336 336 336 336 336 336 336
299 296 292 292 293 296 302 306 300 303 302 302 304 299 312 319 327 331 332 343 344 344 344 346 346 345 346 346 345 344 343 343 343 343 344 343 343 342 340 337 336 336 336 337 336 335 335 336 336
303 299 294 293 295 294 302 302 305 303 302 307 307 300 311 323 331 332 330 343 343 342 343 342 343 343 342 342 344 343 342 342 343 343 341 339 338 341 342 340 338 337 336 337 337 337 336 336 336
306 294 292 296 297 298 304 301 306 306 304 305 305 308 319 328 330 328 328 333 340 341 341 342 341 341 341 340 342 343 342 340 340 339 336 334 331 338 337 336 337 339 338 338 338 337 337 338 336
300 295 296 302 302 300 304 304 304 303 302 301 303 312 316 326 326 326 326 327 331 337 339 341 341 340 340 342 340 338 339 335 332 333 332 330 329 336 335 333 336 339 338 338 338 337 336 333 328
300 295 303 305 306 306 305 304 306 302 300 302 302 306 313 317 321 325 326 327 329 332 337 341 340 340 340 340 339 339 337 333 330 328 330 329 328 335 330 330 332 330 331 330 333 330 327 317 324
298 302 304 305 307 306 304 307 304 303 302 307 307 308 310 312 316 320 324 325 328 331 332 341 341 339 339 341 338 338 338 335 331 326 329 325 323 328 325 324 325 325 326 325 326 323 315 314 311
297 300 304 305 305 304 306 303 303 303 307 309 309 309 308 310 311 313 318 321 326 331 333 334 339 339 339 340 339 340 339 337 335 328 329 325 324 323 321 322 322 323 323 323 317 313 312 307 303
302 303 301 303 302 302 302 301 301 302 307 304 305 305 306 308 312 311 312 314 317 326 332 334 336 338 340 340 339 339 339 339 336 332 329 325 323 320 320 322 322 319 317 316 314 312 308 302 300
304 298 299 300 301 300 302 297 298 303 304 303 303 303 306 306 309 310 313 313 314 315 330 334 334 336 338 337 338 338 339 339 335 334 329 325 325 323 323 319 316 314 314 311 306 304 301 299 299
297 295 290 298 301 301 300 291 300 303 301 302 304 304 303 305 306 308 310 312 313 315 320 333 336 334 337 337 337 337 337 336 334 333 330 327 327 325 321 318 315 314 311 307 303 301 298 296 296
294 285 289 293 299 299 298 292 300 303 300 298 301 302 304 306 306 306 309 311 312 313 315 320 331 332 336 337 338 338 337 334 332 333 331 329 328 323 320 315 312 309 305 302 300 296 296 294 293
286 286 287 288 294 295 293 292 297 300 298 296 298 299 300 303 306 308 308 307 310 311 314 315 320 331 334 337 337 336 334 333 334 333 331 331 327 319 315 310 308 304 301 299 297 295 293 293 292
292 288 288 290 295 291 291 291 293 295 296 297 297 296 300 302 304 305 305 306 307 308 310 314 315 318 325 335 334 333 330 333 330 333 333 329 323 318 311 308 304 302 300 298 296 295 293 291 291
292 288 287 291 294 291 289 289 293 295 295 297 297 296 298 301 301 302 303 304 306 307 307 310 313 316 321 328 335 333 331 324 327 329 332 329 319 312 309 306 302 300 298 296 295 296 293 294 292
288 286 286 287 291 290 288 286 289 294 295 297 299 299 299 299 298 299 300 301 303 304 307 309 310 314 315 317 321 318 316 315 314 312 315 314 312 310 307 304 301 297 297 296 295 295 295 291 291
285 291 291 289 285 280 287 278 284 290 291 293 294 295 298 299 298 299 300 300 300 302 305 308 311 312 315 318 320 322 322 321 314 310 307 306 307 309 309 306 301 299 298 295 294 294 293 293 289
288 293 289 288 283 280 282 278 282 288 288 290 289 292 294 297 299 300 299 301 301 301 302 306 308 312 314 319 322 323 320 310 308 306 304 305 305 306 307 304 301 301 300 295 293 291 291 292 291
293 289 288 286 283 274 280 280 280 285 288 288 290 293 293 295 295 296 298 300 300 299 300 304 307 310 312 319 322 321 312 307 306 303 302 302 303 303 302 300 300 299 298 296 295 291 289 289 289
290 283 271 278 277 273 284 280 281 289 292 292 292 292 293 294 294 295 299 300 300 300 301 301 304 308 311 318 320 315 312 309 307 303 302 301 298 298 298 298 298 297 297 296 294 291 291 289 288
286 284 273 269 270 276 283 278 283 290 294 293 294 293 293 293 294 294 299 299 299 300 301 301 302 307 313 318 316 311 307 307 304 303 301 302 299 299 299 297 297 296 296 295 292 292 290 289 288
286 281 286 277 277 271 278 281 286 290 290 290 292 293 292 294 294 296 298 300 300 301 301 301 302 308 316 316 309 305 304 303 302 301 299 300 299 297 296 296 295 296 296 293 292 291 288 287 286
288 290 278 274 266 268 276 277 281 286 288 290 290 291 293 295 295 297 299 300 301 301 301 301 303 311 315 314 305 302 302 301 300 298 296 296 295 295 294 294 293 294 293 291 291 288 287 287 286
287 285 284 281 276 270 271 277 286 287 289 288 291 293 294 294 295 296 299 301 301 302 302 302 307 311 311 307 302 301 298 298 297 297 295 295 294 294 293 293 292 291 290 289 288 287 286 285 285
289 286 284 272 271 273 277 278 291 291 290 292 294 297 298 298 298 295 299 300 300 301 303 304 308 308 301 298 298 296 296 295 296 294 294 294 293 293 292 292 291 289 288 287 287 286 285 285 285

GFSSGP_sfc_thetae_054.txt.gz
Theta_e
333 328 321 311 298 295 291 296 298 301 300 303 305 306 304 308 309 303 330 340 348 349 352 353 357 357 357 355 352 353 351 350 348 346 345 343 342 340 337 339 340 340 341 342 340 343 347 346 344
328 326 312 303 294 288 291 296 299 301 304 305 304 304 304 312 321 330 334 345 349 349 351 352 355 355 355 353 351 351 351 350 349 348 345 342 341 339 337 335 338 340 342 342 342 346 346 344 342
327 324 306 299 293 290 291 297 297 303 305 305 302 305 310 314 323 331 339 346 348 349 351 351 354 354 353 352 351 350 349 349 350 347 344 342 340 338 336 335 336 339 342 342 342 342 340 339 337
316 311 304 295 293 296 297 297 299 302 305 306 304 304 314 321 326 332 344 347 346 347 348 351 353 353 352 351 349 348 347 346 346 346 342 341 338 337 335 334 334 337 339 339 338 338 337 337 337
310 304 295 292 294 296 299 300 301 301 301 303 304 302 312 324 328 342 344 346 344 345 347 350 353 352 350 348 346 345 345 344 346 343 341 338 339 338 334 334 334 334 336 337 337 337 337 336 337
301 302 291 290 293 297 299 301 300 300 302 304 302 308 312 324 331 340 344 343 345 345 347 348 350 351 350 347 345 345 345 343 343 341 339 339 340 338 335 335 334 334 336 336 336 336 335 336 335
298 295 292 291 293 295 300 303 299 300 301 303 304 301 313 321 327 333 339 342 344 345 344 346 346 346 346 345 345 344 344 343 342 343 343 342 342 340 337 335 336 336 336 337 336 336 336 336 336
301 297 291 292 293 293 300 301 302 300 301 305 305 306 310 321 328 335 340 341 341 342 343 343 343 342 341 340 343 342 342 343 342 343 342 340 340 340 340 338 338 336 337 336 336 336 336 336 335
304 293 291 293 294 296 301 301 304 305 301 304 303 310 319 326 328 330 336 336 337 340 341 341 340 339 338 338 339 341 341 341 341 339 337 335 333 337 336 335 337 338 337 337 337 337 337 338 336
299 293 295 301 300 298 302 303 304 302 301 300 304 314 323 326 325 327 333 334 335 336 338 340 339 339 338 340 337 336 336 333 333 333 332 329 329 335 336 332 336 339 339 339 338 338 338 334 327
299 294 301 303 305 305 303 303 305 301 299 301 301 312 316 322 323 325 330 334 335 337 338 339 338 339 338 338 338 336 334 331 329 330 329 328 328 332 330 329 331 330 331 330 334 330 326 318 322
296 301 302 304 306 304 302 305 302 303 303 306 306 306 308 313 315 324 326 329 330 336 337 339 339 337 338 339 337 337 335 332 328 327 329 326 324 329 327 328 327 326 326 324 325 323 315 311 309
296 299 302 304 304 302 303 302 302 303 307 307 306 308 307 307 311 314 320 327 329 332 337 338 339 337 338 337 337 336 335 333 331 326 326 327 323 328 327 325 324 323 323 323 322 316 311 304 301
301 301 300 302 301 302 300 300 300 301 306 304 304 304 304 306 307 309 311 314 320 330 332 339 339 338 338 338 336 336 336 335 333 328 326 325 325 327 324 321 320 321 321 319 315 311 306 300 299
302 297 298 299 300 299 301 298 296 303 303 302 302 303 304 304 306 306 310 311 312 319 330 334 339 339 337 338 337 337 337 336 334 331 326 325 324 322 322 321 319 317 316 314 308 302 300 298 297
296 295 290 297 299 300 300 292 298 302 300 300 301 302 303 305 305 306 308 309 311 312 317 331 337 338 337 338 337 337 337 337 334 332 328 325 324 322 320 319 316 313 310 306 302 299 297 296 295
291 285 287 292 299 298 296 291 299 303 298 298 298 299 301 303 304 304 306 307 308 309 312 324 332 334 337 337 338 336 336 335 333 329 327 326 324 323 320 317 314 311 306 302 300 297 296 293 293
286 286 287 288 292 294 292 292 297 298 298 297 297 297 298 301 304 306 306 306 308 307 309 314 328 332 336 336 335 336 334 334 333 331 327 326 325 321 319 315 311 306 302 299 297 295 293 292 291
291 290 286 289 294 289 289 289 292 295 294 295 296 296 297 299 303 303 303 304 304 306 306 309 315 328 333 333 332 332 332 331 331 330 328 327 324 320 317 311 306 302 301 298 296 294 292 290 290
291 288 286 290 293 289 288 288 292 294 295 296 297 298 297 298 298 301 303 303 303 304 304 306 310 318 330 334 334 333 332 330 330 329 328 327 322 319 317 310 305 301 298 296 295 295 292 291 290
288 285 286 286 290 288 287 286 288 292 293 296 298 298 298 298 299 299 299 300 301 302 304 305 307 312 324 333 330 320 319 317 318 321 324 325 319 316 314 308 304 300 298 296 294 294 294 290 289
285 290 290 288 285 279 286 277 284 288 289 291 291 293 296 298 297 299 299 298 299 300 302 304 307 309 312 322 327 326 325 323 321 322 312 312 313 314 311 306 304 303 300 296 294 295 295 293 289
287 291 289 287 282 279 280 279 282 287 288 288 288 290 292 296 296 297 297 299 299 299 299 301 304 308 311 319 326 325 325 321 309 310 309 307 309 311 309 305 302 302 300 298 297 296 295 292 290
293 288 286 285 280 270 279 280 280 284 287 287 290 292 293 292 294 296 297 298 299 299 299 299 302 305 308 312 320 324 319 309 307 305 306 305 305 308 308 304 303 302 300 299 298 294 293 290 291
289 281 270 269 269 272 282 279 281 287 291 290 291 291 292 292 292 294 297 298 298 298 299 300 300 302 305 309 315 320 318 313 311 307 306 304 302 302 304 303 302 299 298 296 295 294 294 291 289
285 282 273 268 271 274 282 277 283 289 291 291 291 291 292 293 293 293 297 297 298 299 300 300 300 300 302 307 315 317 316 314 311 309 306 305 303 300 300 300 300 297 296 295 295 294 292 290 288
286 279 285 275 274 270 276 280 284 288 289 290 291 292 292 293 294 294 296 298 299 299 300 300 301 301 301 308 312 308 310 308 306 302 304 301 300 299 300 300 297 296 295 294 294 293 290 289 288
287 289 278 272 265 267 274 276 278 284 286 289 290 291 294 297 298 296 297 299 300 300 300 301 301 301 302 310 306 306 305 305 302 302 301 300 298 299 299 297 295 294 294 293 292 290 289 288 286
286 283 280 279 275 269 269 276 284 285 287 288 290 292 294 296 296 296 299 298 300 300 300 301 302 303 307 304 301 301 301 301 301 301 301 299 297 297 295 294 293 292 291 291 289 288 287 287 286
288 285 282 272 270 270 277 276 289 286 288 290 293 295 298 297 298 298 295 297 298 299 302 304 305 306 302 300 299 299 299 299 298 299 298 297 296 295 294 293 292 291 290 287 287 288 287 287 286

GFSSGP_sfc_thetae_057.txt.gz
Theta_e
330 326 318 309 297 294 290 294 298 298 299 300 302 303 305 306 307 302 327 340 345 347 352 354 358 358 357 357 355 355 353 351 349 347 346 344 342 341 341 343 342 339 337 343 341 346 346 345 343
327 323 311 302 292 287 289 295 297 300 302 304 302 302 306 309 321 329 332 344 348 349 351 352 357 357 355 353 352 351 351 349 348 346 343 343 342 339 337 339 338 338 339 340 342 344 346 345 341
324 319 305 299 292 288 289 295 297 301 302 302 300 304 308 312 321 330 334 346 347 348 349 351 355 355 354 353 352 350 350 349 348 347 343 343 340 338 335 336 337 341 343 344 344 345 343 340 338
316 310 304 294 292 295 295 296 297 300 304 302 302 306 314 319 326 331 344 347 345 346 347 352 354 354 353 353 352 351 350 350 349 346 343 342 339 337 335 335 338 340 342 341 340 339 338 337 336
309 303 295 291 294 297 297 299 300 300 300 301 303 303 312 322 331 341 343 346 344 345 347 349 353 353 351 350 350 350 348 348 348 345 343 340 338 336 334 334 336 339 339 339 338 338 338 337 337
301 301 290 290 293 297 298 300 299 298 299 301 300 308 312 323 337 340 344 343 346 345 346 348 349 351 351 347 348 348 347 346 347 344 342 339 339 335 335 334 334 337 338 337 337 337 337 336 336
298 295 292 290 294 293 298 301 298 299 299 300 303 305 311 320 334 342 341 341 344 345 345 346 346 347 347 347 346 346 346 346 346 344 342 342 341 337 335 334 334 335 337 337 336 335 335 336 335
300 297 290 291 292 293 299 300 301 299 300 304 308 307 311 320 331 337 338 339 340 342 343 342 343 343 340 340 343 343 343 343 343 342 341 340 339 339 337 337 338 337 337 337 336 335 336 336 335
302 293 289 292 293 295 299 299 303 303 300 302 302 311 315 324 336 335 335 337 337 339 340 341 340 338 336 336 339 341 341 340 341 340 337 336 334 336 334 333 336 338 337 336 336 336 336 337 335
298 291 293 299 298 297 300 301 302 302 300 299 304 316 322 326 333 332 333 333 334 337 340 341 338 337 336 338 335 333 335 334 334 333 332 331 331 333 335 331 335 338 338 339 338 337 338 333 326
298 293 299 302 304 304 301 301 304 300 299 299 300 304 311 321 328 332 333 334 335 337 338 339 337 337 336 336 335 333 331 330 330 330 329 327 328 330 331 328 329 329 331 330 333 330 325 320 321
295 300 301 303 305 303 299 302 301 302 303 305 305 306 306 309 318 325 331 333 334 335 337 338 338 336 336 336 335 334 332 329 327 328 328 326 324 328 327 326 326 326 326 324 325 322 316 311 311
296 298 302 303 304 302 302 299 300 301 306 305 307 306 305 305 306 314 322 328 331 334 336 337 337 336 336 334 335 335 333 331 329 327 327 326 323 327 326 326 325 323 323 322 321 318 309 303 300
300 300 300 301 301 301 299 299 299 300 304 304 303 304 304 304 305 305 311 318 325 333 336 337 337 336 336 335 335 334 334 333 330 327 326 327 325 326 327 324 323 321 321 321 320 312 305 299 297
301 296 297 298 300 299 300 296 295 301 303 301 303 301 303 303 305 305 307 310 317 325 332 336 337 337 336 336 335 334 335 334 332 329 324 326 324 325 326 323 320 320 320 318 312 303 299 297 296
296 294 289 297 299 300 299 291 298 301 301 299 300 301 302 302 304 305 306 307 309 311 324 333 339 338 336 336 335 335 335 334 333 331 326 325 325 324 322 320 319 317 314 310 303 299 297 295 295
290 284 288 292 299 298 296 290 297 301 298 297 298 299 299 301 302 303 305 305 306 309 311 325 336 337 335 336 336 335 336 335 334 332 328 324 324 322 321 320 317 313 308 304 301 297 296 294 293
286 286 286 288 291 294 292 291 297 299 296 297 298 298 298 299 301 303 303 305 306 305 309 313 328 335 336 335 335 336 335 335 334 331 329 325 324 321 320 316 314 310 304 300 298 295 293 292 291
290 288 285 288 293 289 288 288 292 294 293 293 295 297 298 299 302 301 303 304 304 303 304 308 321 329 333 333 333 333 332 333 330 332 329 326 324 321 319 316 312 307 305 301 297 294 292 290 290
292 287 285 289 291 288 287 287 291 294 294 295 296 297 297 297 297 298 300 301 302 303 302 303 311 327 330 333 334 333 333 332 332 331 327 326 324 322 319 315 311 307 301 297 295 294 292 290 289
288 285 285 286 288 287 285 284 288 291 293 294 295 297 298 298 298 299 297 299 300 301 302 303 303 310 327 332 331 324 322 322 323 323 326 324 323 321 320 315 310 305 304 299 299 296 294 290 288
285 289 289 287 284 279 285 277 283 287 288 290 291 292 293 295 297 297 297 297 298 299 300 302 304 305 316 328 329 328 326 325 326 328 328 323 319 318 315 313 308 306 306 301 303 301 298 294 291
287 291 288 286 282 278 280 278 282 285 286 289 288 289 291 292 293 296 296 297 298 298 298 299 301 303 307 317 328 328 325 325 320 315 319 311 311 317 313 311 305 304 305 305 303 303 301 296 294
292 287 285 283 280 271 278 279 279 282 285 287 289 290 290 291 292 294 296 297 297 298 298 298 300 302 304 310 321 326 326 314 312 310 314 310 309 309 310 308 307 307 304 302 303 302 299 295 294
287 282 272 270 269 271 281 279 281 286 289 289 289 288 291 293 294 294 294 297 298 298 299 300 299 300 302 305 311 319 321 315 316 314 315 309 308 305 305 305 305 305 304 302 299 297 294 294 292
284 282 274 268 269 273 280 277 282 288 289 289 290 290 293 294 293 295 295 297 297 298 299 299 299 300 300 300 305 312 317 317 314 312 313 312 309 306 304 304 304 303 300 298 297 295 293 292 291
285 277 283 275 274 270 276 279 283 287 287 289 291 293 293 295 296 294 296 298 298 299 299 298 299 300 301 301 302 309 312 310 310 308 307 305 303 303 302 302 301 299 297 296 294 293 291 290 289
286 288 277 272 267 269 274 275 277 282 285 288 289 290 292 296 297 297 295 296 298 299 300 299 300 300 301 301 305 307 309 308 304 304 301 300 301 301 300 298 297 296 296 294 293 291 290 289 288
284 281 280 279 275 270 270 276 283 283 286 287 289 291 293 295 296 297 297 297 296 297 297 298 299 301 303 305 302 301 300 300 300 300 300 299 299 299 298 296 296 294 292 291 290 289 288 287 287
287 284 281 272 271 271 275 275 287 287 288 288 291 293 296 297 297 297 297 298 298 298 301 302 302 303 303 299 298 297 297 298 298 297 298 297 298 297 296 295 293 292 290 289 288 288 288 287 287

GFSSGP_sfc_thetae_060.txt.gz
Theta_e
329 323 316 308 296 294 289 292 295 296 296 298 301 301 303 304 307 302 325 339 343 345 352 355 358 358 358 358 357 357 355 353 351 348 346 345 345 343 344 345 343 338 339 342 344 346 346 345 343
326 320 310 301 292 286 288 294 296 298 300 302 301 302 304 307 321 325 331 340 345 348 351 352 357 358 358 357 356 356 353 351 349 347 345 343 341 340 341 340 339 338 339 342 343 346 345 344 341
322 316 305 298 291 287 288 293 296 299 302 300 301 302 304 310 321 328 331 344 346 347 349 352 356 357 357 356 354 354 352 349 348 346 344 342 340 338 338 338 338 341 341 344 342 345 345 341 338
315 309 303 294 291 294 293 296 296 299 301 301 301 301 312 320 324 331 342 345 344 344 346 353 356 356 354 353 352 351 350 349 348 346 343 341 340 336 336 338 340 343 345 344 343 342 340 338 336
308 303 294 290 293 295 296 299 298 297 299 299 300 299 309 321 331 340 344 345 344 345 346 350 355 355 354 353 352 352 351 351 349 345 343 341 338 337 336 337 339 340 341 340 340 339 338 337 337
301 300 289 290 293 297 297 300 298 297 297 299 298 303 312 323 333 340 343 344 344 344 346 348 350 352 352 352 352 351 349 350 348 345 343 340 338 335 335 335 339 339 339 339 339 338 337 337 336
299 296 291 290 294 295 298 300 297 297 296 299 302 304 310 318 334 341 342 343 343 345 344 344 345 347 348 346 349 348 347 347 349 346 344 342 339 336 334 334 336 339 339 338 337 336 335 335 335
299 297 291 291 291 293 299 299 300 299 299 301 303 300 306 317 338 339 339 341 341 343 342 340 341 342 341 341 345 345 345 344 345 344 341 340 337 337 336 336 337 337 337 337 336 335 335 336 336
301 292 288 292 293 295 300 297 302 302 298 300 302 305 314 328 336 336 337 337 338 340 341 342 339 338 336 336 338 342 342 341 341 339 337 335 332 332 332 333 336 338 337 336 336 335 336 336 335
297 291 292 298 298 297 300 299 301 300 300 298 299 310 322 332 334 332 332 332 335 337 339 341 339 336 334 338 334 333 334 333 333 333 332 331 330 331 332 330 335 338 338 338 337 337 337 330 324
298 292 297 301 302 303 301 299 302 299 298 299 299 303 314 322 332 331 332 334 334 336 337 339 337 335 334 334 331 329 330 330 330 330 330 328 329 330 330 326 328 328 330 329 332 329 324 321 319
295 299 300 302 304 302 299 301 298 300 301 304 305 305 305 317 321 327 331 333 334 335 336 338 337 334 333 332 332 329 329 328 327 328 328 325 324 326 327 326 324 325 326 324 325 322 313 318 307
297 298 301 303 303 301 302 299 299 300 304 304 306 306 304 304 305 313 323 331 335 334 336 337 337 334 333 331 332 330 329 329 328 327 327 326 323 324 326 325 324 323 323 322 321 317 308 304 301
300 300 300 301 300 300 299 298 298 299 301 302 303 304 304 306 305 304 309 319 330 335 335 337 336 335 334 333 333 332 331 330 328 327 327 326 324 324 326 324 323 322 321 320 320 314 303 299 297
300 295 296 298 299 298 299 295 295 301 302 300 300 301 303 303 304 304 306 308 321 332 336 335 337 336 334 333 333 333 333 332 329 328 326 327 325 324 326 325 322 322 320 320 315 305 299 297 296
296 294 289 297 298 299 299 289 297 300 299 299 300 298 300 303 304 304 305 306 307 317 330 336 338 336 334 334 334 334 333 333 331 330 326 325 326 325 324 324 323 321 318 316 309 300 297 295 295
294 285 287 292 299 298 296 290 296 298 297 297 297 298 299 300 301 303 304 304 305 306 311 327 336 336 335 335 334 334 333 333 332 331 328 324 325 324 324 323 321 318 314 310 304 297 297 294 293
288 287 286 289 291 293 291 290 295 298 297 296 296 296 297 299 301 303 302 303 304 304 306 310 329 336 336 335 334 334 335 334 333 331 331 325 324 323 322 321 318 315 310 304 299 296 293 293 292
290 287 286 288 292 288 288 287 290 294 292 292 294 295 297 299 302 301 301 302 303 302 302 306 316 330 334 333 333 333 332 333 333 332 331 326 324 322 321 320 317 313 310 306 300 295 293 290 290
291 288 286 289 291 288 287 286 291 294 293 294 295 295 295 296 297 298 299 299 301 302 301 302 306 319 331 333 333 334 334 333 334 332 330 327 324 322 321 318 316 312 306 300 298 295 291 290 290
290 288 285 285 287 286 285 284 286 290 292 292 294 294 294 294 296 298 296 297 298 299 300 301 303 308 325 332 332 325 327 325 328 329 329 325 324 323 321 317 316 311 308 303 300 299 296 292 290
285 290 289 287 283 280 284 277 284 286 288 289 289 289 290 290 291 294 295 296 296 297 299 300 302 303 310 326 329 329 328 327 328 330 330 328 323 322 321 318 316 311 308 304 303 301 303 300 295
287 291 287 285 281 278 280 279 282 284 285 286 287 288 290 292 292 293 295 296 296 297 296 297 299 302 305 314 326 327 327 327 321 324 325 326 319 322 320 317 312 307 306 307 305 302 302 303 298
290 286 284 282 279 271 277 278 279 282 283 286 287 289 291 293 295 296 295 297 297 297 297 296 297 299 302 306 316 325 326 320 314 315 323 317 315 316 315 314 310 307 306 304 305 304 302 299 297
287 282 271 269 269 271 279 277 280 285 287 287 287 290 292 294 295 295 297 296 297 297 298 299 298 298 300 303 308 320 324 319 317 317 320 316 313 312 312 311 307 306 306 305 303 303 301 298 295
283 282 274 267 269 274 280 276 280 286 286 289 290 291 293 295 295 295 295 296 297 297 298 298 298 299 299 299 302 308 314 316 317 315 317 316 314 314 311 310 308 306 306 304 301 300 296 294 292
283 277 283 274 272 270 275 279 282 286 286 288 289 291 291 294 296 296 296 295 297 297 298 297 298 298 299 299 299 301 306 312 314 310 310 309 307 305 306 306 306 304 303 302 299 296 294 291 290
286 286 278 273 268 268 273 274 277 282 284 288 288 289 291 294 295 296 297 296 296 297 297 297 297 297 298 300 300 302 304 308 309 304 304 302 301 303 303 303 301 301 300 297 295 292 290 289 289
284 281 280 278 274 270 271 275 282 284 286 286 288 290 291 294 296 296 297 296 297 297 299 300 300 300 302 302 300 300 300 301 300 300 298 299 300 300 300 299 298 296 295 294 291 290 289 288 288
287 284 280 273 272 273 274 276 285 285 287 289 290 292 296 297 297 297 297 296 297 298 296 293 293 294 296 297 297 298 301 301 300 299 297 297 298 298 297 296 295 293 291 290 289 288 288 288 288

GFSSGP_sfc_thetae_063.txt.gz
Theta_e
332 324 320 314 303 300 295 297 301 301 302 306 307 307 308 310 313 310 335 344 344 346 353 356 359 359 360 359 357 357 356 354 351 349 347 347 347 346 346 345 344 343 343 343 347 346 345 344 341
328 321 315 307 298 293 294 299 299 303 306 306 305 306 311 313 325 330 336 344 346 350 353 354 358 359 359 359 358 357 356 353 351 348 346 345 344 344 345 342 339 338 342 344 346 346 345 343 337
323 317 311 305 296 293 294 298 302 303 305 305 306 309 310 315 326 332 339 345 348 351 353 355 357 359 359 358 357 356 354 352 350 347 346 343 341 341 340 339 339 343 344 345 345 346 344 340 336
318 314 308 299 295 297 298 301 301 303 305 306 306 305 315 325 327 336 345 347 349 351 353 355 357 358 357 356 356 355 353 351 349 347 345 342 340 338 339 339 343 346 346 346 346 345 341 337 336
312 308 299 296 297 299 300 302 303 303 304 305 305 305 309 326 338 342 346 347 347 349 352 354 356 356 355 354 353 352 352 352 349 345 344 341 339 337 338 339 342 344 344 343 342 341 340 338 336
306 305 295 294 296 300 302 305 304 303 303 305 304 305 314 333 337 341 345 346 347 346 352 352 352 353 354 353 352 352 352 352 349 346 344 341 339 337 337 339 340 341 341 341 341 340 339 337 337
304 300 296 294 297 298 301 304 303 304 303 304 308 307 315 327 338 341 342 345 346 346 350 351 351 350 349 350 350 351 351 351 349 347 345 343 340 337 336 338 340 340 339 339 339 338 336 337 336
304 302 295 295 295 296 302 302 304 303 303 307 309 305 308 324 339 340 341 343 343 344 348 348 348 348 347 346 346 346 345 345 347 345 342 339 336 337 336 337 339 340 339 338 336 336 337 337 336
304 297 292 295 295 298 301 300 305 306 304 305 307 309 317 329 338 337 337 337 340 341 345 347 346 346 346 344 344 344 343 342 342 341 337 335 336 335 334 333 336 339 338 337 336 336 338 337 335
301 295 295 299 301 299 302 303 305 305 304 305 306 313 328 333 334 333 332 333 336 337 340 343 344 344 344 342 343 343 342 341 340 340 339 338 337 335 334 332 336 339 338 338 337 338 336 332 331
300 295 299 301 302 304 303 303 306 304 303 305 305 308 323 330 332 332 332 333 334 337 340 341 341 343 342 341 340 339 340 339 339 338 338 338 337 337 335 334 335 337 333 336 337 337 334 331 325
297 300 301 303 305 304 302 304 303 304 306 307 309 309 312 327 329 330 332 334 335 336 337 339 340 340 341 340 338 337 336 336 336 337 337 336 335 337 337 333 334 335 336 335 336 333 327 328 318
298 300 302 304 304 303 304 302 302 303 307 308 308 309 309 310 320 327 331 333 335 335 337 339 340 339 340 338 337 336 335 335 335 336 336 336 335 335 336 336 333 333 334 333 333 329 321 321 313
301 302 301 302 302 303 300 300 301 303 305 305 305 307 308 309 310 310 318 331 335 336 335 338 338 338 339 338 337 336 335 335 335 335 336 335 334 334 334 335 334 331 332 331 331 326 316 314 309
300 297 299 300 300 300 301 297 297 303 304 304 304 305 306 308 309 309 311 315 330 337 339 338 338 338 338 338 337 337 336 334 333 334 335 334 334 333 333 333 333 332 331 329 328 319 311 307 305
297 297 291 298 300 300 300 291 299 302 302 302 303 303 303 306 308 310 310 311 312 323 336 340 340 338 337 338 338 338 337 336 334 333 333 333 333 333 332 332 333 333 331 328 324 316 309 306 305
295 288 290 294 300 299 298 292 299 301 300 300 301 301 302 303 305 307 308 309 310 311 318 334 339 340 337 337 338 337 336 337 337 335 332 331 332 332 331 331 332 332 330 326 321 311 309 305 304
288 287 290 291 295 296 294 293 297 299 298 299 299 301 301 301 303 307 308 308 309 310 310 316 335 339 339 337 336 336 335 335 337 337 335 332 330 330 330 330 330 330 327 324 317 311 305 306 304
292 289 288 291 294 292 291 290 293 295 295 295 297 298 299 301 304 305 306 307 308 307 307 309 315 332 338 336 332 332 332 334 334 336 335 332 330 328 328 328 328 327 325 321 317 309 304 300 300
292 289 288 291 292 291 289 288 293 295 295 296 297 298 297 298 299 300 302 304 304 307 307 307 309 318 334 336 335 334 335 334 335 335 334 334 331 328 327 327 326 324 323 319 312 307 302 300 300
291 289 287 288 289 289 287 287 289 292 293 293 294 294 295 294 294 295 298 301 303 303 304 306 307 310 324 336 336 333 334 332 333 332 332 332 332 329 328 326 325 323 322 317 312 308 307 300 297
289 292 290 288 287 284 287 282 287 288 288 290 292 293 294 295 296 296 298 299 300 301 302 304 306 307 312 329 333 332 329 328 331 332 333 332 330 329 328 326 325 322 320 317 312 308 308 306 300
289 292 289 286 284 284 284 282 285 287 286 288 291 293 295 296 297 298 298 300 300 301 301 301 302 305 307 316 330 331 330 331 332 332 331 331 328 328 327 326 324 322 318 317 311 308 306 307 304
291 287 285 283 282 277 280 281 282 285 287 289 291 294 295 297 298 299 300 301 301 303 303 304 302 302 304 307 317 329 329 330 327 327 329 330 327 325 325 324 323 321 318 315 312 312 308 307 305
289 285 276 274 275 276 281 279 283 287 289 291 292 294 295 297 299 300 299 300 302 302 303 303 302 303 303 304 307 315 327 329 326 327 326 327 320 319 321 321 319 318 316 314 312 310 308 306 304
285 286 278 272 273 275 281 278 283 287 288 292 293 293 294 297 299 300 300 299 300 302 303 302 301 301 302 303 304 307 313 323 325 325 324 326 324 322 322 318 318 315 313 312 310 309 307 304 302
285 282 283 275 275 274 278 281 286 288 290 291 292 293 294 297 298 299 300 301 300 301 302 302 302 302 302 303 304 305 305 309 316 321 320 323 321 317 318 316 312 312 311 310 308 306 302 299 295
287 287 280 276 270 273 275 276 280 285 288 290 291 292 294 297 299 299 300 300 300 301 302 303 302 303 304 305 306 306 307 308 310 314 314 314 312 311 311 310 308 307 306 305 303 300 295 292 291
285 282 280 280 277 274 273 277 283 286 289 289 291 292 295 298 299 299 299 300 301 301 299 297 297 299 301 302 302 303 303 304 306 307 307 307 307 307 307 305 304 302 300 298 295 293 291 289 289
287 284 281 275 274 275 275 278 287 287 289 289 290 293 298 298 298 297 297 299 300 297 295 294 295 297 298 299 300 301 303 304 304 303 302 303 303 303 302 301 299 297 295 293 291 290 289 288 288

GFSSGP_sfc_thetae_066.txt.gz
Theta_e
336 333 329 322 307 305 301 302 307 306 307 311 312 311 312 314 314 313 340 346 344 347 354 356 359 359 360 360 359 358 357 354 352 351 349 349 348 346 347 346 345 343 344 347 347 346 344 342 338
335 325 323 317 302 298 300 306 304 308 310 312 311 311 311 314 326 333 339 346 346 351 353 354 358 360 359 358 358 357 356 353 351 349 347 346 346 347 346 344 340 341 343 343 346 346 344 339 338
330 324 315 308 303 298 300 306 307 309 311 310 311 314 315 317 329 336 343 347 348 351 354 355 358 360 359 358 358 357 356 353 351 349 347 344 343 344 342 340 338 340 346 345 347 346 342 337 338
322 319 315 304 301 304 305 306 307 308 310 311 311 310 318 331 331 340 347 347 348 351 354 355 358 359 359 358 357 356 355 353 350 347 345 341 340 340 339 338 345 347 346 345 346 344 338 337 339
321 316 305 302 303 306 308 309 309 308 308 309 310 309 312 332 341 345 347 348 348 350 352 355 358 358 358 357 356 354 353 352 349 346 344 340 338 338 339 338 345 345 346 346 344 341 339 337 339
311 313 302 299 302 307 308 311 310 309 309 309 308 310 315 337 341 345 348 348 350 349 351 353 354 355 355 355 354 352 351 351 349 346 344 342 338 338 338 339 344 344 344 343 342 340 339 337 338
308 306 301 302 302 304 307 312 309 309 309 309 311 308 317 332 343 344 348 349 350 350 349 349 353 351 350 350 350 350 350 351 349 348 346 342 341 339 338 339 339 341 342 341 340 340 337 337 337
309 307 301 302 300 301 309 309 311 310 309 313 313 308 311 329 343 343 343 347 348 347 349 349 349 350 349 347 347 347 348 349 347 345 343 339 337 338 337 340 341 340 340 339 337 336 337 337 336
311 301 297 300 300 302 307 306 310 311 309 310 312 313 321 330 340 340 340 342 341 343 347 348 348 348 346 345 345 345 343 344 344 341 337 334 335 334 334 335 338 340 339 337 336 337 338 337 335
304 299 299 303 304 303 304 306 307 307 307 308 311 317 328 333 337 336 334 334 337 339 342 346 347 345 345 343 344 346 343 343 341 342 339 339 334 333 331 332 336 339 339 338 337 339 336 334 333
304 299 303 304 305 306 304 306 310 307 306 309 309 314 326 330 333 334 334 336 336 339 341 343 345 346 344 343 342 341 341 340 339 340 340 338 335 334 332 334 335 336 333 334 336 337 334 333 332
300 304 304 305 307 306 305 308 307 309 309 312 315 315 318 329 330 333 333 336 337 339 340 342 344 344 345 343 341 338 338 338 337 338 338 337 335 336 334 331 333 334 333 333 335 334 334 334 330
302 303 305 305 306 306 307 306 306 308 312 313 313 313 314 319 331 333 334 336 337 338 339 341 342 341 345 344 342 338 336 336 336 337 338 336 335 335 337 336 333 332 333 333 334 333 331 332 328
305 305 304 305 305 305 303 304 305 307 312 311 312 312 314 314 317 330 335 335 336 337 339 341 341 341 343 344 343 340 338 337 335 335 336 336 335 335 337 337 336 333 332 333 333 332 330 329 325
304 300 303 304 303 302 305 300 301 308 309 308 309 310 311 313 315 316 321 330 338 341 342 342 341 341 341 344 344 342 340 337 336 336 336 336 337 338 337 337 337 337 332 332 332 332 329 324 321
301 300 294 301 302 303 302 293 301 306 307 306 307 308 309 311 313 315 317 318 320 328 337 343 343 342 342 341 344 343 342 340 338 337 336 336 336 337 337 335 335 337 336 332 330 329 325 322 317
297 291 293 296 303 301 300 295 301 305 305 305 307 308 308 309 311 313 315 317 318 319 321 329 339 342 342 342 342 342 343 341 340 339 337 336 336 336 336 335 335 336 335 333 330 328 326 321 317
291 291 293 293 299 300 297 296 301 304 303 305 306 307 308 308 310 313 314 315 316 318 319 319 326 336 341 340 340 339 338 339 342 341 339 338 336 336 335 334 334 334 334 332 332 325 323 322 319
296 294 292 295 297 299 298 298 299 303 304 303 304 305 306 307 310 311 312 314 314 315 316 317 318 325 335 339 335 334 334 335 336 339 342 340 338 336 335 334 333 333 332 333 332 326 320 315 316
295 293 292 293 298 296 295 295 298 301 301 302 303 304 305 305 306 307 307 309 310 312 315 316 317 318 324 334 338 339 338 338 337 337 337 339 338 337 335 334 334 332 330 331 331 326 318 318 312
295 293 292 292 293 294 293 293 296 296 296 297 298 300 301 301 301 303 304 305 307 309 311 313 315 315 318 325 333 336 337 338 336 335 335 336 336 338 336 335 335 334 331 330 330 326 319 314 310
289 296 295 292 292 288 292 287 291 292 293 297 299 301 302 303 304 305 305 306 306 307 308 309 310 312 314 319 326 331 330 330 332 335 337 338 335 334 336 336 335 334 332 329 329 325 321 319 310
291 296 294 293 290 290 289 288 289 292 292 295 299 301 303 304 304 305 306 307 308 309 309 308 308 309 312 313 320 328 329 330 333 335 335 336 335 333 331 332 333 332 331 329 327 322 319 320 316
293 290 290 291 290 284 288 287 287 289 292 295 298 301 303 305 306 306 307 309 310 312 311 311 309 307 308 311 314 321 325 328 330 332 332 334 334 331 330 329 329 330 329 327 327 324 320 317 318
291 290 283 282 282 283 285 284 288 292 293 297 298 301 303 306 307 307 307 307 309 311 311 310 310 308 309 309 310 312 319 326 328 329 330 331 329 328 327 328 327 326 326 326 325 322 319 317 316
290 290 285 278 280 282 285 283 288 292 295 298 298 299 302 305 306 307 307 308 308 309 310 311 311 310 309 309 309 311 314 316 324 328 329 329 330 329 327 326 326 324 324 322 321 320 319 317 316
289 288 288 283 281 283 285 286 290 293 293 296 297 299 302 304 305 306 307 308 307 308 309 309 308 310 311 312 312 311 312 312 314 320 325 326 328 327 327 324 322 321 318 317 315 315 314 313 310
292 292 285 286 279 278 281 283 286 289 292 295 297 298 300 304 305 305 305 306 308 308 308 307 306 307 308 310 311 311 313 314 315 316 317 319 321 321 319 320 317 315 313 312 311 308 309 302 299
288 288 286 287 284 282 280 283 293 293 295 294 296 297 301 303 304 303 304 305 306 305 304 303 303 304 306 307 308 308 309 310 312 312 312 313 313 313 314 313 311 309 307 307 304 299 296 294 292
291 289 288 285 281 283 283 284 292 296 295 294 295 297 302 303 301 302 304 305 303 301 301 301 301 302 304 306 308 308 309 310 310 309 309 309 309 309 309 307 306 304 301 298 294 293 291 290 289

GFSSGP_sfc_thetae_069.txt.gz
Theta_e
335 335 330 322 307 306 302 305 309 307 308 313 314 312 311 315 312 313 341 345 344 350 354 356 359 360 360 359 359 358 357 355 353 352 349 348 347 346 345 344 343 344 347 346 346 344 343 339 339
332 331 324 316 303 299 301 308 306 308 312 313 314 313 312 312 324 335 339 346 346 350 352 353 358 360 360 359 358 357 355 354 352 351 349 348 348 347 347 344 342 342 342 346 346 345 341 339 338
333 328 315 309 304 299 301 308 309 310 313 312 312 316 317 317 331 336 345 345 346 350 351 354 358 359 359 358 358 357 356 353 351 349 348 345 345 347 343 339 338 339 343 346 346 344 338 339 338
326 319 316 305 301 305 306 309 310 310 311 313 313 311 319 332 333 341 346 345 347 349 352 355 358 359 358 358 357 356 356 352 350 348 345 342 341 341 338 337 343 346 347 347 346 342 338 339 340
323 316 305 303 304 308 310 311 310 308 310 311 312 311 315 335 341 345 345 345 346 348 355 354 358 359 358 358 356 355 353 353 350 347 343 339 339 339 339 343 346 346 346 347 344 339 338 340 340
312 314 303 300 303 308 311 313 310 309 311 311 310 311 318 338 341 345 346 346 348 348 352 351 354 356 357 356 356 354 351 351 350 348 343 339 338 338 339 342 346 346 345 344 342 341 338 338 339
308 306 303 303 303 306 309 314 310 309 310 310 313 309 321 335 343 346 346 348 347 349 350 351 351 352 352 352 352 350 349 350 349 347 346 342 341 339 339 340 343 344 344 342 341 340 338 337 338
310 308 302 303 302 303 311 312 313 311 309 315 314 308 312 335 344 345 346 346 346 348 348 347 348 348 349 347 348 347 348 347 347 345 342 339 337 338 339 340 341 342 341 340 339 338 337 337 337
312 301 299 302 302 304 310 309 313 315 312 312 314 313 324 338 342 342 343 343 345 345 346 348 348 347 347 346 344 345 345 345 343 341 337 334 334 333 334 337 339 341 340 338 337 337 338 338 336
305 299 300 306 307 306 308 308 310 309 308 309 311 315 326 332 338 337 337 339 340 341 344 345 345 344 343 342 345 344 344 345 345 342 338 338 333 331 329 333 337 340 339 339 337 339 338 335 331
305 299 304 304 306 307 306 305 310 307 305 309 309 312 321 326 333 335 336 336 336 339 344 345 344 344 341 341 341 341 342 340 340 341 340 337 333 332 331 332 334 336 334 334 335 337 334 332 331
301 304 305 306 307 305 304 306 306 308 309 313 314 317 320 326 328 334 335 337 338 338 340 342 344 343 342 341 339 339 339 339 337 338 339 337 333 333 329 330 331 333 332 331 332 333 332 332 331
303 304 305 307 307 307 307 305 305 308 313 314 316 315 315 321 329 333 336 338 340 339 340 341 343 343 343 341 341 338 336 336 336 337 337 337 334 333 333 330 330 332 332 331 332 333 332 331 330
306 305 304 306 305 307 304 304 306 309 313 312 313 313 315 316 319 331 334 335 337 339 340 341 341 341 343 343 343 341 338 337 336 335 336 336 335 334 335 335 332 331 331 331 332 332 331 330 329
305 300 303 303 304 303 305 301 302 309 311 310 311 311 312 314 316 318 330 335 337 339 340 342 342 342 342 343 343 343 341 338 337 335 335 335 335 335 334 336 336 335 332 330 331 331 330 328 326
300 299 294 302 303 304 302 294 303 308 307 307 309 310 310 311 313 316 319 324 331 338 340 342 342 343 342 341 344 343 343 341 339 337 336 335 334 335 336 335 335 336 335 330 330 330 328 326 323
297 291 293 296 303 302 300 295 302 306 306 305 307 308 308 309 311 313 316 320 322 323 328 337 343 342 343 343 343 345 344 342 341 339 338 336 335 335 335 335 335 335 335 332 330 329 328 325 323
291 292 294 293 299 300 298 297 301 304 304 304 306 308 308 308 309 312 313 316 318 320 322 322 328 337 343 344 342 342 343 344 343 341 340 338 337 336 336 336 335 335 334 332 332 329 328 326 323
296 294 293 296 300 298 297 297 299 302 303 303 305 306 307 308 311 312 314 315 316 317 318 319 320 322 331 336 338 337 335 338 341 343 342 341 339 337 337 336 335 335 333 332 330 331 326 324 325
295 293 293 296 299 297 297 296 300 302 302 303 304 305 305 307 308 310 311 312 313 314 316 317 318 319 321 329 339 337 336 335 337 339 341 342 341 340 337 336 335 335 333 333 330 328 326 323 322
295 293 293 293 296 297 295 293 296 300 302 303 303 304 305 305 305 306 307 308 310 311 313 315 317 318 320 322 328 338 338 340 338 336 336 336 340 342 340 337 336 335 334 331 332 329 327 319 318
291 298 296 294 291 286 294 285 294 298 296 297 300 302 303 304 305 306 306 307 308 309 311 312 314 315 317 320 320 325 331 331 334 336 337 336 337 337 337 338 336 335 334 332 331 331 329 322 316
293 298 297 295 292 292 290 287 292 294 293 296 300 302 304 305 306 306 307 309 310 312 312 311 310 311 313 314 316 320 324 330 332 332 332 335 338 337 334 334 334 334 333 333 331 330 329 323 319
296 296 294 294 292 285 291 289 287 291 294 297 300 302 304 305 307 307 309 311 312 314 313 313 311 309 310 312 313 316 321 326 328 329 330 331 334 337 334 332 332 331 330 330 329 329 328 324 323
293 290 283 282 282 284 290 287 290 293 297 298 299 302 305 307 308 308 308 309 310 312 313 313 312 310 311 311 311 313 316 322 325 327 328 328 330 332 332 332 330 328 328 329 328 327 324 322 321
290 289 286 280 282 284 287 284 290 295 298 300 302 303 305 306 308 308 309 310 310 311 312 312 312 312 312 312 311 312 313 314 317 322 326 328 328 330 332 329 328 328 327 326 325 323 322 320 320
289 287 291 285 286 285 286 289 292 293 295 298 299 301 304 306 307 307 308 310 310 310 310 309 309 310 311 312 313 313 313 313 313 316 320 323 326 327 327 326 325 325 324 323 321 319 317 316 316
292 293 286 288 280 280 284 286 287 289 292 296 298 300 303 305 306 306 307 307 309 309 308 308 308 308 309 310 311 311 313 313 314 316 316 317 319 320 320 317 319 318 316 316 315 313 312 310 301
290 289 288 288 286 283 280 284 295 292 295 296 298 299 302 304 305 305 306 308 307 306 306 305 305 306 307 308 310 310 311 311 312 313 313 313 313 314 314 313 314 313 311 311 307 302 300 296 295
293 291 291 286 283 285 285 284 296 297 297 297 298 299 303 304 303 304 306 305 304 303 304 303 303 304 305 307 309 309 309 310 309 309 309 309 309 310 309 310 309 307 305 302 299 297 294 293 292

GFSSGP_sfc_thetae_072.txt.gz
Theta_e
331 329 328 322 304 302 298 301 305 303 303 307 309 306 306 308 316 312 334 339 350 349 354 357 360 360 360 360 359 358 358 357 356 353 351 350 348 347 346 345 345 348 347 346 346 344 341 340 339
330 328 324 313 300 294 296 304 304 305 308 308 307 307 306 308 330 332 334 342 349 350 351 354 359 360 360 359 358 357 357 355 354 352 351 349 348 348 347 345 344 344 346 347 346 342 341 339 338
329 330 315 305 300 295 297 304 305 308 309 307 305 309 309 317 329 334 341 342 348 347 348 354 358 359 359 359 358 357 356 354 353 351 349 347 349 347 343 340 340 344 347 347 346 341 340 339 340
324 319 314 302 298 302 303 305 306 307 308 307 307 305 318 330 331 338 341 341 345 345 351 355 358 359 358 358 357 357 355 353 351 348 346 345 344 342 340 340 345 347 349 348 344 341 340 340 340
321 314 302 299 300 304 307 309 306 304 306 307 306 305 319 331 338 340 339 342 343 348 351 354 358 359 358 358 356 355 355 353 351 348 341 339 341 340 342 344 347 348 348 347 342 340 340 341 340
311 310 298 296 300 305 308 309 307 304 305 307 304 305 321 334 337 338 340 340 347 349 349 352 354 356 357 356 355 354 352 351 350 344 341 340 339 340 341 345 348 347 347 344 342 340 341 340 339
308 304 298 300 300 303 307 312 306 304 303 305 306 302 323 332 338 339 339 341 348 348 348 349 351 353 352 353 353 351 350 349 348 347 345 343 341 341 342 345 347 345 345 344 342 340 339 339 338
309 305 300 301 300 301 309 310 310 307 305 310 308 301 316 332 339 340 341 340 345 347 347 347 347 349 349 349 348 347 348 346 346 345 342 338 337 338 341 340 344 345 344 343 341 339 338 338 337
311 298 295 298 300 303 308 308 311 312 307 308 308 308 328 338 339 337 336 337 339 344 344 346 344 345 346 343 344 345 345 344 343 340 336 334 330 331 333 334 339 342 342 340 338 338 339 338 336
304 296 297 304 305 305 306 307 308 306 305 305 305 318 327 336 334 333 334 334 336 337 342 343 343 341 342 343 340 340 343 342 341 338 332 332 328 326 330 333 337 340 340 339 339 339 339 335 328
304 298 302 303 306 306 305 304 308 306 302 305 304 309 319 330 331 331 331 334 336 334 339 343 343 341 337 339 338 338 340 341 340 337 333 333 328 325 327 329 331 331 332 332 334 335 332 328 326
299 303 304 305 307 305 302 304 303 304 304 309 307 309 319 319 326 331 331 332 335 337 337 339 341 336 335 335 334 335 336 334 332 337 335 332 326 324 323 326 327 329 330 328 327 329 328 326 326
302 302 304 306 306 305 305 302 301 302 307 310 313 313 311 318 321 328 333 334 335 336 338 338 339 337 335 334 333 331 332 332 331 332 334 331 327 325 322 324 326 326 327 325 326 326 327 325 324
305 305 304 304 304 305 303 302 303 303 307 307 310 308 308 309 314 326 330 331 332 335 337 339 339 339 337 334 334 333 330 330 330 330 331 331 329 327 326 324 323 325 325 324 326 325 325 324 323
304 300 302 301 303 302 304 299 300 305 308 305 306 306 308 310 311 311 329 330 332 333 337 337 340 340 337 337 339 336 334 332 330 329 330 331 329 328 328 328 327 326 324 324 324 325 324 322 323
299 299 294 301 302 302 301 293 302 306 305 304 305 305 306 307 308 311 313 324 333 334 335 337 341 339 339 337 338 337 337 333 332 330 329 330 329 329 327 328 329 330 329 324 322 322 322 320 319
296 290 291 294 302 300 298 294 300 305 304 303 303 303 303 305 306 309 311 312 315 321 331 335 339 338 338 339 338 341 338 336 334 333 330 330 330 329 329 329 329 330 328 326 323 321 321 318 315
288 289 291 291 298 299 296 295 299 301 301 301 302 303 303 303 304 306 308 310 311 315 316 318 331 338 339 339 339 338 338 339 338 334 333 332 330 329 329 329 329 328 327 326 325 321 321 318 316
295 293 291 294 298 297 296 296 298 300 299 300 301 300 301 303 305 306 307 306 308 311 313 313 315 319 332 338 333 333 336 334 335 336 336 334 332 330 329 329 328 328 326 327 326 323 320 317 316
295 292 291 295 298 295 295 294 298 300 299 300 301 301 301 301 303 304 306 304 307 308 309 310 312 314 316 323 336 334 334 334 336 332 335 337 334 332 330 329 329 327 326 325 326 325 323 318 317
292 290 291 292 295 292 290 290 295 298 300 300 302 301 300 300 300 301 302 303 304 304 305 308 311 311 313 315 321 333 332 330 329 331 335 335 334 334 332 329 329 327 327 325 326 325 324 320 314
289 295 295 294 289 283 291 281 291 296 297 299 296 297 298 298 300 302 303 303 304 305 306 306 307 307 310 312 312 318 330 327 330 331 332 332 334 334 333 332 330 328 327 326 324 326 325 321 315
291 297 296 294 289 287 286 281 289 294 293 293 294 297 299 300 301 302 303 306 307 307 306 306 305 306 307 308 309 309 310 318 326 327 329 329 330 331 331 332 327 331 330 329 328 325 325 325 319
295 292 294 293 289 281 286 283 283 288 291 293 296 299 300 300 301 304 306 308 308 309 308 307 306 305 305 305 306 307 307 310 316 321 320 322 324 330 330 330 330 330 328 328 328 327 324 322 321
290 287 282 281 280 277 289 284 286 292 295 296 296 298 301 302 302 303 303 304 306 306 308 309 309 306 306 306 305 305 306 309 312 317 319 321 321 324 326 327 328 327 328 327 327 326 324 323 320
287 289 284 277 276 278 286 279 284 292 297 299 299 301 302 302 303 304 304 304 305 306 306 305 306 307 308 308 308 306 305 306 308 309 313 318 320 321 324 324 326 326 326 326 325 323 322 321 320
289 286 290 283 283 277 280 283 287 289 294 296 297 299 301 302 303 303 303 304 305 305 304 303 304 305 306 306 306 306 307 308 308 309 309 312 316 319 317 318 319 322 322 322 321 320 318 317 316
292 294 283 285 278 276 279 280 281 285 290 294 295 296 300 302 303 302 302 303 304 303 302 302 302 303 304 305 305 306 306 307 308 308 308 308 309 310 310 311 312 313 314 314 315 313 311 307 303
288 286 287 286 283 278 274 278 288 288 291 292 295 297 300 301 301 301 303 303 302 301 300 300 300 301 302 303 305 304 305 306 306 305 305 305 306 306 306 308 310 309 308 308 304 302 300 297 296
291 291 289 279 278 281 279 277 291 291 293 295 295 297 300 301 300 302 302 300 299 298 298 297 298 299 300 302 302 300 301 300 298 297 298 300 298 298 297 300 299 298 297 298 298 296 296 294 292

GFSSGP_sfc_thetae_075.txt.gz
Theta_e
332 327 322 315 299 296 292 297 299 300 300 302 304 304 302 305 316 308 332 346 350 352 356 358 360 360 361 360 360 359 358 357 357 354 353 351 350 348 347 348 349 348 347 346 344 343 340 339 338
328 327 319 308 295 289 292 298 299 302 304 304 306 304 306 318 328 329 335 349 351 353 355 356 359 360 360 360 359 358 358 357 355 354 351 350 348 348 348 345 345 348 348 346 343 341 339 339 337
329 328 312 301 296 291 292 300 299 304 306 305 303 305 308 317 329 330 339 349 351 350 353 356 358 359 359 358 358 357 357 356 355 354 352 350 350 346 342 341 343 347 348 346 342 341 340 340 337
320 315 311 298 295 298 300 302 303 303 304 306 305 302 322 328 331 337 342 348 347 347 351 356 358 359 358 357 357 357 355 355 352 350 348 348 345 341 340 343 345 349 348 347 342 341 341 340 339
317 311 300 296 296 301 305 305 305 302 303 303 305 305 318 330 336 337 339 345 343 347 352 355 358 358 358 357 357 355 355 353 351 347 342 342 341 342 342 343 348 349 348 345 343 342 341 340 339
307 310 296 292 296 302 306 309 304 302 302 303 303 310 319 331 333 335 339 344 348 348 351 354 354 356 357 357 355 354 353 350 349 345 341 341 341 342 344 344 347 349 346 343 342 342 341 340 338
305 302 297 297 297 300 305 311 304 301 300 302 305 307 319 328 333 336 343 347 347 349 350 352 353 353 352 353 353 352 350 349 347 346 344 342 343 343 344 346 348 347 345 345 342 341 341 339 338
307 304 299 298 298 300 308 310 310 304 301 306 306 308 319 330 335 336 345 345 345 346 348 347 349 351 351 350 348 347 347 346 345 344 341 338 338 340 343 344 345 346 346 343 342 340 339 339 337
311 298 296 299 299 302 310 307 312 309 305 306 305 322 330 336 337 334 339 341 342 343 344 345 345 345 347 347 345 345 344 343 342 339 336 334 330 333 333 336 341 343 344 342 340 339 340 339 337
301 295 297 304 304 303 306 308 309 308 304 302 315 330 333 334 333 332 332 332 337 339 341 343 342 342 343 344 341 339 341 339 338 335 331 330 327 327 332 332 338 342 340 340 340 340 339 335 328
302 296 302 303 305 305 305 306 310 307 302 303 310 326 330 331 329 330 332 333 334 336 340 341 339 342 340 339 337 337 338 338 337 333 330 330 328 324 328 329 331 331 331 332 335 335 331 327 324
298 303 304 305 306 305 301 304 306 308 303 309 306 316 326 328 329 328 329 330 331 334 335 339 340 340 335 338 336 337 337 338 336 334 332 329 322 323 327 326 327 328 328 327 328 328 327 326 325
299 302 305 306 306 303 304 301 302 302 304 310 310 314 317 322 327 330 331 331 331 333 335 336 337 337 335 337 335 335 336 336 335 336 334 330 323 322 324 324 326 326 327 326 325 326 326 324 323
301 303 304 304 303 304 302 301 302 302 305 306 308 307 307 312 321 327 330 330 330 333 334 337 337 337 334 331 330 329 330 333 329 334 334 330 326 324 322 322 323 325 326 325 325 323 324 323 322
301 297 301 302 301 300 303 298 300 304 305 303 302 303 306 307 314 324 329 330 330 331 334 334 337 338 335 335 332 331 328 329 328 327 329 329 327 325 324 322 322 324 324 322 323 323 322 321 322
298 296 292 300 300 301 300 292 301 305 302 302 301 302 303 305 309 310 324 329 331 331 335 336 339 337 336 335 336 337 332 329 327 327 327 329 328 326 325 325 324 324 323 321 320 320 320 319 318
293 289 290 295 301 298 296 292 300 304 302 300 301 303 301 302 304 307 310 318 327 330 332 336 337 336 336 335 335 336 339 331 329 328 327 327 328 327 325 325 327 327 326 324 321 319 320 317 315
286 287 290 289 297 296 294 294 299 301 301 300 300 301 301 301 303 306 308 310 311 318 329 332 336 336 335 335 335 334 336 340 336 331 328 328 328 327 326 326 326 327 325 324 321 319 319 317 316
291 290 288 292 296 294 293 294 297 299 298 298 298 299 300 302 303 304 305 305 305 306 310 314 323 337 336 333 330 330 332 332 333 334 333 330 329 328 326 327 326 325 326 326 324 320 318 316 314
292 289 288 291 296 296 292 293 297 299 298 298 300 300 300 298 300 301 303 302 304 304 305 307 309 312 328 337 335 331 330 331 332 332 334 336 334 329 328 327 327 326 324 324 324 322 318 317 314
291 288 288 289 292 294 291 288 292 298 299 299 301 301 300 299 299 299 301 302 303 303 303 305 305 307 309 313 332 330 331 328 328 329 331 332 333 333 331 327 326 327 326 324 324 324 320 318 315
289 294 294 293 289 283 288 279 286 293 297 297 298 299 298 298 299 300 301 302 304 304 304 305 305 305 306 306 310 328 327 327 326 327 330 330 331 330 330 329 328 325 324 323 323 325 324 318 315
289 296 294 294 291 284 285 280 283 290 293 296 295 294 296 298 300 301 302 305 306 306 305 305 304 304 304 304 305 306 310 316 324 328 328 329 328 329 329 329 327 327 325 324 322 322 322 322 320
295 292 293 292 289 281 283 281 280 286 292 293 294 294 297 299 301 303 304 307 307 307 307 306 304 304 305 304 303 304 304 304 307 314 322 325 325 326 327 327 330 328 326 327 328 327 324 325 324
292 287 282 280 281 276 285 281 283 288 292 294 294 296 297 298 300 302 303 304 305 305 305 306 306 306 306 306 306 303 302 303 305 309 314 318 319 319 324 326 325 325 325 327 326 325 324 322 322
288 288 283 277 274 277 285 279 285 289 293 297 298 299 299 299 300 302 303 303 304 304 303 303 304 304 305 305 305 306 305 304 305 306 308 312 315 318 319 321 322 325 325 325 324 322 322 322 321
289 285 290 282 280 277 280 281 287 290 292 295 298 300 298 300 301 302 302 303 303 302 301 301 302 302 303 304 305 305 305 306 306 307 307 308 310 314 312 315 318 319 319 319 318 318 318 317 314
292 293 284 282 276 274 277 277 280 284 289 293 295 297 299 300 300 300 301 301 301 300 300 300 301 301 302 304 304 304 304 305 305 304 304 305 305 306 307 307 307 307 308 311 311 310 308 308 303
288 287 287 286 283 277 272 277 285 287 291 291 293 297 300 300 299 299 300 300 299 298 297 297 298 300 300 302 300 299 298 298 298 298 298 298 298 298 301 303 303 302 303 303 302 300 300 298 296
293 290 288 278 278 280 276 279 289 288 291 292 293 297 299 299 299 300 299 298 296 295 295 294 296 297 298 298 297 296 295 294 293 292 292 292 291 291 292 294 293 292 292 293 296 296 295 294 293

GFSSGP_sfc_thetae_078.txt.gz
Theta_e
333 327 320 312 298 295 291 295 297 299 298 301 302 303 304 308 312 304 332 343 350 352 356 357 360 361 361 360 359 358 358 357 356 354 354 352 351 350 350 349 348 347 345 344 343 340 339 337 337
329 327 317 306 294 289 291 296 299 301 303 303 304 303 311 318 325 334 337 348 351 353 355 356 359 360 360 360 359 358 358 357 356 354 351 349 348 348 346 347 348 348 346 344 341 339 338 337 338
330 325 310 302 294 290 292 297 297 303 304 304 303 305 314 318 327 333 344 349 351 351 354 355 358 359 359 358 358 358 358 357 356 354 353 351 349 346 344 345 347 349 346 343 341 340 338 337 338
318 314 307 299 294 298 298 299 302 304 304 304 304 312 322 328 329 338 348 350 349 350 352 355 358 359 358 358 358 357 357 356 354 353 352 348 345 342 341 342 348 349 347 344 341 341 339 338 338
315 311 297 293 295 300 304 303 304 302 301 302 302 310 318 331 335 346 347 348 346 348 352 355 357 358 357 357 356 355 354 353 351 349 348 345 342 341 341 344 347 348 346 344 342 341 340 338 338
304 306 296 291 294 301 304 306 305 303 302 302 305 316 317 329 332 344 345 344 348 348 352 354 353 355 356 356 355 354 352 349 347 344 342 342 342 343 342 346 347 348 344 344 342 342 340 338 338
302 298 293 294 295 299 303 310 304 303 300 301 304 313 320 327 332 341 342 345 348 349 350 351 353 352 352 353 352 353 350 347 346 344 343 343 343 344 342 345 349 348 345 345 343 342 340 338 337
305 300 295 295 296 297 305 308 308 306 302 305 317 316 318 327 335 343 344 344 346 347 349 349 349 351 350 349 348 348 346 345 345 344 341 339 339 342 343 344 347 346 345 344 343 342 340 338 337
308 295 295 296 298 300 307 306 310 312 306 306 309 321 328 334 340 339 340 342 343 346 346 348 348 348 347 348 345 345 343 342 341 339 336 334 331 334 336 338 342 345 345 343 341 341 341 339 337
305 293 296 303 304 302 306 308 308 306 306 306 320 329 332 333 336 335 336 336 337 338 342 345 345 345 346 345 343 340 340 337 335 333 331 329 328 330 331 335 339 343 342 341 341 340 340 335 327
303 296 301 303 307 305 306 306 309 306 303 306 318 326 328 330 329 330 334 336 336 338 340 342 342 342 339 341 337 336 336 334 334 331 329 327 326 325 327 328 333 333 332 332 335 334 330 325 322
297 301 301 304 306 305 304 306 305 307 307 309 310 328 327 327 329 329 330 333 333 336 336 338 340 340 336 338 336 336 336 334 332 331 329 327 323 321 324 326 327 327 327 327 328 328 326 325 324
298 300 303 305 305 304 305 303 302 306 311 309 310 325 325 325 325 327 330 331 332 333 334 336 337 335 336 335 336 335 335 335 335 333 331 328 322 321 324 325 325 325 326 325 325 325 324 323 323
302 302 302 303 303 304 301 302 302 308 312 306 308 313 321 324 326 326 328 329 330 332 334 335 336 334 335 335 334 334 335 336 334 334 333 329 324 322 324 323 325 325 325 325 324 323 324 322 322
300 296 299 301 301 301 302 298 299 303 305 304 304 304 306 313 324 326 329 329 330 330 333 335 336 336 331 330 331 331 332 334 331 335 334 330 325 322 322 322 321 324 324 325 323 323 322 322 321
295 296 289 297 299 301 301 292 301 305 303 302 303 302 301 305 322 325 329 329 330 332 331 333 338 336 333 333 334 332 328 331 329 330 333 330 326 324 321 321 321 322 322 322 320 321 319 319 319
292 285 288 293 299 298 297 293 300 304 302 301 301 301 301 301 303 307 323 327 328 329 332 333 334 335 334 334 334 335 336 327 326 326 327 328 328 326 325 323 322 321 322 321 321 318 318 317 316
287 288 287 287 295 295 293 293 298 300 300 299 300 299 300 301 303 305 306 319 325 327 331 333 334 334 333 333 333 333 334 335 330 327 325 326 327 326 325 324 324 325 323 322 319 317 317 317 316
290 289 290 290 295 293 292 293 297 300 298 297 299 299 300 301 302 303 303 305 304 311 325 330 332 334 332 331 329 328 329 331 332 330 329 326 326 326 325 324 324 325 325 325 323 319 317 315 314
292 288 286 290 295 293 293 293 296 298 298 297 298 299 300 299 298 300 302 300 303 303 306 310 314 326 333 332 331 331 330 329 331 332 332 332 328 326 325 324 325 325 323 323 322 321 316 316 313
290 287 286 287 291 291 290 290 293 296 299 298 299 300 301 299 298 297 299 301 301 302 302 304 305 306 311 326 331 329 329 327 327 328 329 332 332 331 327 325 324 324 324 324 323 323 320 320 314
287 294 293 292 286 282 289 280 287 294 295 298 297 297 298 297 297 298 300 301 302 303 303 303 304 304 305 306 318 328 329 327 326 326 327 328 329 329 330 329 327 324 323 322 322 323 322 317 315
289 296 293 292 288 286 284 282 284 288 291 295 299 299 297 296 298 299 301 304 304 305 304 303 302 302 302 303 305 314 319 321 322 324 325 326 326 328 328 328 326 325 323 322 321 323 322 322 322
295 293 293 293 290 282 283 283 280 284 289 293 298 297 295 296 299 301 303 305 305 305 305 303 305 305 305 302 301 303 303 304 305 308 316 322 325 325 326 325 324 325 326 325 323 321 323 323 323
291 288 280 279 281 276 284 282 286 286 290 292 295 294 296 298 299 301 303 304 304 304 303 305 305 304 305 304 304 302 301 301 304 306 310 315 317 319 325 323 323 322 322 324 325 325 324 322 321
289 284 275 272 275 276 284 279 284 287 290 292 294 296 297 297 298 300 302 303 303 302 302 303 303 303 304 304 304 304 305 305 305 305 308 311 315 317 317 319 320 321 325 324 323 322 321 320 320
289 286 289 278 278 273 279 282 287 289 289 292 294 296 296 298 300 300 300 301 301 300 300 301 301 302 303 304 304 303 304 304 304 304 305 306 308 312 311 312 312 313 314 316 317 313 311 313 309
292 292 284 284 277 273 276 277 281 284 288 292 294 294 297 300 299 299 300 299 299 299 299 299 300 300 301 302 301 301 300 301 300 301 300 301 301 305 306 305 305 304 306 306 305 302 304 304 301
289 287 287 285 280 274 271 277 285 287 291 292 293 296 297 299 299 299 299 298 297 296 296 297 298 299 299 298 296 294 293 293 293 293 293 293 294 296 298 299 297 297 298 302 301 300 300 298 297
292 288 287 275 278 274 274 278 287 287 291 293 294 297 298 298 299 299 297 296 295 294 294 294 295 297 296 295 294 293 292 292 291 290 290 291 290 290 291 291 290 290 291 292 296 296 296 295 294

GFSSGP_sfc_thetae_081.txt.gz
Theta_e
334 326 319 311 298 295 290 294 296 297 295 299 301 302 302 308 310 305 329 342 347 351 355 357 360 360 360 360 359 358 357 357 356 354 353 352 351 351 349 348 346 345 344 343 340 338 337 338 339
329 326 314 304 291 288 290 295 297 299 302 301 302 307 313 315 325 332 335 346 349 352 354 356 359 360 360 359 358 357 356 356 356 353 352 350 349 349 350 349 347 345 344 342 339 337 337 339 340
328 325 309 299 292 288 291 296 297 302 304 301 299 309 314 319 329 333 339 348 350 351 353 355 358 359 359 358 358 358 357 356 355 353 351 349 349 347 346 348 349 346 344 341 339 337 338 340 341
319 314 309 299 292 296 298 298 301 303 305 303 303 313 321 327 331 336 347 350 348 349 351 355 357 359 358 358 357 357 357 355 354 353 352 349 346 344 345 346 349 347 345 341 340 338 338 339 339
313 307 299 295 294 298 303 304 303 302 302 303 302 311 316 329 339 345 347 349 347 349 351 353 357 358 358 357 357 356 356 354 354 351 348 346 343 342 341 345 348 346 344 342 341 339 339 339 339
304 305 295 291 295 300 303 306 303 302 302 303 305 311 316 328 341 345 347 347 348 347 351 353 353 355 356 357 356 355 352 349 347 346 346 343 342 340 343 344 348 345 344 342 342 339 338 338 337
300 297 292 295 293 297 302 309 303 302 302 303 303 309 318 326 339 344 344 346 347 349 349 351 352 352 352 353 352 351 349 347 346 345 343 343 344 344 344 345 347 346 345 344 343 340 338 337 336
304 298 293 292 295 296 305 307 307 304 303 308 308 312 317 325 338 339 343 344 345 348 349 349 349 350 349 348 349 348 346 344 344 343 341 339 339 342 343 344 347 347 345 345 344 341 339 337 336
306 295 294 294 295 297 306 305 309 310 306 307 306 318 325 335 340 339 340 343 342 345 345 347 347 347 346 345 344 344 342 341 341 339 336 334 333 333 335 339 342 344 344 343 341 340 340 339 337
302 296 295 300 300 300 306 306 307 305 304 305 306 325 331 338 337 335 335 338 339 341 342 345 347 346 345 346 341 338 338 335 334 332 330 328 329 330 335 335 340 343 342 341 341 340 340 335 325
302 295 299 302 303 306 305 306 310 306 302 305 304 311 327 332 334 334 336 336 338 341 340 343 344 344 343 343 340 335 334 332 331 330 328 326 327 326 327 330 333 333 333 333 335 333 330 324 321
296 301 301 303 306 305 302 305 305 307 306 310 310 310 320 325 329 332 333 335 335 336 338 341 342 340 337 337 336 334 334 332 330 329 328 325 322 323 323 325 328 328 328 327 327 327 326 323 322
300 302 303 303 304 304 305 301 303 305 310 311 312 309 320 324 325 327 331 333 333 334 336 337 337 338 336 335 335 333 332 333 332 329 328 326 322 320 323 323 325 325 325 324 324 325 325 322 321
303 303 301 302 301 302 300 300 303 304 311 311 311 306 321 323 324 323 328 330 332 334 334 336 336 336 334 335 334 335 333 334 332 331 329 328 324 320 322 323 323 323 324 324 323 323 322 321 320
301 297 300 299 299 299 300 297 298 305 311 310 309 304 310 321 325 327 328 330 331 333 334 334 335 334 334 333 332 333 334 334 333 333 331 329 325 322 322 322 322 324 324 324 323 322 321 320 321
296 297 291 296 299 299 299 291 299 309 308 307 309 306 304 309 322 325 328 329 331 331 332 334 338 334 332 335 331 330 330 330 332 333 332 330 327 322 321 321 321 322 322 323 321 320 319 318 318
291 283 288 291 298 296 295 290 300 305 305 303 304 307 303 303 306 314 326 328 329 330 331 331 334 334 330 331 332 331 330 328 329 328 330 330 328 324 321 321 321 320 320 320 320 319 318 316 316
284 284 285 286 294 293 292 291 298 303 303 303 303 302 301 302 303 305 311 321 326 328 330 331 332 333 333 332 332 332 333 329 326 326 326 328 329 326 323 321 320 320 319 318 317 318 316 317 316
290 288 286 289 293 293 291 291 296 299 299 299 301 305 301 301 304 304 303 305 313 320 326 330 331 332 331 330 328 327 328 330 330 326 326 325 327 327 324 323 322 323 320 320 320 317 316 314 314
291 288 286 289 294 292 291 291 296 298 298 299 299 300 299 299 300 299 300 300 305 304 315 324 328 330 331 330 329 329 328 329 331 331 329 327 325 325 324 323 323 322 323 322 321 320 316 315 313
289 288 286 287 290 290 288 288 293 297 297 298 299 299 299 299 297 297 298 298 299 301 302 307 311 315 327 329 330 328 328 327 326 328 329 330 329 327 325 323 323 322 323 322 322 320 318 319 313
287 292 291 290 285 281 289 279 286 295 296 296 299 298 298 297 296 297 299 300 301 301 302 303 303 304 305 310 326 327 328 325 325 326 327 327 328 329 329 326 323 322 322 321 321 321 321 320 320
291 296 293 291 286 281 281 281 284 287 290 295 298 300 298 297 297 298 299 302 303 303 302 302 301 301 301 302 305 319 323 324 323 323 324 325 326 327 328 329 326 324 322 321 320 319 322 322 322
296 293 292 291 287 280 282 282 281 284 288 290 296 297 298 297 297 299 302 304 304 303 303 304 305 304 304 301 301 303 311 312 311 310 315 319 322 323 325 325 325 325 324 323 321 320 321 322 322
293 288 280 280 280 277 282 282 286 287 288 290 292 294 295 295 297 299 302 303 303 302 303 304 304 303 304 304 304 302 301 301 302 303 306 310 314 317 321 322 322 321 321 322 322 323 322 319 320
288 285 275 272 276 277 282 278 284 289 291 291 291 294 294 295 298 300 301 302 301 301 302 302 302 302 303 303 303 304 305 305 305 305 308 310 313 316 315 317 319 320 320 320 320 321 320 319 318
289 282 287 278 276 272 278 281 286 287 289 289 290 293 294 296 298 300 301 301 299 299 300 300 300 301 302 302 302 302 302 303 303 303 304 305 307 311 312 313 313 313 313 315 316 313 312 309 307
289 291 282 284 269 271 275 276 280 284 287 289 290 292 294 297 298 298 299 298 298 298 298 299 299 299 299 298 299 297 297 298 298 298 298 299 301 304 304 304 305 305 306 306 305 305 306 302 301
288 287 286 283 279 273 271 277 283 285 288 289 291 293 295 297 298 298 298 297 296 296 296 297 298 298 296 295 293 292 291 292 291 291 291 292 293 295 296 295 296 297 299 300 299 299 300 299 297
290 288 287 275 279 278 271 277 286 285 288 292 292 296 296 297 297 297 296 295 294 294 294 295 296 296 295 293 292 291 291 290 289 289 289 290 289 290 290 291 291 291 292 293 295 294 296 295 294

GFSSGP_sfc_thetae_084.txt.gz
Theta_e
332 325 318 309 296 293 288 292 297 296 294 297 300 300 300 306 310 305 328 339 346 350 354 356 360 359 359 359 358 358 357 356 355 352 352 351 350 348 348 346 345 345 343 341 339 339 339 340 341
328 324 312 302 290 286 288 295 296 298 301 302 301 305 311 312 324 330 335 344 348 351 354 355 359 359 360 359 358 357 356 355 355 353 352 351 351 349 349 346 345 345 342 339 338 339 340 340 340
327 322 306 297 289 287 288 296 296 303 304 299 300 310 313 316 327 332 336 347 350 350 353 355 358 359 359 358 357 357 356 356 355 353 351 349 349 349 350 348 346 344 341 339 338 340 342 342 341
319 315 308 295 290 293 294 299 301 303 304 303 300 306 319 326 331 336 346 348 347 350 350 355 357 359 358 358 357 357 356 354 352 352 350 349 347 346 348 349 348 346 343 339 338 340 341 340 341
313 309 299 293 293 296 299 304 303 302 301 303 300 304 315 327 336 344 346 347 346 348 350 353 357 358 358 357 357 356 356 354 352 351 350 347 344 343 345 348 347 344 342 341 338 340 340 340 340
307 305 294 293 295 300 300 305 304 301 301 304 302 311 315 334 339 343 346 346 347 348 349 352 353 355 356 356 356 355 355 353 353 349 346 344 343 341 343 347 346 344 343 342 339 339 339 339 338
300 298 291 291 296 296 302 306 300 303 300 302 302 307 317 331 340 344 344 344 345 348 348 350 351 351 352 353 354 352 350 348 347 346 345 343 343 343 342 346 347 345 344 343 341 339 338 338 337
302 298 293 291 294 294 303 306 306 304 302 307 306 303 306 321 341 342 343 343 344 347 348 349 348 349 348 348 348 347 346 345 345 343 341 339 339 341 344 344 346 346 346 344 342 340 338 338 337
307 297 295 294 294 296 304 303 307 309 306 306 305 311 319 330 339 339 340 340 342 343 344 347 346 345 345 344 344 343 342 341 340 339 336 334 333 334 336 338 342 344 345 343 341 340 339 337 335
304 297 294 300 298 297 302 304 306 305 305 303 304 311 327 337 336 333 335 335 336 338 342 345 346 344 343 345 341 337 337 334 333 332 330 328 329 329 335 335 340 343 342 341 341 340 339 331 324
303 294 298 300 302 304 303 304 310 303 302 304 303 307 312 323 329 331 333 336 335 337 340 344 344 343 343 341 338 334 333 331 331 329 327 325 327 327 330 331 334 334 333 332 334 332 329 324 320
298 303 300 302 305 304 302 304 303 305 305 308 308 309 310 311 321 329 332 333 335 338 338 342 344 342 340 338 337 334 332 330 328 328 327 323 323 324 324 327 328 329 329 327 327 327 326 323 320
299 301 302 302 304 303 303 300 301 304 310 310 311 312 308 309 317 329 333 334 335 336 338 340 342 339 336 334 334 333 331 331 329 328 327 325 321 322 322 323 324 325 325 324 323 323 324 322 320
299 300 300 302 302 303 300 299 301 302 310 310 310 310 309 309 323 325 329 331 331 333 336 339 338 338 335 334 333 334 332 333 330 328 327 326 322 319 322 322 322 323 324 324 322 322 322 321 319
299 295 298 299 300 298 299 295 297 302 310 309 309 308 309 309 320 325 330 330 332 333 334 335 337 336 334 333 332 332 333 333 331 330 328 327 324 320 320 322 321 322 323 323 321 320 320 319 319
295 294 287 298 298 299 297 290 297 305 305 307 309 309 308 309 310 324 327 330 332 333 333 334 338 335 334 333 332 332 332 332 332 331 331 328 326 323 321 321 321 322 322 322 320 320 318 317 317
292 287 288 290 299 296 294 289 297 305 304 304 308 308 307 307 306 315 326 329 331 331 332 332 334 332 332 333 331 331 330 330 331 330 331 330 329 325 322 321 321 320 320 320 320 318 318 316 316
284 286 290 288 294 295 291 289 294 303 303 303 306 307 307 304 304 308 315 326 328 329 331 332 332 333 330 330 330 330 329 328 328 328 329 331 331 327 323 320 320 319 318 317 317 317 316 316 316
288 287 287 290 294 294 289 291 293 297 302 303 304 306 306 304 305 306 305 310 322 325 327 329 331 332 332 329 327 327 329 328 326 325 328 328 330 328 324 322 320 318 318 318 317 316 315 314 313
288 288 286 289 293 291 290 290 294 295 297 301 304 305 306 306 302 302 303 301 306 317 322 325 327 329 331 330 328 328 327 328 329 329 326 326 325 325 324 323 321 320 320 318 317 316 314 314 313
288 287 285 286 290 289 288 287 291 294 296 296 299 304 306 306 305 300 299 301 300 303 308 317 324 327 329 329 329 327 327 325 325 327 328 327 326 325 324 323 322 321 322 321 320 319 317 315 313
286 291 291 288 286 283 286 280 284 292 294 295 297 297 301 303 298 297 297 298 299 300 302 304 305 307 311 325 327 325 326 325 325 325 326 327 328 327 326 324 322 321 321 321 320 320 320 320 320
289 294 291 289 284 282 280 280 283 286 289 295 298 298 299 300 298 298 298 300 301 301 301 300 301 301 301 303 309 322 324 324 323 323 324 324 325 327 328 327 324 322 320 320 320 318 318 319 319
296 292 291 289 285 276 281 281 280 283 287 289 294 297 299 300 298 298 299 302 301 300 301 303 304 304 303 301 300 301 309 316 316 316 317 319 321 323 324 325 325 324 323 321 320 319 318 318 318
294 286 281 280 280 276 281 280 285 286 288 290 291 294 297 298 297 298 300 301 300 300 301 303 303 303 304 304 303 302 300 300 302 304 305 307 311 315 318 321 321 322 321 321 321 320 319 318 320
290 285 275 271 274 276 281 278 284 289 291 292 292 293 293 295 297 299 301 301 300 301 300 301 302 302 303 303 303 303 304 304 303 304 306 308 311 314 317 316 318 319 320 320 320 319 320 319 316
288 284 284 276 274 273 278 280 286 286 288 289 289 291 291 293 296 299 300 300 299 299 299 300 300 300 301 301 301 301 301 301 301 301 302 303 304 311 311 312 313 313 315 318 316 314 310 308 307
290 290 280 281 269 271 275 274 280 284 286 287 289 289 291 294 296 298 299 298 297 297 298 298 299 298 297 297 297 296 295 296 296 296 295 297 299 302 304 305 306 306 307 307 307 306 304 301 301
288 284 286 282 277 272 271 277 282 284 285 286 289 290 292 295 296 296 296 296 296 296 296 297 298 296 294 293 292 291 291 291 291 291 290 291 292 294 294 295 297 299 301 302 301 301 302 300 298
289 287 285 276 276 277 271 277 286 284 285 287 290 293 294 296 296 296 294 294 294 294 295 295 295 294 293 292 291 290 290 289 289 289 289 290 289 290 290 292 292 292 293 294 295 295 295 296 295

GFSSGP_sfc_thetae_087.txt.gz
Theta_e
333 327 322 315 302 299 293 296 302 301 301 305 305 304 306 312 315 312 336 344 346 351 355 357 358 359 359 359 358 357 356 356 355 353 351 350 349 348 346 345 345 343 342 341 341 343 342 342 342
331 324 316 306 296 292 293 299 300 303 306 307 304 313 316 315 329 330 337 344 349 352 355 356 357 358 359 359 358 357 357 356 355 354 352 351 349 349 347 346 345 342 340 339 341 341 341 341 340
329 324 311 303 295 292 293 299 301 305 307 306 306 313 319 321 332 333 341 347 350 353 355 356 357 358 359 358 358 357 357 356 355 354 353 352 350 350 347 346 345 341 339 339 341 343 343 343 343
322 318 310 299 293 296 298 301 305 306 308 308 306 308 324 332 334 339 347 347 351 352 355 356 357 359 358 357 356 357 356 355 353 353 351 349 349 350 349 347 345 343 342 340 342 343 342 343 345
316 312 302 297 296 299 302 305 306 304 306 307 307 309 321 333 342 346 346 347 347 350 354 356 358 358 358 357 357 357 356 355 352 350 350 347 346 347 350 347 346 343 341 339 341 341 341 341 343
308 309 298 295 297 301 304 307 306 305 306 307 307 308 322 338 339 345 348 348 347 349 353 354 354 355 356 357 356 356 355 354 353 352 348 345 344 344 348 347 346 344 341 339 341 341 341 340 341
306 302 297 298 298 300 304 308 305 305 306 307 309 312 317 332 339 345 346 348 349 351 351 353 354 353 352 353 354 354 353 351 349 348 346 344 343 343 345 348 347 344 343 342 341 340 340 339 339
306 303 297 297 297 299 306 307 307 307 306 311 312 307 309 327 342 343 344 343 345 350 350 351 353 353 353 353 349 348 347 346 346 345 343 340 339 341 344 345 346 347 345 344 342 339 339 338 337
308 299 296 298 297 301 305 305 308 311 308 309 312 318 322 334 341 339 339 341 343 345 348 349 350 351 351 351 347 344 343 342 341 339 336 336 341 341 342 340 343 345 345 343 342 340 339 337 335
304 298 298 302 301 302 304 305 307 307 306 306 308 313 319 328 337 335 336 336 338 340 341 345 347 349 349 348 346 343 340 339 338 338 338 337 340 339 340 337 340 343 343 342 342 341 337 332 333
303 296 301 302 303 305 304 306 310 306 304 308 307 310 315 318 323 328 332 336 336 339 341 343 345 349 348 346 343 340 339 338 337 336 336 336 336 339 340 341 342 343 336 340 340 339 338 333 330
298 302 302 303 306 305 304 307 307 307 307 311 311 313 313 312 314 321 330 336 336 336 341 344 345 346 347 345 342 339 337 337 336 335 333 333 334 336 338 340 341 341 341 339 339 338 337 334 330
299 301 303 304 305 305 305 304 305 307 310 312 313 313 312 312 314 321 330 336 337 336 338 342 344 345 345 343 342 339 337 336 336 335 333 331 333 333 335 337 337 338 338 337 336 336 335 334 332
300 301 302 303 303 304 302 302 304 306 309 311 312 312 312 313 313 319 329 333 336 337 338 340 343 343 344 342 341 339 338 337 336 335 334 332 330 331 332 333 333 334 335 336 334 333 333 332 331
301 296 299 301 302 301 302 298 299 305 310 309 310 312 312 313 314 312 326 333 335 335 337 339 340 341 343 342 341 339 337 337 335 335 335 333 332 329 329 331 331 331 333 333 333 331 331 330 329
296 295 291 298 300 302 300 294 300 304 307 306 309 311 311 312 312 312 323 332 335 336 336 338 339 340 342 342 340 339 339 338 337 337 335 334 333 332 328 327 328 330 330 331 331 330 329 328 327
293 287 288 293 300 298 297 293 299 304 306 304 307 309 310 310 311 309 318 331 334 336 336 336 338 338 339 340 340 339 338 338 338 338 337 336 334 332 331 329 329 329 329 329 329 328 328 326 326
285 287 289 290 296 297 293 293 297 303 304 304 306 309 309 310 311 309 312 327 332 334 335 337 337 337 337 337 336 337 336 337 337 337 337 337 336 334 331 331 330 328 327 326 326 326 325 326 326
290 289 289 291 295 295 294 293 296 301 303 303 305 308 308 309 312 309 309 314 327 330 331 333 334 334 332 332 332 333 334 335 334 334 335 335 337 335 332 330 329 327 326 326 325 325 324 324 324
290 288 288 292 295 296 293 293 296 298 302 303 305 306 307 309 310 308 308 306 307 324 328 330 332 334 335 334 332 333 333 334 337 335 332 333 332 334 332 331 329 327 326 324 324 323 323 323 322
288 288 287 288 292 292 292 291 293 297 298 301 303 307 308 309 309 309 306 307 306 308 317 327 329 332 334 334 333 331 331 331 332 334 334 331 329 330 330 330 329 328 327 328 326 325 323 323 321
285 292 291 290 289 285 290 282 288 294 295 297 301 301 306 308 307 303 302 304 305 305 306 310 321 329 331 333 333 332 332 330 331 333 334 334 332 329 329 329 328 328 328 327 327 327 326 325 323
289 293 291 289 286 285 286 285 287 289 292 296 297 298 300 304 305 305 303 303 304 305 305 305 306 307 308 320 329 331 330 331 330 331 330 331 332 333 332 330 328 327 327 327 327 325 325 325 325
290 292 291 290 286 280 283 284 284 286 290 295 300 300 302 302 303 303 302 304 304 305 304 306 306 306 305 306 307 315 322 325 325 326 326 327 328 330 331 331 332 331 328 327 326 326 325 325 325
287 288 281 279 279 276 283 282 287 289 291 292 295 297 300 302 304 303 301 303 304 303 305 306 307 306 307 307 307 306 305 306 310 311 313 313 316 320 323 324 328 329 330 330 328 327 326 325 324
290 286 278 273 275 277 283 280 286 291 293 294 294 295 296 299 300 300 302 304 303 304 305 305 305 305 306 307 306 307 308 308 308 309 311 313 315 317 318 320 323 325 326 327 327 327 326 325 322
289 282 286 278 277 278 281 283 288 290 290 291 291 293 293 294 297 299 302 303 303 303 303 305 304 304 305 305 305 304 305 306 306 306 308 308 310 313 313 315 316 316 319 322 322 319 313 312 311
290 291 282 280 272 274 278 279 283 287 289 290 291 292 293 295 296 300 302 301 302 302 302 303 304 303 302 302 301 300 299 300 300 300 300 302 303 305 306 307 308 308 308 310 310 308 307 306 305
288 287 284 283 280 276 275 280 286 287 288 287 288 291 293 295 298 299 299 299 299 300 301 301 301 300 298 298 297 296 295 295 295 295 296 297 297 298 299 301 302 303 304 305 307 306 305 303 302
291 287 285 279 278 275 276 281 288 288 288 288 289 293 295 297 298 299 298 297 297 298 299 299 298 298 297 295 295 294 294 294 294 293 293 294 295 295 295 297 297 297 298 300 302 301 301 300 299

GFSSGP_sfc_thetae_090.txt.gz
Theta_e
338 334 330 323 305 304 299 301 307 305 305 311 312 310 311 313 319 317 341 345 348 351 352 355 358 359 359 358 358 357 356 355 355 352 350 349 347 346 346 346 344 344 343 343 344 343 342 341 340
335 328 325 317 301 296 299 304 303 307 310 312 311 311 314 313 331 335 340 346 349 351 353 352 357 358 358 358 357 357 356 356 355 354 351 350 347 346 346 344 342 341 342 343 342 341 341 341 342
333 327 314 307 301 298 299 304 306 310 312 312 311 318 320 322 335 337 344 347 350 352 353 353 357 358 358 357 357 357 356 356 355 355 354 352 349 347 347 344 340 340 342 342 343 343 343 343 342
325 320 317 303 299 303 303 306 308 309 312 313 312 314 330 339 337 342 347 348 349 351 353 354 356 358 358 357 357 356 356 355 353 353 352 352 351 348 347 344 341 342 344 343 343 343 344 346 345
322 316 303 301 301 304 306 309 310 309 311 312 313 315 325 338 345 345 346 346 346 349 353 356 356 358 358 357 356 357 356 354 351 350 349 348 349 350 347 344 342 340 342 343 342 342 343 345 344
313 313 300 298 301 305 307 311 311 309 309 311 312 318 327 339 341 345 346 347 348 347 352 355 354 356 356 356 356 356 355 354 352 352 347 345 346 349 347 345 343 341 340 342 342 342 341 343 343
310 306 301 301 302 303 306 312 309 309 309 310 317 316 327 336 344 346 347 347 348 351 352 354 355 354 352 354 354 354 354 352 351 349 347 345 344 346 348 346 345 343 340 341 341 341 340 341 342
312 309 302 303 301 302 309 310 312 310 309 314 315 313 316 327 343 346 347 346 347 348 349 350 353 353 353 353 350 350 350 348 348 346 343 340 340 342 346 345 345 346 343 341 340 340 339 338 338
314 303 300 301 302 304 311 309 313 315 312 313 319 319 330 336 343 342 341 343 344 346 347 349 351 351 351 350 348 345 344 343 342 341 338 336 337 338 341 342 342 345 345 342 340 339 339 337 336
306 301 302 307 308 307 310 310 311 310 310 311 314 319 334 338 341 338 336 338 340 342 344 348 350 350 350 347 349 347 344 344 343 341 339 337 338 339 337 340 340 344 343 343 342 339 336 333 335
305 298 305 307 309 310 309 309 312 310 308 312 311 317 325 322 324 330 334 339 339 342 343 348 347 349 349 347 347 345 344 343 341 337 335 335 338 338 337 341 344 343 337 341 340 339 339 334 331
299 304 304 308 309 308 307 310 309 310 310 315 316 319 322 322 318 319 326 334 339 339 343 344 346 349 348 347 346 345 343 342 340 338 333 334 336 337 336 338 342 342 341 341 341 340 340 337 334
299 301 305 307 307 309 310 308 308 310 314 316 317 317 318 319 320 323 325 334 339 337 340 343 344 348 348 346 345 344 343 341 341 340 337 333 334 336 338 339 340 341 341 340 339 338 337 337 336
301 302 304 306 306 308 306 307 309 311 315 315 315 316 317 318 319 322 328 333 338 338 339 343 344 346 347 346 346 344 343 342 341 340 339 337 334 334 336 337 338 338 338 338 337 335 334 334 335
301 297 302 304 304 304 308 303 304 311 313 313 314 316 317 318 318 318 322 333 339 340 342 340 344 345 346 346 345 345 344 342 341 341 341 339 338 336 336 333 334 335 335 334 336 335 334 332 331
296 297 292 301 304 304 305 297 306 311 311 311 313 314 316 317 317 318 316 331 339 341 341 343 343 345 345 345 345 345 345 343 342 342 342 340 339 339 337 335 332 333 334 334 334 333 332 331 331
293 289 291 295 304 303 303 297 305 310 310 309 311 313 314 316 317 317 316 323 336 339 340 341 343 342 344 346 346 345 345 344 343 343 342 341 340 339 338 337 336 334 333 333 334 333 332 330 330
287 289 291 293 300 301 299 299 302 307 308 308 309 311 312 315 316 318 316 320 335 339 341 341 342 344 343 345 344 344 344 343 344 343 343 343 342 340 339 339 338 337 334 334 333 332 332 330 330
292 291 290 295 300 299 298 298 301 304 306 306 308 310 312 314 318 318 317 315 333 337 339 339 339 340 341 339 336 337 338 341 341 342 343 343 343 342 341 339 338 338 335 334 333 331 330 330 330
291 290 291 294 299 298 297 297 301 304 304 306 307 308 310 313 316 316 316 313 321 333 336 338 338 339 339 340 339 339 339 339 342 343 341 342 342 342 340 339 338 337 335 334 332 330 329 329 331
291 290 291 292 296 298 297 294 297 301 304 306 308 310 311 313 314 315 315 314 313 315 328 332 335 335 338 338 337 336 337 334 335 338 339 339 338 338 337 338 338 337 335 334 334 332 330 327 329
287 294 294 293 291 286 296 285 294 299 300 303 305 308 310 313 315 316 314 312 312 312 314 320 330 334 335 337 335 334 333 332 335 337 340 340 337 335 336 336 336 336 335 334 335 334 332 330 327
289 295 293 294 291 291 291 288 293 296 297 301 304 307 309 312 313 314 312 313 312 313 312 314 318 329 334 336 336 336 335 337 338 335 335 337 338 339 336 334 334 333 333 333 333 332 331 331 330
291 292 293 293 291 283 289 289 289 292 296 300 304 306 308 309 311 313 314 311 310 312 312 311 312 313 315 324 331 334 334 334 332 333 333 336 337 337 338 337 337 336 334 333 333 333 332 331 330
287 288 282 281 282 281 288 288 291 296 297 300 302 305 308 310 310 311 312 309 309 310 311 310 311 309 310 311 310 313 320 323 324 326 325 326 326 328 331 331 332 332 333 333 334 333 332 331 329
286 287 284 276 278 282 287 284 289 298 301 302 301 302 303 308 310 311 311 312 309 309 310 310 311 311 311 311 312 312 311 310 311 312 313 316 318 321 322 323 326 328 328 330 332 332 331 331 330
288 286 290 285 284 283 286 289 294 297 297 298 299 300 301 303 305 308 311 310 310 310 310 310 311 311 312 312 312 312 312 312 312 313 315 316 316 316 318 320 321 323 325 327 328 327 323 323 317
287 293 286 287 279 278 283 285 287 292 294 295 297 299 302 302 303 304 307 308 309 309 309 310 310 310 310 311 311 310 309 309 309 310 310 310 311 311 313 315 316 317 317 318 318 314 312 310 309
288 288 289 289 286 282 280 284 293 292 294 294 296 297 299 301 302 304 306 308 308 308 308 308 308 308 308 307 307 307 305 305 305 305 305 305 306 306 308 307 310 311 311 311 310 309 308 307 305
291 291 290 287 282 283 285 285 293 295 295 296 298 299 300 301 303 305 305 306 306 306 307 306 305 305 305 304 304 303 303 304 304 303 302 302 303 303 303 304 305 305 305 306 308 306 307 307 306

GFSSGP_sfc_thetae_093.txt.gz
Theta_e
338 338 329 323 306 304 300 302 308 306 308 314 314 313 315 318 320 317 341 342 349 349 350 356 358 358 359 358 357 356 355 354 353 350 348 347 347 347 346 345 345 345 346 345 343 342 341 340 339
333 333 324 316 302 297 300 306 304 308 311 314 313 313 313 317 333 336 339 345 350 349 350 352 357 358 358 357 357 356 355 354 353 352 350 347 346 346 344 343 343 344 344 343 343 343 343 343 341
333 331 314 308 303 298 300 307 307 310 312 312 310 316 317 323 335 339 345 347 349 349 349 352 356 358 357 357 357 355 355 355 354 353 352 350 347 346 343 341 342 343 343 343 343 343 343 343 343
326 321 317 303 301 304 306 308 309 310 312 314 313 310 330 340 338 343 345 347 348 350 347 352 355 357 357 357 357 356 355 354 353 353 353 351 348 347 343 340 343 345 346 344 344 346 346 345 345
326 317 304 302 302 306 310 309 310 309 310 312 313 315 326 338 345 345 345 346 346 350 351 351 356 357 357 357 356 355 355 354 352 351 350 351 349 347 343 341 343 344 344 343 343 345 345 345 345
313 313 301 299 302 307 310 311 310 310 312 312 313 317 329 339 341 344 345 345 346 349 352 351 352 355 356 356 356 355 355 353 352 351 348 348 350 347 344 342 342 342 343 343 342 343 344 344 343
309 306 301 302 302 304 307 312 309 310 311 311 318 315 329 336 343 343 345 348 346 349 350 350 352 352 352 353 354 354 353 351 351 349 348 346 348 348 345 345 343 341 342 342 342 341 343 343 340
312 308 302 303 302 302 309 311 313 311 310 316 318 317 321 338 344 346 347 345 346 347 350 347 350 351 352 351 350 350 350 348 348 347 343 340 341 346 347 344 345 343 342 342 341 340 339 340 339
315 300 299 301 302 305 311 308 313 315 313 314 319 322 330 336 343 344 342 342 342 345 347 346 347 349 350 349 348 347 345 344 343 341 338 336 336 342 344 341 342 344 343 341 340 340 338 337 336
306 300 301 307 308 305 309 310 311 311 311 313 315 328 332 337 339 337 339 338 339 341 343 345 349 348 348 347 347 347 346 344 343 341 339 337 334 334 345 340 340 343 343 342 340 338 337 334 334
305 299 306 306 309 309 308 309 313 311 308 312 312 322 331 337 336 337 337 339 339 341 344 344 346 349 346 347 346 345 343 343 342 339 337 335 336 337 342 344 342 342 337 341 340 337 336 333 330
300 304 304 307 308 309 308 310 310 312 313 316 317 321 327 331 332 334 336 340 339 341 343 345 348 347 346 346 345 344 342 342 339 336 332 334 335 334 334 339 343 342 341 340 340 338 337 336 333
300 302 304 306 307 309 310 308 309 310 315 316 317 319 322 325 328 331 332 338 341 340 342 345 346 347 345 343 344 343 342 341 340 337 332 332 334 334 334 336 339 340 340 340 339 337 336 335 335
302 302 302 305 306 307 306 307 308 310 315 314 315 317 318 321 323 326 331 332 338 340 340 343 344 346 344 343 343 342 341 342 342 340 337 333 332 334 336 337 337 337 338 337 336 334 333 332 333
300 296 300 303 304 304 307 302 304 311 314 313 313 315 318 319 320 324 327 331 337 340 341 341 343 345 344 343 343 342 341 341 341 340 340 338 336 334 335 334 335 335 335 333 334 333 332 330 329
294 297 291 299 303 303 304 296 304 310 311 311 312 314 316 318 318 321 329 333 339 339 339 341 343 344 345 344 343 344 342 341 342 341 341 341 339 338 337 335 332 333 334 333 333 332 331 330 330
292 289 291 293 302 301 302 297 304 309 310 309 311 312 314 316 318 319 326 334 337 338 339 341 342 342 344 345 345 345 343 342 342 341 341 341 340 339 338 337 335 332 333 333 333 332 331 331 331
288 289 291 291 299 300 298 298 303 308 308 308 309 311 313 314 317 319 323 330 335 337 338 340 343 343 343 345 345 345 345 343 342 341 340 340 340 340 339 338 337 336 333 333 333 333 333 331 330
292 291 290 293 300 298 298 298 301 305 307 307 308 309 311 313 318 320 320 329 333 336 337 338 340 342 342 342 341 340 338 341 342 344 344 343 341 341 340 339 338 338 335 334 334 333 331 331 331
290 290 290 294 300 298 297 297 301 304 305 307 307 308 309 312 315 318 318 321 332 334 336 337 337 339 342 342 342 342 341 343 343 344 342 343 343 343 340 340 339 338 337 335 335 333 331 330 332
289 290 291 291 296 299 296 294 297 302 305 306 307 309 310 310 313 316 317 317 329 332 334 336 335 337 339 341 340 339 339 338 338 340 341 341 340 342 342 341 340 339 338 335 336 334 331 328 331
287 295 294 293 292 286 296 286 294 298 300 303 305 307 308 311 313 317 316 316 317 318 327 335 336 335 337 338 337 335 333 332 335 338 340 340 340 338 336 337 337 337 337 336 336 336 334 332 328
289 295 293 294 291 290 291 287 292 297 296 300 304 306 308 311 314 315 317 317 317 317 317 321 328 334 336 337 337 334 332 337 336 336 335 337 340 337 335 335 335 334 335 335 335 335 334 332 330
292 293 293 293 291 283 290 288 289 294 297 300 303 305 307 310 314 316 316 316 316 318 317 317 318 323 329 334 333 333 331 331 333 331 332 336 337 338 338 337 335 334 334 333 333 334 333 332 332
289 289 282 280 280 281 290 288 291 296 299 301 303 305 308 310 312 314 315 313 313 314 315 313 314 313 316 323 326 332 333 334 333 332 332 331 333 332 333 334 333 334 334 334 334 333 333 332 330
287 287 283 277 279 282 289 284 290 298 301 302 303 305 308 309 311 312 314 316 314 313 311 311 311 310 312 313 315 314 314 313 316 316 315 318 320 322 325 325 326 329 330 330 331 331 330 330 328
287 285 292 286 287 284 286 289 295 298 298 300 301 302 303 306 309 311 312 314 314 311 312 311 312 312 312 313 314 313 313 313 313 314 315 316 317 318 319 320 321 323 324 325 327 328 328 327 324
287 290 285 288 279 278 284 285 287 292 295 298 299 301 303 305 306 307 310 313 313 313 312 312 311 312 313 313 313 312 312 312 313 313 313 313 314 314 316 317 318 318 319 319 322 317 314 312 309
287 287 290 290 288 282 280 284 294 294 296 296 298 299 301 304 305 306 307 310 312 312 311 311 311 310 310 310 309 309 308 308 309 308 308 308 309 309 311 311 313 313 314 313 312 311 310 308 308
293 290 291 286 284 286 286 285 296 297 297 298 300 301 302 303 305 306 307 309 309 309 309 309 309 308 308 307 308 307 306 307 306 305 304 305 305 305 305 307 308 308 308 311 310 307 307 307 307

GFSSGP_sfc_thetae_096.txt.gz
Theta_e
335 336 333 320 305 300 296 297 303 302 305 309 310 308 310 325 321 313 337 343 348 348 353 355 358 358 358 358 356 355 354 353 352 350 348 347 347 347 347 347 347 346 345 343 342 341 340 340 340
328 330 325 313 299 293 295 302 300 304 307 310 310 309 311 321 332 332 332 345 346 349 350 352 357 358 359 357 356 355 354 353 352 351 349 346 345 345 345 345 345 345 344 344 344 343 342 343 345
327 328 313 305 300 294 296 303 304 306 310 308 306 310 316 324 333 334 339 346 345 346 348 352 356 358 357 356 355 355 354 354 353 351 350 349 345 343 343 344 343 343 344 343 344 344 344 344 346
322 322 316 301 297 301 302 304 306 307 309 308 309 312 331 337 334 338 341 345 343 344 350 353 355 356 356 355 355 356 355 355 354 352 351 350 345 341 342 343 344 345 344 345 346 347 346 346 346
321 316 302 299 299 304 306 308 309 306 307 308 309 314 326 335 341 340 341 345 341 344 348 352 356 356 356 355 355 354 355 355 354 353 352 349 345 341 342 343 346 345 345 345 346 346 346 345 345
310 311 298 295 300 304 307 308 308 307 308 309 306 314 326 336 337 339 340 343 344 346 347 350 352 354 355 355 354 354 354 354 353 352 351 350 345 342 341 343 344 344 343 343 344 345 344 344 344
307 304 298 298 299 302 306 309 304 306 307 307 313 307 327 334 340 339 339 341 348 347 346 348 350 351 352 353 353 353 353 351 350 350 350 350 346 345 343 343 345 343 343 342 342 344 343 342 340
309 306 299 300 299 300 308 307 308 307 306 314 317 315 322 335 343 341 342 344 347 347 346 346 347 349 350 349 350 349 348 347 348 346 343 342 343 344 345 342 343 344 344 343 343 341 342 341 338
313 300 296 299 300 302 309 306 310 311 309 313 318 323 334 339 343 340 338 339 344 344 344 346 346 346 348 347 346 346 345 344 342 340 337 336 340 341 340 339 340 342 343 342 341 339 338 338 336
304 297 298 306 306 304 307 307 308 308 308 310 319 326 336 337 340 337 334 333 337 340 342 344 344 345 347 346 344 344 342 339 338 336 333 333 331 341 342 337 339 342 341 340 340 339 338 334 328
302 297 303 306 308 309 308 308 310 306 305 310 315 323 331 335 335 335 335 335 337 339 340 344 345 346 345 343 342 343 341 339 337 335 333 331 330 336 341 338 339 337 336 336 336 333 329 325 324
298 301 303 307 308 308 306 310 308 307 307 313 319 326 332 333 333 334 335 334 337 339 341 342 346 344 343 344 343 341 339 338 334 331 330 328 329 328 337 337 337 336 336 337 334 332 331 330 327
298 300 303 305 306 307 309 307 307 308 312 314 320 324 325 331 331 334 337 338 337 338 340 343 344 343 343 343 342 340 338 336 333 328 325 328 328 327 326 336 337 335 335 334 333 332 330 329 328
300 300 301 303 304 306 305 306 308 309 313 310 315 315 319 322 329 329 332 333 336 339 338 342 342 343 343 340 341 338 339 335 334 331 328 325 327 328 327 329 333 333 335 333 331 328 327 326 327
299 295 299 300 303 303 306 301 303 310 310 310 311 311 314 319 322 328 330 331 336 337 340 340 340 343 341 340 340 339 338 338 337 333 332 329 327 326 329 329 329 329 329 328 328 326 325 323 323
293 294 290 297 302 304 302 294 304 309 308 306 309 308 311 314 317 320 324 332 335 337 338 340 343 341 341 340 340 341 339 337 337 335 334 333 332 331 329 328 327 328 327 326 326 325 324 323 322
290 286 288 292 300 300 300 294 302 306 305 306 306 307 310 312 313 316 324 329 335 338 338 338 340 340 340 340 342 340 340 339 338 337 335 336 334 333 331 330 328 326 326 326 327 325 324 323 323
283 284 288 289 294 298 295 295 300 303 303 302 305 305 307 311 312 314 322 329 333 335 338 338 339 339 340 340 338 340 340 340 339 337 337 337 336 334 333 332 331 327 326 325 326 325 325 323 323
290 288 288 291 296 294 294 295 298 301 303 302 303 305 305 308 311 314 318 327 331 332 334 337 337 338 340 339 335 334 333 336 338 338 338 337 337 336 334 333 332 331 328 327 327 326 325 323 324
288 289 288 293 296 295 295 295 299 299 301 301 303 303 304 305 309 311 315 322 328 329 331 335 337 338 339 338 339 336 334 334 334 337 337 339 339 338 336 334 333 332 331 329 329 327 325 325 325
287 286 289 289 294 297 294 292 296 299 301 302 304 304 305 305 306 309 312 316 325 327 330 332 334 336 338 338 336 334 333 333 333 334 335 336 337 337 337 335 333 332 332 330 330 329 326 322 324
285 292 290 292 290 285 294 282 292 295 298 300 300 301 301 303 306 308 311 313 322 327 329 330 330 333 336 336 334 330 329 327 329 331 333 335 335 334 334 334 334 333 332 330 329 330 327 325 323
288 292 292 292 290 288 289 284 288 296 294 297 300 301 302 303 305 307 310 312 312 314 317 326 330 330 332 332 331 330 328 328 328 330 331 332 334 334 333 333 332 332 332 332 331 329 329 328 325
293 292 292 291 289 280 286 285 284 289 293 295 300 301 303 303 305 309 312 313 311 311 311 312 322 327 330 330 328 325 326 326 327 327 327 330 332 333 333 333 332 332 331 331 330 330 329 327 326
289 287 281 279 279 280 288 285 285 292 297 298 299 300 302 302 305 308 310 309 309 309 310 312 312 313 321 325 328 327 324 324 323 325 325 323 322 324 329 331 330 329 331 331 331 330 329 329 328
286 286 281 273 274 278 287 283 285 293 296 298 299 299 302 302 305 307 309 308 308 310 309 308 309 308 311 313 315 317 321 320 318 318 319 320 321 321 321 321 321 323 326 328 328 329 329 329 328
286 284 289 283 283 279 282 283 289 294 294 295 295 298 297 299 303 306 307 308 308 307 307 306 307 308 309 310 308 309 309 309 309 310 312 312 313 314 314 316 317 318 319 320 323 324 326 326 325
288 289 284 284 276 277 280 280 284 289 291 294 294 295 296 298 299 301 305 306 309 307 307 307 307 307 309 310 308 309 309 309 309 309 309 309 310 311 312 313 314 314 314 314 315 317 315 315 312
285 284 287 288 284 276 275 279 288 290 293 293 294 295 297 298 300 300 301 304 306 306 306 305 306 307 307 308 308 307 306 305 304 304 303 303 303 304 306 307 308 309 309 310 311 311 311 310 308
291 287 288 283 282 282 282 279 292 293 294 296 297 298 297 299 300 300 300 303 304 304 305 304 304 304 304 304 305 304 304 304 302 301 300 301 301 301 301 302 304 304 304 306 308 307 308 307 306

GFSSGP_sfc_thetae_099.txt.gz
Theta_e
329 332 331 320 303 297 291 293 298 300 300 307 306 319 321 324 320 313 339 347 349 350 354 355 358 358 358 356 355 353 352 351 351 350 347 349 349 349 349 348 346 345 343 342 341 341 341 340 342
325 326 323 310 296 289 290 298 298 301 304 305 309 311 320 320 329 332 338 348 350 351 352 353 356 357 357 355 354 353 353 351 350 350 348 346 346 347 347 346 345 344 343 343 342 343 344 345 346
325 326 312 302 295 291 291 299 302 305 306 305 304 320 324 323 332 334 344 348 349 349 351 353 356 357 356 355 354 354 353 351 351 350 348 345 344 345 345 344 343 343 344 344 344 345 346 347 347
320 319 315 298 294 298 298 301 305 305 305 306 312 322 329 335 334 339 345 347 345 347 350 354 356 357 355 354 355 354 354 352 351 351 348 345 343 344 343 343 345 346 346 345 346 346 346 346 346
320 313 303 297 296 299 302 306 306 304 304 305 306 320 323 333 339 341 343 345 343 345 349 352 355 355 354 355 354 354 354 353 352 351 346 342 342 343 344 344 345 345 348 346 346 346 346 346 345
308 310 297 294 297 301 302 308 306 305 305 305 308 321 321 334 335 339 342 342 347 345 348 351 351 353 353 354 353 353 353 353 352 352 347 343 342 343 344 344 345 345 345 345 345 345 345 344 342
304 302 298 296 297 299 303 309 304 304 304 306 311 316 324 330 336 338 341 344 346 346 347 349 349 350 351 351 352 352 353 352 351 351 349 345 343 344 343 345 345 343 344 344 344 344 342 341 338
308 305 299 297 296 298 306 307 306 305 305 314 317 317 322 331 338 341 343 343 343 345 347 347 348 350 349 348 349 349 348 347 348 347 345 341 341 341 344 343 344 344 343 343 344 343 341 339 337
308 298 295 297 297 301 306 304 308 309 308 318 322 325 332 338 339 340 341 341 340 343 344 345 346 347 347 347 345 345 344 342 341 340 339 338 340 339 337 337 340 343 343 342 341 340 340 338 336
302 296 295 303 303 301 307 307 308 309 309 317 321 332 337 338 336 334 336 338 338 339 342 344 344 345 345 346 343 342 341 337 335 334 334 335 339 337 338 335 338 341 341 341 341 339 337 333 326
300 295 301 303 305 308 306 307 311 306 304 315 319 328 333 335 334 333 333 338 338 338 342 343 343 345 343 342 341 339 338 335 334 332 331 330 335 336 336 335 334 333 333 334 335 333 329 326 325
295 300 302 305 309 307 305 309 308 308 306 319 323 331 332 333 333 331 333 334 337 338 340 342 344 343 342 341 341 339 337 335 333 332 331 326 330 337 337 335 334 333 333 331 331 328 327 325 323
295 298 301 303 306 305 309 306 306 307 312 314 326 330 330 331 332 334 333 336 337 337 340 342 342 342 341 340 342 339 336 335 334 330 326 329 330 333 335 334 334 333 333 333 331 331 330 327 326
298 298 299 302 304 305 305 306 308 310 313 312 322 324 327 330 330 330 333 333 336 337 339 342 341 342 343 339 340 336 335 333 329 325 323 327 327 325 328 334 334 332 332 332 331 329 326 326 325
298 293 298 301 303 303 306 301 303 310 312 310 314 316 321 328 329 330 330 333 336 337 338 340 340 341 339 340 340 336 335 335 329 327 325 323 325 325 325 331 330 330 331 331 328 325 323 321 321
294 293 288 297 300 303 304 293 304 310 309 308 310 307 315 320 327 327 330 330 335 335 336 338 342 340 340 339 339 338 335 334 333 330 329 328 327 327 326 326 327 327 326 324 324 323 322 320 319
289 286 286 292 300 301 299 295 303 309 308 306 307 307 310 312 315 318 327 331 333 337 335 337 340 339 339 339 340 339 340 334 333 332 330 330 330 330 327 327 325 325 324 324 324 322 322 320 319
283 285 287 288 295 299 296 295 300 306 306 305 306 305 306 310 311 315 321 329 333 335 336 336 337 338 339 338 338 340 339 337 336 334 334 333 332 331 329 329 328 324 324 324 324 323 322 321 321
289 287 286 289 295 296 295 296 298 303 305 304 305 307 302 307 311 313 321 326 331 334 334 336 336 336 337 336 334 333 334 336 337 337 337 336 335 332 331 330 329 325 324 324 325 325 323 322 322
288 286 286 290 294 293 293 294 298 299 300 303 303 304 302 303 306 310 318 324 328 329 334 332 335 337 338 338 335 334 332 333 335 337 337 337 336 334 332 331 330 330 326 325 325 324 323 323 323
286 287 286 287 293 294 292 291 294 299 299 301 302 303 303 303 304 310 314 320 324 325 328 333 335 336 336 336 333 332 331 331 332 332 334 333 335 336 335 333 332 331 331 328 327 326 324 321 322
285 291 290 291 289 284 293 281 291 295 297 298 298 299 301 301 304 309 314 317 322 324 327 331 332 334 335 333 333 329 328 326 330 332 333 333 334 334 335 334 333 332 332 331 329 330 327 324 321
287 292 292 290 287 286 288 285 288 294 293 295 298 298 300 300 302 305 309 318 322 324 323 325 328 331 333 333 330 327 326 325 327 328 329 331 332 333 333 332 332 331 331 331 330 330 328 327 325
293 292 292 291 288 278 285 284 282 290 294 293 295 298 300 301 302 305 310 312 312 313 313 318 324 326 328 328 326 324 321 322 323 325 326 327 330 331 332 331 330 329 329 329 329 330 329 329 328
289 287 280 279 279 276 287 284 285 290 295 297 296 297 299 301 302 304 307 306 307 308 309 312 318 320 323 321 320 321 321 321 322 323 323 321 321 322 329 330 329 328 329 329 329 328 327 327 325
286 286 278 275 276 276 287 281 285 292 293 298 297 298 300 300 300 305 308 307 307 307 307 309 312 312 317 320 320 320 320 320 319 319 318 319 319 320 324 323 324 325 327 328 328 326 327 326 325
287 283 289 283 282 276 281 283 287 291 292 293 295 296 297 299 300 304 307 308 306 306 307 306 307 307 310 311 307 308 310 311 309 309 311 311 313 314 313 315 316 316 317 318 319 320 321 322 323
288 289 283 282 275 275 276 278 280 285 289 293 294 295 296 298 300 303 307 307 306 307 305 305 305 305 306 307 307 307 307 308 308 309 308 309 310 310 311 312 312 312 312 312 313 313 313 315 314
283 282 286 286 280 276 273 277 287 287 289 290 291 294 296 297 298 299 301 304 305 304 303 303 304 305 305 305 305 305 307 306 305 304 304 305 304 305 305 306 307 307 307 308 308 309 310 311 310
287 285 289 278 280 278 274 278 290 291 292 294 294 296 296 298 298 298 301 302 302 302 302 303 303 304 304 303 303 303 305 305 303 302 301 302 300 301 301 302 303 303 303 304 306 305 306 308 308

GFSSGP_sfc_thetae_102.txt.gz
Theta_e
325 328 327 321 302 296 291 294 298 299 300 306 306 316 316 319 315 310 340 345 349 351 354 355 358 357 356 354 352 352 350 350 351 352 353 353 352 350 349 347 345 344 343 342 342 342 344 347 348
323 324 322 310 295 288 289 295 296 301 302 305 320 319 319 319 330 337 340 347 350 351 353 354 356 356 355 354 352 351 351 350 350 350 350 350 349 348 346 345 343 342 342 342 342 343 347 348 348
326 324 312 301 294 291 290 296 300 303 306 304 312 326 323 323 336 338 345 348 349 349 351 352 356 355 354 353 353 352 350 350 349 349 349 349 348 346 345 344 343 343 343 344 345 347 348 348 348
321 317 313 298 294 297 295 298 302 303 306 306 316 321 329 333 333 343 347 348 347 347 349 352 354 355 353 353 353 352 351 349 345 346 347 348 345 344 343 343 344 346 346 346 346 347 347 346 346
315 312 300 297 296 298 299 304 305 303 303 305 318 320 323 332 339 345 346 347 346 347 349 351 354 353 354 354 353 352 351 350 345 343 343 344 343 343 343 343 345 346 348 346 347 346 346 344 345
302 309 298 294 296 301 299 306 306 304 303 303 320 320 322 334 340 344 345 344 347 347 349 350 351 351 353 353 353 352 351 351 349 345 342 343 343 343 343 345 347 347 346 346 346 346 345 342 341
298 300 295 297 297 298 301 307 305 303 303 305 320 316 324 331 339 343 342 345 346 347 347 348 348 349 349 350 351 351 350 350 349 346 344 344 344 344 343 344 346 346 345 345 345 344 343 340 338
302 300 296 298 296 296 304 306 309 307 304 313 324 316 321 329 338 340 343 343 344 345 346 345 346 347 347 348 348 349 349 348 348 344 342 340 340 342 344 343 343 345 345 344 343 341 340 338 338
305 295 291 296 298 299 306 305 306 310 309 318 321 323 330 335 336 339 339 340 341 343 345 345 345 345 345 346 346 345 345 344 344 341 337 336 335 337 337 338 341 343 343 344 343 341 340 337 335
299 293 294 301 302 301 307 307 307 313 315 318 326 331 334 336 335 335 335 336 338 340 342 344 344 344 344 345 341 338 339 337 338 338 336 336 334 333 336 335 338 342 341 341 340 339 338 331 325
298 291 298 303 304 306 306 307 311 311 309 316 322 328 331 333 334 334 334 336 337 340 342 343 343 344 343 340 339 337 334 333 332 334 334 335 335 333 332 331 332 331 332 333 334 332 328 325 324
293 298 300 303 307 307 305 308 308 308 306 315 328 331 332 329 333 335 335 335 337 339 341 343 343 342 341 340 338 335 334 332 330 330 331 330 332 332 330 330 330 329 329 328 327 325 323 322 322
294 296 300 303 305 306 308 306 308 307 311 312 323 330 329 330 331 333 336 338 337 338 340 341 343 341 339 339 338 336 334 334 332 330 330 327 333 334 332 331 330 330 329 329 327 327 327 326 324
296 297 298 301 303 304 303 306 308 309 312 311 317 323 327 329 329 329 332 335 336 338 339 341 342 340 339 339 338 336 336 335 332 328 329 327 333 335 333 331 331 330 330 330 329 329 329 327 325
296 293 296 298 301 301 304 301 303 310 311 308 308 311 323 326 328 330 332 336 337 338 339 340 341 341 339 339 338 336 336 333 331 326 326 327 329 331 331 332 331 331 330 331 330 328 323 322 321
293 293 287 297 300 302 301 292 304 310 309 307 307 306 311 323 326 327 331 332 335 335 337 340 342 340 339 339 337 335 334 330 329 325 324 325 326 325 324 330 330 330 329 328 326 322 320 319 318
290 285 286 292 301 299 297 294 303 309 309 306 306 305 307 316 321 324 328 331 334 336 337 338 339 338 339 339 338 337 334 331 329 327 326 324 324 326 325 325 328 326 325 323 323 321 321 319 318
282 284 285 288 296 298 294 294 300 307 307 306 305 305 306 311 317 320 326 329 332 334 337 339 339 339 337 336 336 335 334 332 331 329 328 328 327 327 326 326 324 323 323 322 322 321 321 320 320
286 286 285 289 297 296 294 295 300 305 305 304 305 306 307 307 313 315 321 328 331 332 333 335 336 336 337 336 333 333 331 334 334 334 332 331 331 329 328 327 327 322 322 323 323 323 322 321 321
287 285 285 290 294 295 294 293 297 303 302 303 304 304 306 307 307 310 318 323 329 331 333 332 334 336 337 337 335 333 332 332 335 336 336 335 334 332 329 328 327 326 323 323 323 323 322 323 322
286 285 286 286 293 294 292 290 294 299 302 304 305 305 306 305 306 307 314 321 325 327 330 332 334 335 336 336 332 331 332 331 330 332 334 335 336 335 333 330 330 330 327 325 325 325 324 321 322
282 290 289 288 287 283 292 281 289 293 296 298 301 304 305 304 303 307 312 318 321 326 328 330 332 333 334 333 333 331 331 327 330 331 330 332 334 334 333 332 332 332 331 329 328 329 327 324 321
286 293 290 289 286 286 288 283 286 292 292 296 298 300 302 301 301 306 311 319 323 322 325 327 329 330 330 332 331 328 325 327 327 329 329 329 331 332 332 332 331 331 331 330 330 329 328 327 324
293 291 291 291 287 278 285 285 283 289 292 296 298 299 301 300 300 304 309 316 318 317 319 322 325 327 329 328 325 326 323 322 323 323 324 327 328 330 330 331 330 329 329 328 328 328 327 327 326
289 287 280 279 279 274 286 285 286 290 296 298 298 298 300 301 300 303 306 311 312 313 315 320 323 323 323 324 324 322 322 322 322 323 323 322 322 322 327 329 328 326 328 328 327 327 326 326 325
286 285 280 275 273 278 288 281 285 291 294 298 299 299 300 299 300 303 305 309 311 311 311 315 319 321 319 319 319 318 318 319 319 320 320 320 318 318 321 324 322 322 322 324 324 323 325 326 324
286 283 288 280 279 276 280 284 288 290 291 293 296 296 296 298 299 303 305 308 306 306 309 313 315 315 317 317 317 316 316 315 313 311 312 312 313 315 316 317 317 317 318 318 318 318 317 318 320
287 289 279 280 275 272 276 277 280 285 288 290 292 293 294 296 297 301 305 307 306 306 306 306 309 311 312 312 312 312 311 310 308 309 308 308 309 310 311 311 311 312 313 312 312 312 312 310 312
285 283 285 286 278 273 272 276 285 286 288 290 289 292 293 294 296 300 303 304 305 304 304 304 304 305 306 306 305 306 306 306 306 306 306 306 306 307 306 308 308 307 307 306 307 308 309 309 309
286 284 286 275 277 274 272 277 287 287 290 292 292 294 295 295 295 297 301 302 302 303 302 303 302 303 303 303 303 303 303 302 302 301 302 301 300 300 302 301 302 302 302 302 303 305 304 305 309

GFSSGP_sfc_thetae_105.txt.gz
Theta_e
323 325 325 318 301 294 290 294 297 298 299 308 306 315 314 315 313 306 338 343 348 349 352 353 356 355 353 351 348 349 350 353 354 355 354 353 353 351 348 347 345 344 344 345 347 348 348 349 347
323 321 322 309 297 288 290 295 297 302 303 312 321 320 317 317 330 336 339 346 349 350 351 352 355 355 353 349 348 348 349 352 353 353 353 352 350 348 346 345 343 342 342 343 346 348 348 347 345
323 321 311 304 294 290 289 294 299 302 304 305 317 325 321 321 333 337 344 348 349 349 351 351 354 354 353 351 350 350 350 350 352 352 352 349 347 346 344 343 342 343 344 346 347 348 346 346 347
315 313 311 299 294 297 293 295 301 300 303 304 317 321 325 332 336 341 347 348 348 348 350 351 353 353 352 351 350 350 348 347 348 350 350 349 345 345 343 343 344 346 347 348 347 347 344 347 346
312 306 298 295 296 299 300 300 301 301 302 303 321 320 323 331 341 345 345 347 345 346 349 350 352 353 352 351 351 350 348 345 345 347 346 345 344 343 343 343 345 346 347 348 347 346 343 346 344
303 302 294 292 296 300 299 304 303 303 304 306 319 319 322 336 341 344 346 345 346 345 346 348 349 351 352 351 350 349 348 346 345 346 345 343 342 342 344 344 346 346 346 347 346 345 342 342 342
299 294 290 295 294 297 300 304 301 303 303 301 320 315 324 336 342 345 345 346 345 346 345 346 346 348 349 349 349 349 348 346 345 345 344 344 343 345 347 347 347 346 346 346 345 344 341 341 341
302 297 290 293 295 295 303 304 305 304 303 311 323 315 322 335 342 343 344 344 345 344 344 344 345 346 346 347 347 347 347 344 343 343 342 340 340 342 345 344 345 345 345 345 344 342 339 340 340
306 293 288 290 295 299 305 303 307 309 308 312 317 321 329 338 340 340 339 340 341 342 343 343 343 344 345 345 345 345 345 343 341 339 337 336 335 336 336 337 341 344 344 343 342 340 339 336 335
295 291 292 296 298 301 305 306 306 307 312 317 320 329 334 336 336 333 334 334 336 338 342 343 343 342 343 345 343 341 343 340 336 333 332 332 331 332 336 335 338 342 342 342 342 340 337 329 323
294 290 295 297 302 305 304 305 310 308 306 314 318 327 332 332 333 333 332 334 335 338 342 343 342 342 342 340 338 336 337 337 336 333 332 331 331 329 330 330 332 331 332 331 332 329 325 322 322
291 295 296 298 304 304 302 308 307 309 306 310 313 329 330 331 332 332 332 333 336 338 340 342 342 342 340 339 336 332 333 332 333 333 332 332 329 328 326 327 327 326 326 325 324 323 322 322 321
291 293 296 300 303 304 305 305 306 306 310 314 317 329 329 331 331 333 335 336 337 337 340 341 342 341 338 337 335 332 331 331 331 331 331 331 331 329 328 327 326 326 326 325 324 323 322 322 323
294 296 295 298 301 301 299 302 307 308 311 310 317 323 327 330 332 334 334 335 337 338 340 342 341 341 338 336 334 332 332 332 331 329 331 329 333 332 330 328 328 327 327 328 327 326 326 326 325
294 291 295 297 299 299 300 295 303 309 310 307 307 309 317 326 332 333 333 334 337 338 340 341 341 340 337 336 335 334 333 334 331 329 329 329 333 333 332 329 328 328 328 328 328 327 325 323 323
290 292 286 294 298 300 296 288 301 310 308 305 306 305 308 314 328 333 334 335 337 338 339 341 342 339 338 337 336 335 334 333 332 329 326 328 329 332 330 329 328 329 329 328 327 325 322 319 317
288 281 286 290 299 299 295 289 299 309 309 305 304 304 306 308 317 326 332 334 336 338 337 338 340 338 337 338 337 335 334 331 330 326 324 326 326 327 328 329 329 329 327 326 325 322 320 318 318
282 284 284 287 295 297 293 292 297 302 307 305 304 303 304 306 310 323 328 332 333 336 337 339 339 338 337 337 334 333 332 329 327 325 324 323 324 325 325 324 326 327 324 323 321 320 320 319 319
285 285 283 288 296 294 292 292 295 299 300 304 303 302 303 305 308 312 325 330 331 332 335 337 335 337 337 335 333 331 330 328 329 328 327 326 326 326 325 325 324 323 322 322 321 321 320 320 320
285 285 284 289 294 295 293 292 297 298 299 304 304 303 303 304 306 307 316 325 331 332 332 333 335 335 336 336 335 333 332 331 332 332 332 330 329 328 326 326 325 322 321 321 321 322 321 322 321
285 285 284 287 293 294 293 291 294 299 301 303 305 305 304 304 304 304 309 320 325 327 329 332 333 335 336 335 332 331 331 330 330 330 332 332 332 332 331 330 329 326 323 322 323 323 323 321 322
282 289 289 288 288 284 292 281 290 294 297 300 302 303 303 304 305 303 307 316 321 326 329 331 331 334 333 333 332 330 330 328 330 330 331 331 334 333 333 331 331 330 329 327 326 327 326 324 321
286 292 288 288 287 287 287 283 286 293 293 296 299 302 305 306 305 305 306 316 320 323 325 327 329 329 329 331 331 328 326 327 327 328 329 329 330 331 332 332 330 330 330 330 330 328 327 326 323
290 290 289 289 287 277 285 283 283 288 291 294 298 302 305 306 307 305 305 313 317 318 320 323 325 327 328 329 328 327 324 323 323 324 325 325 328 329 330 330 329 329 329 329 329 329 328 327 326
287 286 279 277 277 275 287 284 285 291 294 295 297 299 304 306 301 301 306 312 315 317 318 319 322 323 326 325 324 324 323 323 323 322 322 322 322 323 326 327 327 326 325 324 324 322 320 323 324
285 285 273 272 273 277 287 281 286 291 294 297 299 300 301 301 301 301 305 309 313 315 316 318 319 322 324 323 321 320 321 322 322 322 321 321 320 319 321 321 321 321 321 322 320 319 320 321 322
285 282 288 277 277 276 281 283 287 290 291 291 296 297 297 298 298 300 303 307 311 311 312 316 317 321 320 318 317 317 317 318 317 316 316 315 314 316 317 318 318 317 317 317 317 317 317 317 319
287 289 282 276 269 273 277 277 280 285 287 291 293 294 296 297 298 299 304 306 309 311 309 311 313 315 315 315 315 315 314 313 311 311 311 310 310 311 312 311 311 311 311 311 310 310 310 310 310
283 280 285 285 277 273 273 277 284 286 287 290 291 293 294 296 296 298 303 304 305 305 305 306 309 310 311 311 308 309 308 308 307 307 306 306 306 307 307 307 307 307 306 307 306 306 306 306 306
286 283 284 276 276 276 271 278 288 287 290 292 292 294 295 295 295 297 302 303 302 303 302 303 304 306 306 305 306 305 304 304 303 302 301 302 301 302 301 302 302 301 301 301 300 301 303 303 305

GFSSGP_sfc_thetae_108.txt.gz
Theta_e
323 322 324 317 300 299 292 293 296 295 299 306 307 310 311 316 312 304 334 340 346 348 351 352 355 353 352 349 350 353 354 356 357 357 356 354 353 352 349 347 346 345 348 347 348 349 348 348 346
322 321 321 310 297 291 291 294 297 300 302 307 311 318 316 313 327 335 337 345 347 349 350 351 354 352 351 349 349 352 353 354 355 355 355 354 351 349 347 345 344 345 348 348 349 349 347 347 346
319 320 307 302 297 290 290 294 299 301 305 307 311 320 320 319 331 336 342 347 348 348 349 351 353 352 351 350 349 351 353 353 353 353 353 352 348 347 345 343 345 347 348 350 348 347 346 344 343
313 308 306 297 295 296 295 294 297 298 302 302 312 312 320 332 335 341 346 348 347 347 349 351 352 352 351 350 350 350 352 352 352 352 351 350 346 344 343 343 345 347 349 349 346 346 346 344 341
311 305 292 291 294 298 301 298 297 298 299 301 316 309 315 334 340 345 346 346 344 347 349 349 352 352 351 351 350 350 351 350 352 351 350 347 345 343 343 343 346 348 349 347 345 345 345 343 340
303 304 291 285 291 299 301 301 301 298 301 308 315 314 317 336 340 344 346 344 345 345 346 348 348 350 350 349 349 348 349 349 350 349 346 345 344 343 343 344 346 348 347 346 344 344 344 342 340
296 296 289 288 289 293 298 304 300 302 300 302 317 315 326 336 341 344 344 344 345 346 344 344 346 347 347 348 347 346 346 347 346 346 345 344 343 344 344 346 347 348 348 347 345 343 343 342 340
297 295 291 289 288 291 302 303 306 305 302 315 319 313 321 336 341 344 343 343 342 342 343 342 344 345 344 344 345 344 343 343 344 343 341 340 341 343 346 345 346 347 347 346 345 343 341 342 340
300 290 286 290 290 292 304 303 307 310 306 310 319 318 327 341 341 339 338 340 340 340 341 342 342 343 343 342 343 343 342 341 341 339 336 335 335 336 336 339 341 344 345 344 342 340 339 338 336
294 288 289 294 295 294 300 304 306 307 305 310 320 328 337 338 338 335 334 334 337 337 340 341 342 342 342 343 342 341 338 336 334 333 332 332 332 332 335 335 340 343 342 342 341 339 334 327 322
292 288 292 294 298 300 299 303 307 305 304 308 314 325 334 334 336 334 334 335 336 337 340 341 341 342 340 341 342 342 338 333 330 329 331 330 330 330 330 331 332 332 331 331 330 327 323 321 320
288 293 294 296 299 298 299 305 303 305 306 313 310 328 332 330 331 333 333 335 335 336 338 341 340 340 338 339 338 338 337 333 330 330 329 328 328 326 326 327 327 327 326 325 323 322 321 321 320
291 291 294 296 297 298 302 301 302 303 307 312 314 322 327 328 330 332 333 334 335 334 338 340 340 339 338 337 334 333 335 333 332 331 330 329 327 325 325 324 324 323 323 322 321 320 320 320 321
293 293 293 295 296 298 298 299 301 303 309 310 317 322 325 328 329 330 330 329 332 335 338 341 339 340 338 336 332 330 331 332 332 331 331 330 330 327 326 324 324 324 325 325 323 322 322 324 324
293 288 292 294 294 295 300 295 295 302 305 308 311 314 321 328 329 329 331 330 327 332 338 340 339 340 337 335 332 329 330 331 331 331 331 331 332 330 328 326 326 326 326 326 325 325 325 323 323
288 288 284 291 293 294 297 288 296 302 301 305 305 307 312 319 327 331 333 331 333 336 338 340 340 340 338 336 333 331 331 331 330 328 331 331 332 332 329 328 327 328 327 327 326 324 322 320 318
286 281 283 288 294 294 294 290 296 300 300 304 304 303 308 311 320 328 333 334 336 337 339 339 339 338 337 336 335 333 332 331 330 327 327 328 329 332 331 329 328 328 327 326 325 323 321 318 317
277 281 284 285 290 293 292 291 297 298 297 300 305 302 306 308 312 321 328 333 336 338 339 339 339 339 337 336 335 333 330 329 327 327 325 325 326 327 329 328 328 328 326 325 323 322 320 319 319
285 282 282 288 294 292 292 291 294 298 295 298 303 302 305 308 311 316 327 330 331 335 336 338 338 338 336 335 332 330 329 325 324 324 324 324 325 325 326 326 326 326 326 325 323 320 319 318 318
285 282 284 289 293 293 292 291 295 295 296 298 302 302 303 307 308 310 322 328 329 330 334 334 337 337 336 335 335 332 331 329 330 328 326 325 325 325 325 324 323 323 322 322 321 320 319 320 320
285 283 285 286 293 295 292 290 293 297 299 301 302 304 304 305 306 307 315 323 327 329 330 332 334 335 335 334 332 330 330 329 328 328 327 329 329 326 326 325 325 322 322 321 320 320 321 320 321
279 288 290 290 287 284 290 281 291 294 295 299 301 302 302 303 304 304 306 316 324 328 330 333 333 334 335 335 333 330 329 327 328 329 330 331 331 330 329 330 329 327 325 325 324 326 325 324 321
285 291 289 289 285 287 286 282 287 294 292 295 298 301 304 304 304 303 304 311 319 325 328 329 330 332 333 334 333 329 330 331 331 329 330 330 331 332 331 330 329 328 329 329 329 327 326 325 324
289 290 289 288 285 277 285 283 282 289 292 294 297 301 302 304 305 303 301 304 316 320 324 328 330 329 330 331 330 330 328 328 327 327 329 329 328 328 330 331 331 330 330 329 329 328 327 326 325
285 281 276 273 273 276 285 282 284 292 295 297 297 299 303 305 306 303 299 307 314 318 319 322 325 325 327 329 328 327 326 326 326 326 326 326 325 326 327 327 326 325 326 326 325 324 323 322 323
285 281 274 272 275 278 286 280 284 289 295 298 300 300 303 304 306 301 300 304 310 315 317 320 321 322 325 325 324 325 324 323 322 323 323 323 322 322 324 323 322 322 322 321 319 318 319 321 320
285 282 287 279 276 274 278 281 286 290 290 290 294 298 299 302 300 300 301 304 310 313 316 318 318 322 322 323 319 320 319 319 319 319 318 317 316 317 320 319 318 317 317 316 316 316 315 317 319
288 290 279 278 272 274 277 277 279 284 287 289 291 295 297 297 299 300 301 303 309 313 312 314 316 320 318 315 315 315 315 315 314 314 313 312 311 312 313 312 312 311 310 309 309 308 308 307 307
285 283 284 282 278 274 273 277 285 285 287 289 291 293 294 295 297 298 300 303 305 307 308 309 311 312 313 311 311 311 310 309 309 308 307 306 306 307 307 307 306 306 305 304 305 305 305 307 306
286 283 285 275 276 275 273 278 287 287 290 292 292 294 294 295 297 298 298 303 303 304 305 306 306 309 307 307 307 306 305 305 304 303 302 303 301 302 302 302 301 300 299 298 299 299 300 301 301

GFSSGP_sfc_thetae_111.txt.gz
Theta_e
326 325 325 321 304 301 295 297 302 299 302 309 314 316 317 319 314 311 339 344 346 349 352 353 355 355 354 354 355 355 355 357 357 357 355 354 354 352 350 352 352 350 351 351 351 349 346 347 348
323 325 322 312 299 291 293 301 299 303 305 309 313 319 318 313 330 334 337 345 348 350 352 352 353 354 353 354 355 356 357 357 356 356 355 356 353 350 349 349 351 351 351 350 349 348 347 345 345
321 321 309 302 298 293 294 300 303 304 307 307 309 322 322 321 333 336 344 347 349 350 352 351 352 353 352 353 355 356 357 357 355 354 354 354 352 348 346 349 350 350 351 350 348 347 346 344 343
317 314 308 295 294 299 300 302 301 303 306 306 310 309 326 336 336 341 346 348 347 349 351 351 351 352 351 353 355 355 355 354 354 353 352 351 350 346 346 348 348 350 350 349 348 345 344 341 339
315 307 294 291 292 300 303 305 304 300 304 304 312 310 317 334 342 345 345 347 345 347 350 350 352 351 351 352 354 354 354 353 353 352 351 349 347 345 345 347 349 350 348 347 347 345 343 339 338
304 305 291 287 290 296 302 306 304 304 305 304 314 314 317 338 342 345 347 344 346 347 349 349 348 349 350 351 352 352 353 353 352 351 350 347 346 345 344 347 349 349 347 347 347 344 342 339 338
297 296 290 291 290 292 299 306 304 304 304 305 315 315 322 335 343 346 345 344 345 347 347 348 347 347 347 348 349 350 351 350 350 349 348 345 344 344 345 348 349 349 347 346 346 345 342 339 337
300 296 289 292 290 291 298 301 307 305 304 312 322 311 317 332 344 345 343 343 343 345 346 346 346 345 345 345 345 346 347 346 346 345 342 340 340 342 345 345 346 348 347 345 345 345 343 341 338
303 290 286 289 291 293 300 298 306 311 307 309 313 321 327 338 341 339 338 339 340 342 343 345 344 344 344 342 341 342 342 342 341 340 337 337 341 343 342 340 342 345 346 344 344 342 341 340 338
295 288 288 293 295 294 298 299 303 303 306 308 310 322 333 338 338 335 333 333 335 338 340 343 343 342 343 342 342 341 341 340 339 339 339 342 344 344 342 338 340 343 343 342 341 338 334 332 333
294 288 292 294 296 299 298 300 303 303 302 307 308 311 326 336 333 333 334 333 335 338 340 341 342 341 342 341 342 340 339 338 338 338 339 341 341 342 342 343 343 342 336 339 336 332 331 330 330
289 293 294 294 296 297 297 301 300 303 304 309 309 311 312 330 333 332 332 334 334 336 339 340 342 340 341 343 340 339 337 336 336 336 337 338 337 338 339 339 339 339 337 335 333 330 329 329 329
290 292 294 296 297 297 299 296 298 302 309 308 309 311 312 315 330 332 329 334 335 335 338 339 341 341 340 337 339 339 336 335 336 336 336 336 335 335 336 335 335 335 334 333 330 329 328 328 329
293 293 293 294 295 296 295 296 298 303 308 307 307 308 312 316 326 330 329 327 327 334 338 340 340 341 340 336 335 336 335 334 335 335 336 335 335 334 333 332 332 331 331 330 328 327 328 331 333
292 287 290 291 294 293 297 292 293 302 304 304 305 305 308 316 326 329 331 330 331 336 339 338 340 340 339 337 337 335 334 334 333 333 334 334 334 333 332 330 329 330 331 331 331 331 333 333 333
286 286 282 290 292 295 295 286 297 303 302 302 303 302 307 314 323 330 333 334 334 336 338 339 340 339 338 337 336 336 337 336 335 334 334 333 333 333 331 330 330 332 333 334 333 332 332 332 330
284 278 281 285 294 293 292 288 297 301 302 301 299 297 307 313 323 327 331 332 331 336 338 338 339 338 337 336 335 334 335 336 336 336 335 334 335 334 333 332 333 333 333 333 332 332 331 330 329
274 278 282 281 290 291 289 289 296 300 302 299 296 297 305 309 320 326 330 332 331 335 339 339 339 338 338 336 336 336 334 333 334 334 334 335 335 336 336 334 333 333 332 332 331 331 329 329 327
283 282 280 284 289 289 288 288 294 298 297 294 295 298 302 307 311 318 330 332 332 337 338 338 338 338 337 335 333 331 330 332 332 332 331 332 333 334 336 335 334 333 332 332 331 329 328 326 326
283 282 282 286 290 290 289 289 294 295 294 295 297 299 301 305 309 315 327 329 330 333 337 337 337 337 337 337 336 335 334 332 332 331 329 329 330 330 331 332 331 332 331 330 329 328 325 325 325
282 282 283 285 291 292 290 288 292 295 297 298 300 302 303 305 307 310 323 328 328 329 333 337 337 337 337 336 335 334 334 333 332 331 330 329 328 329 329 329 330 329 329 329 328 327 327 325 325
281 288 288 288 287 283 290 281 290 293 293 297 300 301 303 306 307 307 316 324 327 327 331 333 332 332 334 334 333 331 330 329 332 331 331 330 330 329 330 330 330 328 329 328 327 327 326 325 324
285 287 288 290 288 286 286 284 287 293 291 295 299 301 303 306 307 306 311 318 322 329 330 332 331 330 331 333 332 329 326 329 330 331 330 330 330 331 331 331 332 330 330 328 328 326 326 328 327
289 289 288 289 286 280 285 284 284 289 292 295 298 301 304 305 307 307 307 308 318 325 328 329 328 329 332 331 331 327 325 327 332 331 330 330 332 331 332 331 332 332 331 330 330 330 329 329 328
287 281 275 277 276 277 286 284 285 292 295 297 298 300 303 305 306 304 306 310 318 322 326 327 328 328 329 328 327 330 327 329 329 328 329 329 328 329 330 331 331 331 331 331 330 330 328 329 326
285 282 277 272 274 279 286 281 283 290 292 298 300 301 303 305 306 304 303 308 315 320 323 324 326 326 329 330 328 328 328 328 329 329 329 329 328 328 329 328 328 328 329 328 327 325 325 325 325
285 281 287 279 279 279 280 283 288 291 290 291 295 300 301 302 301 303 303 307 312 317 321 324 324 325 327 327 327 327 328 327 325 326 325 324 324 325 326 326 323 324 323 322 322 321 321 322 321
287 290 280 280 273 275 278 279 280 285 287 290 293 296 300 300 301 303 302 306 311 315 318 320 322 322 323 323 322 322 321 322 322 322 319 318 319 321 320 318 317 315 315 316 315 314 313 313 312
284 284 285 283 279 277 275 279 287 286 287 289 292 293 297 298 298 301 301 305 309 312 315 316 318 318 317 317 318 318 317 317 317 316 314 313 314 314 314 313 312 310 308 309 310 310 310 310 310
287 284 284 278 278 276 278 280 288 288 291 292 292 295 295 298 300 301 301 303 306 309 312 314 315 315 314 314 314 313 313 313 311 310 309 310 309 309 309 307 305 304 303 304 304 304 305 306 306

GFSSGP_sfc_thetae_114.txt.gz
Theta_e
328 327 327 324 307 305 299 302 308 306 306 314 316 316 317 322 319 316 342 346 348 348 352 355 355 352 356 356 356 358 358 358 358 358 357 354 354 353 353 354 352 353 353 350 349 349 350 349 349
328 323 322 315 301 295 297 305 304 307 310 312 314 316 317 317 329 335 339 346 348 348 351 352 354 355 356 356 355 357 358 357 357 357 357 355 354 353 353 353 351 353 352 352 349 347 348 347 347
324 322 309 303 299 295 297 305 307 309 312 311 310 317 317 317 333 338 345 348 349 348 350 351 354 354 355 356 355 356 358 357 357 356 354 354 354 352 352 352 351 353 352 351 349 345 345 345 345
320 317 310 298 293 298 300 305 308 308 311 312 311 310 320 333 337 342 347 349 347 347 349 352 353 354 354 356 355 356 357 357 355 354 353 353 352 351 351 351 352 351 350 349 347 345 343 342 342
319 312 298 294 293 297 301 306 309 306 308 310 311 308 313 335 343 345 345 348 346 346 350 350 352 353 355 356 356 356 356 355 354 353 353 352 350 350 350 350 351 350 350 347 345 342 339 338 338
305 305 293 290 293 297 300 305 309 308 309 309 308 309 313 337 342 344 346 348 347 346 349 349 349 350 353 355 355 354 354 354 353 352 352 350 349 349 349 350 350 349 349 347 344 340 339 338 338
301 298 292 292 292 295 299 304 306 307 308 309 312 307 314 335 342 346 346 346 347 348 348 348 348 348 349 352 352 352 352 351 351 350 348 347 345 346 347 350 349 348 348 347 346 341 339 338 337
303 298 292 293 291 293 300 302 305 306 308 316 315 308 310 328 344 342 344 345 346 346 347 346 345 343 350 351 348 348 349 348 348 346 344 341 341 342 347 346 346 347 347 346 346 343 339 338 336
304 293 288 290 291 294 301 300 304 308 307 311 314 316 319 323 341 342 339 340 341 343 346 346 343 341 342 349 346 345 345 344 342 341 337 337 340 343 345 341 343 344 345 346 345 344 340 339 337
297 291 290 295 296 295 298 301 302 303 302 305 310 316 320 324 334 337 336 333 337 338 343 344 341 339 339 343 345 346 345 345 343 341 341 337 337 341 344 340 340 344 342 342 342 340 338 336 337
296 291 294 295 297 298 297 298 302 300 298 305 306 312 318 319 330 337 338 338 336 337 343 343 339 341 339 337 345 345 343 342 342 342 337 336 337 340 343 343 341 342 336 338 337 335 336 336 336
291 295 295 296 297 296 295 299 298 301 303 308 310 314 317 316 317 320 335 337 335 336 340 341 340 339 336 337 336 340 343 342 339 337 336 338 339 338 339 339 341 338 340 337 336 335 335 335 335
291 293 294 296 297 297 298 295 297 299 305 308 310 310 314 315 316 320 321 338 330 332 338 339 340 337 337 335 334 334 334 335 335 335 338 339 339 338 341 340 342 339 339 336 333 332 333 333 333
293 293 294 295 295 296 295 296 297 299 305 307 309 309 311 313 314 315 317 331 332 332 337 340 340 337 339 337 335 333 333 334 334 334 338 341 339 337 337 337 337 337 336 333 332 330 330 331 333
294 289 291 292 294 294 296 292 293 299 302 304 306 309 310 312 313 315 320 331 328 325 338 340 340 338 339 338 338 335 333 333 334 334 336 338 338 337 336 334 334 333 333 331 330 329 331 333 335
289 288 283 290 293 295 295 287 295 299 299 300 304 308 308 311 312 317 322 322 328 324 336 341 341 339 338 338 337 337 335 332 332 334 335 335 335 335 334 332 331 331 331 330 330 329 331 336 336
284 280 283 286 293 293 293 289 296 301 300 299 303 306 305 308 310 314 323 322 326 324 332 338 340 339 339 340 339 338 338 335 332 331 332 334 333 333 332 330 330 332 334 334 334 335 335 334 335
280 280 283 284 289 292 290 291 296 301 302 302 305 305 303 305 307 312 321 325 328 327 332 339 339 339 340 341 341 340 340 340 339 335 333 332 332 332 332 332 334 335 335 335 335 334 335 336 334
284 282 282 286 290 289 289 291 294 299 301 302 303 303 303 305 308 311 315 320 327 331 335 337 338 339 338 337 335 335 334 336 337 340 340 338 337 337 337 336 336 337 336 335 336 335 334 333 332
285 282 282 286 291 290 290 290 294 297 300 302 302 302 302 304 307 309 314 325 323 331 333 337 337 336 337 339 337 336 335 336 336 337 337 338 338 339 338 338 337 337 336 336 335 334 330 333 332
284 282 283 283 289 291 291 287 291 296 298 299 302 304 302 304 306 308 312 325 325 327 331 334 336 336 337 338 338 337 337 336 334 335 335 335 336 336 337 337 337 336 336 334 335 335 334 330 331
282 287 287 287 284 282 291 280 288 291 293 297 301 303 304 305 307 309 312 324 326 327 332 334 335 336 337 340 336 334 332 331 333 335 336 334 332 333 334 333 333 334 335 334 334 334 334 327 324
286 288 287 288 285 286 286 286 286 292 291 295 300 303 305 306 306 308 312 325 327 328 325 331 332 333 334 338 335 333 334 336 337 336 334 334 332 333 332 333 334 333 334 331 328 327 326 329 329
290 288 288 287 286 282 286 287 286 290 293 297 300 302 304 306 307 309 318 325 325 325 325 328 329 329 331 331 331 331 329 329 330 332 332 332 332 331 332 332 332 332 331 330 330 332 330 330 330
288 286 281 279 280 279 288 285 285 291 296 298 299 301 304 305 307 307 311 320 325 324 325 327 327 326 326 328 329 328 327 326 328 331 330 331 331 332 331 331 330 331 330 333 331 332 331 330 329
285 286 281 275 277 280 287 281 284 293 295 297 302 301 303 304 306 305 313 318 323 326 327 326 326 325 326 326 327 328 326 326 327 327 328 327 328 330 331 330 331 331 331 332 331 330 329 331 330
286 285 288 283 283 282 283 286 292 294 294 296 300 299 301 304 303 304 310 316 323 324 325 326 325 325 326 326 326 325 328 321 326 326 328 328 328 328 329 330 329 330 331 331 331 329 327 328 326
289 290 284 286 278 277 280 283 282 288 290 293 297 297 301 303 303 305 309 313 317 324 323 325 327 325 327 326 325 325 323 321 324 325 326 325 325 326 327 326 327 326 326 326 326 325 323 323 322
287 286 287 286 283 281 279 281 288 290 292 293 296 299 300 301 301 304 305 311 316 321 323 323 324 324 323 326 327 326 325 325 325 324 323 323 323 324 323 322 321 319 319 320 319 318 317 316 315
290 288 287 284 281 282 284 281 292 294 295 296 296 299 301 301 301 304 305 308 313 317 320 318 320 320 322 322 322 322 321 321 321 319 319 320 320 320 318 317 315 314 314 315 315 312 313 312 312

GFSSGP_sfc_thetae_117.txt.gz
Theta_e
329 326 323 322 306 304 298 301 308 307 308 314 317 317 316 320 317 315 341 346 346 348 350 352 356 357 357 359 359 359 358 358 358 356 356 354 353 352 353 353 353 353 351 349 351 351 350 350 349
327 322 319 311 299 295 297 303 304 308 312 314 314 316 315 316 327 335 338 345 347 349 350 350 354 356 357 357 359 358 358 358 357 356 355 355 354 354 353 355 355 354 352 351 350 349 349 348 347
324 322 309 301 299 295 296 304 306 309 313 313 311 316 316 317 326 335 345 347 348 349 350 350 353 354 356 356 358 358 357 357 357 356 355 354 354 353 353 353 352 351 351 349 347 347 347 346 344
318 315 310 297 293 299 300 303 306 309 312 314 313 309 316 322 326 338 345 346 346 348 349 351 353 353 355 355 356 358 357 356 356 354 353 353 353 353 352 352 351 350 350 348 345 345 345 344 343
316 310 298 294 294 298 302 304 306 305 310 311 312 308 312 322 342 344 345 346 345 347 349 351 353 354 355 355 355 356 356 355 355 354 353 353 353 353 352 352 350 350 349 347 344 342 341 340 339
305 305 294 291 294 299 301 303 303 304 308 309 309 310 312 321 338 344 346 346 347 346 349 350 350 351 353 354 354 356 355 354 353 352 352 352 351 351 352 351 350 349 347 344 341 339 339 338 338
301 298 293 293 293 295 299 304 301 301 305 307 312 307 313 317 336 345 344 346 347 348 348 349 349 349 350 352 353 354 353 352 350 351 350 348 348 349 351 349 349 349 347 344 342 339 338 338 337
303 299 292 293 292 293 300 302 304 303 302 311 313 306 309 316 330 343 345 346 344 347 346 348 347 346 348 352 349 349 349 348 348 347 344 342 342 345 348 345 347 347 346 345 342 341 338 337 336
305 293 290 291 292 294 300 298 304 306 304 306 309 310 316 322 327 336 339 343 341 344 344 347 344 342 344 349 348 346 346 344 343 341 338 338 340 343 344 340 343 345 346 345 343 341 339 338 336
297 292 291 296 297 295 298 298 299 301 302 302 305 310 318 320 323 328 334 335 338 340 341 344 342 339 342 347 348 348 347 345 342 341 340 337 337 343 344 339 340 344 344 344 343 340 338 335 333
297 291 296 297 298 299 297 297 300 299 298 303 303 306 312 317 321 323 333 336 331 337 340 343 341 338 340 344 348 347 346 343 341 340 339 333 336 342 343 341 340 340 336 339 339 337 336 337 335
292 296 296 297 298 297 296 299 296 298 299 304 307 309 310 313 318 319 320 329 335 331 336 341 339 337 338 343 345 344 344 341 339 339 334 333 336 342 341 340 339 337 337 336 335 334 334 334 334
292 294 296 296 296 296 297 295 296 297 301 304 306 309 310 311 314 320 318 321 320 331 333 338 338 337 335 339 343 343 341 339 341 341 332 335 337 338 339 338 339 337 337 335 334 333 333 332 332
294 294 294 295 295 296 294 295 296 298 301 301 303 305 308 311 311 316 318 319 320 328 334 331 338 338 334 334 340 342 341 339 337 336 336 338 338 338 339 337 340 338 337 335 332 331 331 331 331
293 289 291 292 293 292 295 290 292 298 300 299 301 304 307 311 313 315 318 318 322 322 336 334 336 335 333 331 332 334 339 337 334 334 338 337 338 338 339 338 338 336 336 332 331 329 330 330 331
289 289 284 291 292 293 292 285 295 299 299 298 299 304 306 309 311 315 319 319 324 325 333 336 336 334 333 332 332 331 333 333 333 334 337 338 337 338 337 336 335 334 332 330 329 328 329 332 334
287 280 282 285 291 291 291 288 295 299 299 297 299 300 304 307 310 311 317 319 325 322 331 334 336 334 337 337 335 332 330 332 332 333 335 336 335 335 334 333 332 331 330 329 329 329 331 333 333
280 281 283 283 288 290 289 289 294 298 299 298 298 300 302 306 308 312 314 322 325 327 326 331 336 336 337 337 335 335 330 329 332 333 333 334 333 333 332 331 329 330 331 332 334 333 335 334 333
285 283 282 285 289 287 286 288 293 297 299 299 300 303 304 307 309 311 315 322 324 326 326 331 335 336 336 334 333 334 332 331 330 331 330 331 330 331 330 330 331 333 333 333 333 334 333 333 334
284 282 282 286 289 287 288 288 293 296 299 301 302 303 305 306 308 310 313 319 320 325 324 326 334 336 336 334 335 336 338 338 337 335 332 330 331 332 332 334 334 334 334 333 334 334 333 334 335
284 282 282 282 287 290 288 287 289 295 299 301 303 304 306 306 307 308 311 316 321 318 325 326 329 335 336 336 337 337 337 337 336 336 337 337 337 338 337 337 335 336 336 335 336 335 334 331 334
281 288 286 284 283 280 290 281 289 292 294 298 300 302 304 306 307 309 311 314 320 320 322 329 328 333 336 337 334 333 331 330 333 334 335 335 337 338 339 339 338 338 337 336 335 336 337 335 328
284 288 287 287 284 284 286 281 287 293 291 294 298 302 305 307 308 308 311 315 324 324 325 328 330 332 335 335 335 334 332 332 333 335 333 334 335 335 336 335 334 334 336 337 336 334 330 329 329
291 288 287 286 285 280 286 283 284 287 291 295 299 302 304 306 308 309 312 316 325 325 325 327 326 330 333 334 333 333 334 334 332 333 332 332 332 333 333 334 334 334 335 333 331 328 330 330 331
289 285 281 279 278 280 287 284 285 290 292 297 298 300 304 306 307 309 311 320 323 324 324 323 325 327 328 330 331 328 328 330 334 333 333 331 329 330 331 331 332 332 332 332 330 329 330 331 331
285 286 281 275 278 281 288 282 285 293 297 299 299 300 304 304 304 305 313 321 324 323 323 323 323 323 325 324 326 327 326 328 328 329 332 331 330 332 332 331 332 329 330 330 330 329 330 330 329
287 286 289 283 284 282 284 287 291 294 297 296 296 300 301 302 302 305 312 321 322 322 322 323 324 323 324 325 324 326 324 326 325 326 328 327 328 330 331 331 330 330 330 329 330 329 327 328 330
290 291 284 286 278 277 282 282 281 288 292 294 295 298 300 301 302 304 312 322 324 324 325 326 326 324 324 325 325 324 325 325 326 325 324 326 327 327 328 328 329 329 329 328 329 326 326 324 324
288 286 287 287 284 280 279 280 290 291 292 295 296 299 300 300 301 303 310 321 322 324 324 324 325 324 324 325 324 324 324 324 324 323 325 325 325 326 326 326 325 325 324 325 324 322 322 321 317
291 289 288 285 283 286 283 281 295 295 295 297 297 299 300 301 302 305 309 318 319 319 320 320 322 323 324 325 324 324 323 322 322 323 324 325 325 325 325 323 321 320 321 321 319 317 316 316 314